[[{"header":{"parameterUnit":"m.s-1","parameterCategory":1,"la1":30.6,"la2":28.766,"lo1":-90.7593,"lo2":-88.6598,"dy":0.0162,"dx":0.0183,"nx":116,"ny":114,"refTime":"2023-09-25T00:00:00:Z","depth":0,"parameterNumber":2,"parameterNumberName":"U-component_of_WINDS"},"data":[0.0,0.0,0.0,0.0,0.0,0.0,0.0,0.0,0.0,0.0,0.0,0.0,0.0,0.0,0.0,0.0,0.0,0.0,0.0,0.0,0.0,0.0,0.0,0.0,0.0,0.0,0.0,0.0,0.0,0.0,0.0,0.0,0.0,0.0,0.0,0.0,0.0,0.0,0.0,0.0,0.0,0.0,0.0,0.0,0.0,0.0,0.0,0.0,0.0,0.0,0.0,0.0,0.0,0.0,0.0,0.0,0.0,0.0,0.0,0.0,0.0,0.0,0.0,0.0,0.0,0.0,0.0,0.0,0.0,0.0,0.0,0.0,0.0,0.0,0.0,0.0,0.0,0.0,0.0,0.0,0.0,0.0,0.0,0.0,0.0,0.0,0.0,0.0,0.0,0.0,0.0,0.0,0.0,0.0,0.0,0.0,0.0,0.0,0.0,0.0,0.0,0.0,0.0,0.0,0.0,0.0,0.0,0.0,0.0,0.0,0.0,0.0,0.0,0.0,0.0,0.0,0.0,0.0,0.0,0.0,0.0,0.0,0.0,0.0,0.0,0.0,0.0,0.0,0.0,0.0,0.0,0.0,0.0,0.0,0.0,0.0,0.0,0.0,0.0,0.0,0.0,0.0,0.0,0.0,0.0,0.0,0.0,0.0,0.0,0.0,0.0,0.0,0.0,0.0,0.0,0.0,0.0,0.0,0.0,0.0,0.0,0.0,0.0,0.0,0.0,0.0,0.0,0.0,0.0,0.0,0.0,0.0,0.0,0.0,0.0,0.0,0.0,0.0,0.0,0.0,0.0,0.0,0.0,0.0,0.0,0.0,0.0,0.0,0.0,0.0,0.0,0.0,0.0,0.0,0.0,0.0,0.0,0.0,0.0,0.0,0.0,0.0,0.0,0.0,0.0,0.0,0.0,0.0,0.0,0.0,0.0,0.0,0.0,0.0,0.0,0.0,0.0,0.0,0.0,0.0,0.0,0.0,0.0,0.0,0.0,0.0,0.0,0.0,0.0,0.0,0.0,0.0,0.0,0.0,0.0,0.0,0.0,0.0,0.0,0.0,0.0,0.0,0.0,0.0,0.0,0.0,0.0,0.0,0.0,0.0,0.0,0.0,0.0,0.0,0.0,0.0,0.0,0.0,0.0,0.0,0.0,0.0,0.0,0.0,0.0,0.0,0.0,0.0,0.0,0.0,0.0,0.0,0.0,0.0,0.0,0.0,0.0,0.0,0.0,0.0,0.0,0.0,0.0,0.0,0.0,0.0,0.0,0.0,0.0,0.0,0.0,0.0,0.0,0.0,0.0,0.0,0.0,0.0,0.0,0.0,0.0,0.0,0.0,0.0,0.0,0.0,0.0,0.0,0.0,0.0,0.0,0.0,0.0,0.0,0.0,0.0,0.0,0.0,0.0,0.0,0.0,0.0,0.0,0.0,0.0,0.0,0.0,0.0,0.0,0.0,0.0,0.0,0.0,0.0,0.0,0.0,0.0,0.0,0.0,0.0,0.0,0.0,0.0,0.0,0.0,0.0,0.0,0.0,0.0,0.0,0.0,0.0,0.0,0.0,0.0,0.0,0.0,0.0,0.0,0.0,0.0,0.0,0.0,0.0,0.0,0.0,0.0,0.0,0.0,0.0,0.0,0.0,0.0,0.0,0.0,0.0,0.0,0.0,0.0,0.0,0.0,0.0,0.0,0.0,0.0,0.0,0.0,0.0,0.0,0.0,0.0,0.0,0.0,0.0,0.0,0.0,0.0,0.0,0.0,0.0,0.0,0.0,0.0,0.0,0.0,0.0,0.0,0.0,0.0,0.0,0.0,0.0,0.0,0.0,0.0,0.0,0.0,0.0,0.0,0.0,0.0,0.0,0.0,0.0,0.0,0.0,0.0,0.0,0.0,0.0,0.0,0.0,0.0,0.0,0.0,0.0,0.0,0.0,0.0,0.0,0.0,0.0,0.0,0.0,0.0,0.0,0.0,0.0,0.0,0.0,0.0,0.0,0.0,0.0,0.0,0.0,0.0,0.0,0.0,0.0,0.0,0.0,0.0,0.0,0.0,0.0,0.0,0.0,0.0,0.0,0.0,0.0,0.0,0.0,0.0,0.0,0.0,0.0,0.0,0.0,0.0,0.0,0.0,0.0,0.0,0.0,0.0,0.0,0.0,0.0,0.0,0.0,0.0,0.0,0.0,0.0,0.0,0.0,0.0,0.0,0.0,0.0,0.0,0.0,0.0,0.0,0.0,0.0,0.0,0.0,0.0,0.0,0.0,0.0,0.0,0.0,0.0,0.0,0.0,0.0,0.0,0.0,0.0,0.0,0.0,0.0,0.0,0.0,0.0,0.0,0.0,0.0,0.0,0.0,0.0,0.0,0.0,0.0,0.0,0.0,0.0,0.0,0.0,0.0,0.0,0.0,0.0,0.0,0.0,0.0,0.0,0.0,0.0,0.0,0.0,0.0,0.0,0.0,0.0,0.0,0.0,0.0,0.0,0.0,0.0,0.0,0.0,0.0,0.0,0.0,0.0,0.0,0.0,0.0,0.0,0.0,0.0,0.0,0.0,0.0,0.0,0.0,0.0,0.0,0.0,0.0,0.0,0.0,0.0,0.0,0.0,0.0,0.0,0.0,0.0,0.0,0.0,0.0,0.0,0.0,0.0,0.0,0.0,0.0,0.0,0.0,0.0,0.0,0.0,0.0,0.0,0.0,0.0,0.0,0.0,0.0,0.0,0.0,0.0,0.0,0.0,0.0,0.0,0.0,0.0,0.0,0.0,0.0,0.0,0.0,0.0,0.0,0.0,0.0,0.0,0.0,0.0,0.0,0.0,0.0,0.0,0.0,0.0,0.0,0.0,0.0,0.0,0.0,0.0,0.0,0.0,0.0,0.0,0.0,0.0,0.0,0.0,0.0,0.0,0.0,0.0,0.0,0.0,0.0,0.0,0.0,0.0,0.0,0.0,0.0,0.0,0.0,0.0,0.0,0.0,0.0,0.0,0.0,0.0,0.0,0.0,0.0,0.0,0.0,0.0,0.0,0.0,0.0,0.0,0.0,0.0,0.0,0.0,0.0,0.0,0.0,0.0,0.0,0.0,0.0,0.0,0.0,0.0,0.0,0.0,0.0,0.0,0.0,0.0,0.0,0.0,0.0,0.0,0.0,0.0,0.0,0.0,0.0,0.0,0.0,0.0,0.0,0.0,0.0,0.0,0.0,0.0,0.0,0.0,0.0,0.0,0.0,0.0,0.0,0.0,0.0,0.0,0.0,0.0,0.0,0.0,0.0,0.0,0.0,0.0,0.0,0.0,0.0,0.0,0.0,0.0,0.0,0.0,0.0,0.0,0.0,0.0,0.0,0.0,0.0,0.0,0.0,0.0,0.0,0.0,0.0,0.0,0.0,0.0,0.0,0.0,0.0,0.0,0.0,0.0,0.0,0.0,0.0,0.0,0.0,0.0,0.0,0.0,0.0,0.0,0.0,0.0,0.0,0.0,0.0,0.0,0.0,0.0,0.0,0.0,0.0,0.0,0.0,0.0,0.0,0.0,0.0,0.0,0.0,0.0,0.0,0.0,0.0,0.0,0.0,0.0,0.0,0.0,0.0,0.0,0.0,0.0,0.0,0.0,0.0,0.0,0.0,0.0,0.0,0.0,0.0,0.0,0.0,0.0,0.0,0.0,0.0,0.0,0.0,0.0,0.0,0.0,0.0,0.0,0.0,0.0,0.0,0.0,0.0,0.0,0.0,0.0,0.0,0.0,0.0,0.0,0.0,0.0,0.0,0.0,0.0,0.0,0.0,0.0,0.0,0.0,0.0,0.0,0.0,0.0,0.0,0.0,0.0,0.0,0.0,0.0,0.0,0.0,0.0,0.0,0.0,0.0,0.0,0.0,0.0,0.0,0.0,0.0,0.0,0.0,0.0,0.0,0.0,0.0,0.0,0.0,0.0,0.0,0.0,0.0,0.0,0.0,0.0,0.0,0.0,0.0,0.0,0.0,0.0,0.0,0.0,0.0,0.0,0.0,0.0,0.0,0.0,0.0,0.0,0.0,0.0,0.0,0.0,0.0,0.0,0.0,0.0,0.0,0.0,0.0,0.0,0.0,0.0,0.0,0.0,0.0,0.0,0.0,0.0,0.0,0.0,0.0,0.0,0.0,0.0,0.0,0.0,0.0,0.0,0.0,0.0,0.0,0.0,0.0,0.0,0.0,0.0,0.0,0.0,0.0,0.0,0.0,0.0,0.0,0.0,0.0,0.0,0.0,0.0,0.0,0.0,0.0,0.0,0.0,0.0,0.0,0.0,0.0,0.0,0.0,0.0,0.0,0.0,0.0,0.0,0.0,0.0,0.0,0.0,0.0,0.0,0.0,0.0,0.0,0.0,0.0,0.0,0.0,0.0,0.0,0.0,0.0,0.0,0.0,0.0,0.0,0.0,0.0,0.0,0.0,0.0,0.0,0.0,0.0,0.0,0.0,0.0,0.0,0.0,0.0,0.0,0.0,0.0,0.0,0.0,0.0,0.0,0.0,0.0,0.0,0.0,0.0,0.0,0.0,0.0,0.0,0.0,0.0,0.0,0.0,0.0,0.0,0.0,0.0,0.0,0.0,0.0,0.0,0.0,0.0,0.0,0.0,0.0,0.0,0.0,0.0,0.0,0.0,0.0,0.0,0.0,0.0,0.0,0.0,0.0,0.0,0.0,0.0,0.0,0.0,0.0,0.0,0.0,0.0,0.0,0.0,0.0,0.0,0.0,0.0,0.0,0.0,0.0,0.0,0.0,0.0,0.0,0.0,0.0,0.0,0.0,0.0,0.0,0.0,0.0,0.0,0.0,0.0,0.0,0.0,0.0,0.0,0.0,0.0,0.0,0.0,0.0,0.0,0.0,0.0,0.0,0.0,0.0,0.0,0.0,0.0,0.0,0.0,0.0,0.0,0.0,0.0,0.0,0.0,0.0,0.0,0.0,0.0,0.0,0.0,0.0,0.0,0.0,0.0,0.0,0.0,0.0,0.0,0.0,0.0,0.0,0.0,0.0,0.0,0.0,0.0,0.0,0.0,0.0,0.0,0.0,0.0,0.0,0.0,0.0,0.0,0.0,0.0,0.0,0.0,0.0,0.0,0.0,0.0,0.0,0.0,0.0,0.0,0.0,0.0,0.0,0.0,0.0,0.0,0.0,0.0,0.0,0.0,0.0,0.0,0.0,0.0,0.0,0.0,0.0,0.0,0.0,0.0,0.0,0.0,0.0,0.0,0.0,0.0,0.0,0.0,0.0,0.0,0.0,0.0,0.0,0.0,0.0,0.0,0.0,0.0,0.0,0.0,0.0,0.0,0.0,0.0,0.0,0.0,0.0,0.0,0.0,0.0,0.0,0.0,0.0,0.0,0.0,0.0,0.0,0.0,0.0,0.0,0.0,0.0,0.0,0.0,0.0,0.0,0.0,0.0,0.0,0.0,0.0,0.0,0.0,0.0,0.0,0.0,0.0,0.0,0.0,0.0,0.0,0.0,0.0,0.0,0.0,0.0,0.0,0.0,0.0,0.0,0.0,0.0,0.0,0.0,0.0,0.0,0.0,0.0,0.0,0.0,0.0,0.0,0.0,0.0,0.0,0.0,0.0,0.0,0.0,0.0,0.0,0.0,0.0,0.0,0.0,0.0,0.0,0.0,0.0,0.0,0.0,0.0,0.0,0.0,0.0,0.0,0.0,0.0,0.0,0.0,0.0,0.0,0.0,0.0,0.0,0.0,0.0,0.0,0.0,0.0,0.0,0.0,0.0,0.0,0.0,0.0,0.0,0.0,0.0,0.0,0.0,0.0,0.0,0.0,0.0,0.0,0.0,0.0,0.0,0.0,0.0,0.0,0.0,0.0,0.0,0.0,0.0,0.0,0.0,0.0,0.0,0.0,0.0,0.0,0.0,0.0,0.0,0.0,0.0,0.0,0.0,0.0,0.0,0.0,0.0,0.0,0.0,0.0,0.0,0.0,0.0,0.0,0.0,0.0,0.0,0.0,0.0,0.0,0.0,0.0,0.0,0.0,0.0,0.0,0.0,0.0,0.0,0.0,0.0,0.0,0.0,0.0,0.0,0.0,0.0,0.0,0.0,2.7305,2.6986,0.0,0.0,0.0,0.0,0.0,0.0,0.0,0.0,0.0,0.0,0.0,0.0,0.0,0.0,0.0,0.0,0.0,0.0,0.0,0.0,0.0,0.0,0.0,0.0,0.0,0.0,0.0,0.0,0.0,0.0,0.0,0.0,0.0,0.0,0.0,0.0,0.0,0.0,2.3101,2.3101,2.3101,2.3101,2.3101,2.3101,0.0,0.0,0.0,0.0,0.0,0.0,0.0,0.0,0.0,0.0,0.0,0.0,0.0,0.0,0.0,0.0,0.0,0.0,0.0,0.0,0.0,0.0,0.0,0.0,0.0,0.0,0.0,0.0,0.0,0.0,0.0,0.0,0.0,0.0,0.0,0.0,0.0,0.0,0.0,0.0,0.0,0.0,0.0,0.0,0.0,0.0,0.0,0.0,0.0,0.0,0.0,0.0,0.0,0.0,0.0,0.0,0.0,0.0,0.0,0.0,0.0,0.0,0.0,0.0,0.0,0.0,0.0,0.0,0.0,0.0,2.7812,2.7637,0.0,0.0,0.0,0.0,0.0,0.0,0.0,0.0,0.0,0.0,0.0,0.0,0.0,0.0,0.0,0.0,0.0,0.0,0.0,0.0,0.0,0.0,0.0,2.3101,2.3101,2.3101,2.3101,2.3101,0.0,0.0,0.0,0.0,0.0,0.0,0.0,2.3101,2.3101,2.3101,2.3101,2.3101,2.3101,2.3101,2.3101,2.3101,2.3101,0.0,0.0,0.0,0.0,0.0,0.0,0.0,0.0,0.0,0.0,0.0,0.0,0.0,0.0,0.0,0.0,0.0,0.0,0.0,0.0,0.0,0.0,0.0,0.0,0.0,0.0,0.0,0.0,0.0,0.0,0.0,0.0,0.0,0.0,0.0,0.0,0.0,0.0,0.0,0.0,0.0,0.0,0.0,0.0,0.0,0.0,0.0,0.0,0.0,0.0,0.0,0.0,0.0,0.0,0.0,0.0,0.0,0.0,0.0,0.0,0.0,0.0,0.0,2.78,2.7976,2.8301,2.8301,2.8301,2.8301,2.8379,2.8359,2.8301,2.8301,0.0,0.0,0.0,0.0,0.0,0.0,0.0,0.0,0.0,0.0,0.0,0.0,0.0,0.0,0.0,0.0,0.0,0.0,0.0,0.0,0.0,2.3101,2.3101,2.3101,2.3101,2.3101,2.3101,0.0,0.0,0.0,0.0,0.0,2.3101,2.3101,2.3101,2.3101,2.3101,2.3101,2.3101,2.3101,2.3101,2.3101,2.3101,2.3101,2.3101,0.0,0.0,0.0,0.0,0.0,0.0,0.0,0.0,0.0,0.0,0.0,0.0,0.0,0.0,0.0,0.0,0.0,0.0,0.0,0.0,0.0,0.0,0.0,0.0,0.0,0.0,0.0,0.0,0.0,0.0,0.0,0.0,0.0,0.0,0.0,0.0,0.0,0.0,0.0,0.0,0.0,2.6445,2.6797,0.0,0.0,0.0,0.0,0.0,0.0,0.0,0.0,0.0,0.0,0.0,0.0,0.0,2.778,2.8125,2.8125,2.8144,2.8203,2.8203,2.8242,2.8301,2.8301,2.8301,2.832,2.8672,0.0,2.8301,2.8301,0.0,0.0,0.0,0.0,0.0,0.0,0.0,0.0,0.0,0.0,0.0,0.0,0.0,0.0,0.0,0.0,0.0,0.0,0.0,0.0,0.0,2.3101,2.3101,2.3101,2.3101,2.3101,2.3101,2.3101,0.0,0.0,0.0,2.3101,2.3101,2.3101,2.3101,2.3101,2.3101,2.3101,2.3101,2.3101,2.3101,2.3101,2.3101,2.3101,2.3101,2.3101,0.0,0.0,0.0,0.0,0.0,0.0,0.0,0.0,0.0,0.0,0.0,0.0,0.0,0.0,0.0,0.0,0.0,0.0,0.0,0.0,0.0,0.0,0.0,0.0,0.0,0.0,0.0,0.0,0.0,0.0,0.0,0.0,0.0,0.0,0.0,0.0,0.0,0.0,0.0,2.6621,2.6816,2.6992,2.6986,2.6986,0.0,0.0,0.0,0.0,0.0,0.0,0.0,0.0,0.0,2.8034,2.8054,2.8132,2.8301,2.8301,2.8301,2.8301,2.8535,2.8652,2.8652,2.8906,2.9031,2.9051,2.9199,2.918,2.9031,2.9031,2.9031,2.9031,0.0,0.0,0.0,0.0,2.9277,2.9316,0.0,0.0,0.0,0.0,0.0,0.0,0.0,0.0,0.0,0.0,0.0,0.0,2.3101,2.3101,2.3101,2.3101,2.3101,2.3101,2.3101,2.3101,2.3101,2.3101,2.3101,2.3101,2.3101,2.3101,2.3101,2.3101,2.3101,2.3101,2.3101,2.322,2.3279,2.3279,2.3396,2.3318,2.3101,2.3101,2.3101,2.3101,0.0,0.0,0.0,0.0,0.0,0.0,0.0,0.0,0.0,0.0,0.0,0.0,0.0,0.0,0.0,0.0,0.0,0.0,0.0,0.0,0.0,0.0,0.0,0.0,0.0,0.0,0.0,0.0,0.0,0.0,0.0,0.0,0.0,0.0,0.0,0.0,0.0,2.7187,2.7226,2.7324,2.7344,2.7344,0.0,0.0,0.0,0.0,0.0,0.0,2.8301,2.8398,2.8457,2.8457,2.8555,2.8613,2.8613,2.8613,2.8613,2.866,2.8945,2.9082,2.9101,2.9442,2.9598,2.9598,2.9715,2.9755,2.9755,2.9637,2.9598,2.9598,2.9598,2.9598,2.9618,2.9715,2.9755,2.9774,0.0,0.0,0.0,0.0,0.0,0.0,0.0,0.0,0.0,0.0,0.0,2.3101,2.3101,2.3101,2.3101,2.3101,2.3101,2.3101,2.3101,2.3101,2.3101,2.3101,2.3101,2.3101,2.3101,2.3101,2.3101,2.3101,2.3101,2.3101,2.3101,2.3574,2.375,2.3769,2.4157,2.3884,2.3101,2.3101,2.3101,2.3101,2.3101,0.0,0.0,0.0,0.0,0.0,0.0,0.0,0.0,0.0,0.0,0.0,0.0,0.0,0.0,0.0,0.0,0.0,0.0,0.0,0.0,0.0,0.0,0.0,0.0,0.0,0.0,0.0,0.0,0.0,0.0,0.0,0.0,0.0,0.0,0.0,0.0,0.0,0.0,2.8184,2.8223,0.0,0.0,0.0,0.0,2.8262,2.8281,2.8301,2.8301,2.8672,2.8859,2.8859,2.9297,2.954,2.954,2.954,2.954,2.954,2.9559,2.9559,2.9579,2.9579,2.9598,2.9618,3.0,3.0156,3.0137,2.9755,2.9598,2.9598,2.9598,2.9598,2.9637,3.0019,3.0156,3.0234,0.0,0.0,0.0,0.0,0.0,0.0,0.0,0.0,2.3101,2.3101,2.3101,2.3101,2.3101,2.3101,2.3101,2.3101,2.3101,2.3101,2.3101,2.3101,2.3101,2.3101,2.3101,2.324,2.3532,2.3806,2.3942,2.3942,2.3942,2.3942,2.3942,2.4121,2.4199,2.4199,2.4355,2.4235,2.3942,2.3942,2.3942,2.3942,2.3942,2.3942,0.0,0.0,0.0,0.0,0.0,0.0,0.0,0.0,0.0,0.0,0.0,0.0,0.0,0.0,0.0,0.0,0.0,0.0,0.0,0.0,0.0,0.0,0.0,0.0,0.0,0.0,0.0,0.0,0.0,0.0,0.0,0.0,0.0,0.0,0.0,0.0,0.0,2.8281,2.8301,0.0,2.8301,2.8535,2.8691,2.8691,2.8965,2.9149,2.9149,2.9258,2.9336,2.9336,2.952,2.9598,2.9598,2.9598,2.9598,2.9598,2.9872,3.0009,2.998,3.0302,3.0458,3.0458,3.0586,3.0644,3.0625,3.0517,3.0458,3.0458,3.0458,3.0458,3.043,3.0586,3.0644,3.0664,0.0,0.0,0.0,0.0,0.0,0.0,0.0,0.0,2.3101,2.3101,2.3101,2.3101,2.3101,2.3101,2.3101,2.3101,2.3101,2.3101,2.3101,2.3259,2.3337,2.3337,2.3474,2.3688,2.4004,2.4254,2.4391,2.4391,2.4391,2.4391,2.4391,2.457,2.4629,2.4648,2.4762,2.484,2.484,2.484,2.4664,2.4391,2.4391,2.4391,2.4391,0.0,0.0,0.0,0.0,0.0,0.0,0.0,0.0,0.0,0.0,0.0,0.0,0.0,0.0,0.0,0.0,0.0,0.0,0.0,0.0,0.0,0.0,0.0,0.0,0.0,0.0,0.0,0.0,0.0,0.0,0.0,0.0,0.0,0.0,2.8301,2.834,2.8496,2.8496,2.8555,2.8711,2.8965,2.9141,2.9141,2.9422,2.9598,2.9598,2.9735,2.9813,2.9813,2.997,3.0048,3.0048,3.0048,3.0048,3.0048,3.0293,3.043,3.0449,3.0762,3.0898,3.0898,3.0898,3.0976,3.1094,3.1094,3.1191,3.1319,3.0996,3.0898,3.0898,3.0898,3.0898,3.0898,0.0,0.0,0.0,0.0,0.0,0.0,0.0,2.3101,2.3101,2.3101,2.3101,2.3101,2.3101,2.3101,2.3101,2.3101,2.3101,2.3101,2.312,2.3555,2.3811,2.3831,2.4219,2.441,2.441,2.443,2.443,2.443,2.443,2.443,2.4449,2.4906,2.5121,2.5141,2.5523,2.5693,2.5693,2.5693,2.521,2.443,2.443,2.443,2.443,0.0,0.0,0.0,0.0,0.0,0.0,0.0,0.0,0.0,0.0,0.0,0.0,0.0,0.0,0.0,0.0,0.0,0.0,0.0,0.0,0.0,0.0,0.0,0.0,0.0,0.0,0.0,0.0,0.0,0.0,0.0,0.0,0.0,2.832,2.832,2.8476,2.8859,2.8918,2.9101,2.9559,2.9618,2.9618,2.9618,2.9637,2.9637,2.9637,3.0,3.0234,3.0234,3.0684,3.0937,3.0937,3.0937,3.0937,3.0937,3.0937,3.0937,3.0937,3.0937,3.0937,3.0937,3.0937,3.1152,3.1513,3.1513,3.1797,3.212,3.125,3.0937,3.0937,3.0937,3.0937,3.0937,0.0,0.0,0.0,0.0,0.0,0.0,0.0,2.3101,2.3101,2.3101,2.3101,2.3101,2.3101,2.3101,2.3101,2.3101,2.3101,2.3237,2.3594,2.373,2.3926,2.4238,2.4672,2.4906,2.4906,2.5191,2.5347,2.5347,2.5347,2.5347,2.5347,2.5464,2.5523,2.5542,2.5659,2.5693,2.5693,2.5693,2.5557,2.5347,2.5347,2.5347,2.5347,0.0,0.0,0.0,0.0,0.0,0.0,0.0,0.0,0.0,0.0,0.0,0.0,0.0,0.0,0.0,0.0,0.0,0.0,0.0,0.0,0.0,0.0,0.0,0.0,0.0,0.0,0.0,0.0,0.0,0.0,0.0,2.875,2.875,2.875,2.875,2.8906,2.9336,2.9422,2.9461,2.9579,2.9872,3.0019,3.0019,3.0332,3.0527,3.0527,3.0918,3.1152,3.1152,3.1582,3.1846,3.1846,3.1846,3.1846,3.1846,3.1846,3.1846,3.1846,3.1846,3.1846,3.1846,3.1846,3.1905,3.2022,3.2022,3.2101,3.2179,3.1944,3.1846,3.1846,3.1846,3.1846,3.1846,0.0,0.0,0.0,0.0,0.0,0.0,0.0,2.3101,2.3101,2.3101,2.3101,2.3101,2.3101,2.3101,2.3101,2.3101,2.3279,2.3516,2.3769,2.4144,2.4512,2.4937,2.5215,2.5352,2.5352,2.5581,2.5693,2.5693,2.5693,2.5693,2.5693,2.5693,2.5693,2.5693,2.5693,2.5693,2.5693,2.5693,2.5693,2.5693,2.5693,2.5693,2.5693,2.5693,2.5693,2.5693,2.5693,2.5693,2.5693,2.5693,0.0,0.0,0.0,0.0,0.0,0.0,0.0,0.0,0.0,0.0,0.0,0.0,0.0,0.0,0.0,0.0,0.0,0.0,0.0,0.0,0.0,0.0,0.0,0.0,2.9199,2.9258,2.9434,2.9297,2.9355,2.9813,2.9852,2.9931,3.0126,3.0508,3.0742,3.0742,3.1172,3.1455,3.1455,3.166,3.1797,3.1797,3.2061,3.2198,3.2198,3.2198,3.2198,3.2198,3.2198,3.2198,3.2198,3.2198,3.2198,3.2198,3.2198,3.2296,3.2452,3.2452,3.257,3.2656,0.0,0.0,0.0,0.0,3.2198,3.2198,0.0,0.0,0.0,0.0,0.0,0.0,0.0,2.3101,2.3101,2.3101,2.3101,2.3101,2.3101,2.3101,2.312,2.3159,2.3574,2.3828,2.3926,2.4711,2.5312,2.5674,2.5693,2.5693,2.5693,2.5757,2.5776,2.5776,2.581,2.5854,2.5854,2.5854,2.5854,2.5854,2.5854,2.5854,2.5854,2.5854,2.5835,2.5776,2.5776,2.5757,2.5693,2.5693,2.5693,2.5693,2.5693,2.5693,2.5693,2.5693,0.0,0.0,0.0,0.0,0.0,0.0,0.0,0.0,0.0,0.0,0.0,0.0,0.0,0.0,0.0,0.0,0.0,0.0,0.0,0.0,0.0,0.0,0.0,0.0,2.9676,2.9833,3.0273,3.0019,2.995,3.0293,3.0351,3.0527,3.0996,3.1367,3.1582,3.1582,3.1953,3.2198,3.2198,3.2237,0.0,0.0,0.0,3.2335,3.2335,3.2335,3.2335,3.2335,3.2335,3.2335,3.2335,3.2335,3.2335,3.2335,3.2335,3.255,3.2871,3.2871,3.3105,3.3386,3.2617,3.2335,3.2335,3.2335,3.2335,3.2335,0.0,0.0,0.0,0.0,0.0,0.0,0.0,2.3101,2.3101,2.3101,2.3101,2.3101,2.3101,2.3101,2.3259,2.3633,2.375,2.4105,2.4809,2.5312,2.562,2.5718,2.5693,2.5693,2.5693,2.6074,2.6269,2.6269,2.6602,2.6732,2.6732,2.6732,2.6732,2.6732,2.6732,2.6732,2.6732,2.6732,2.6562,2.6269,2.6269,2.6055,2.5693,2.5693,2.5693,2.5693,2.5693,2.5693,2.5693,2.5693,2.5952,2.6269,2.6269,2.6543,0.0,0.0,0.0,0.0,0.0,0.0,0.0,0.0,0.0,0.0,0.0,0.0,0.0,0.0,0.0,0.0,0.0,0.0,0.0,3.0019,3.0078,3.0351,3.1152,3.1191,3.1172,3.125,3.1269,3.1426,3.1905,3.2022,3.2081,3.2081,3.2159,3.2198,3.2198,3.2511,3.2676,3.2676,3.3008,3.3184,3.3184,3.3184,3.3184,3.3184,3.3184,0.0,3.3184,3.3184,3.3184,3.3184,3.3184,3.3191,3.3269,3.3269,3.3555,3.3887,3.3379,3.3184,3.3184,3.3184,3.3184,3.3184,0.0,0.0,0.0,0.0,0.0,0.0,0.0,2.3101,2.3101,2.3101,2.3101,2.3201,2.3415,2.3435,2.3633,2.4062,2.432,2.473,2.5371,2.5581,2.5693,2.5693,2.5693,2.5815,2.6055,2.6269,2.6484,2.6699,2.6914,2.6986,2.6986,2.6986,2.6986,2.6986,2.6986,2.6986,2.6986,2.6986,2.6869,2.6699,2.6699,2.6562,2.6303,2.5874,2.5693,2.5693,2.5693,2.5693,2.5757,2.5971,2.6211,2.6451,2.6641,2.6992,2.7344,0.0,0.0,0.0,0.0,0.0,0.0,0.0,0.0,0.0,0.0,0.0,0.0,0.0,0.0,2.9629,2.9872,0.0,3.0371,3.0781,3.0859,3.1094,3.1758,3.1836,3.1836,3.1836,3.1836,3.1934,3.2179,3.2394,3.2511,3.2511,3.2676,3.2891,3.3137,3.3352,3.3535,3.375,3.3945,3.4062,3.4062,3.4062,3.4062,3.4062,3.4062,3.4062,3.4062,3.4062,3.4062,3.4062,3.4062,3.4062,3.4062,3.4062,3.4199,3.4388,3.4141,3.4062,3.4062,3.4062,3.4062,3.4062,0.0,0.0,0.0,0.0,0.0,0.0,0.0,2.3101,2.3101,2.3101,2.3181,2.3376,2.375,2.3867,2.4082,2.4512,2.4941,2.5352,2.5698,2.5693,2.5693,2.5693,2.5796,2.601,2.6387,2.6568,2.6797,2.7148,2.7201,2.724,2.724,2.724,2.724,2.724,2.724,2.724,2.724,2.724,2.7207,2.7148,2.7148,2.709,2.6908,2.6225,2.5913,2.5835,2.5713,2.5776,2.5893,2.6269,2.6504,2.6724,2.7031,2.7441,2.7819,2.7819,2.8054,0.0,0.0,0.0,0.0,0.0,0.0,0.0,0.0,2.9316,2.9618,2.9696,2.9961,3.0234,3.0312,3.0703,3.1133,3.1465,3.1582,3.1797,3.2257,3.2316,3.2355,3.2433,3.2374,3.2355,3.2433,3.2824,3.3047,3.3047,3.3437,3.3828,3.4212,3.4231,3.4388,3.4687,3.4707,3.4707,3.4707,3.4707,3.4707,3.4707,3.4707,3.4707,3.4707,3.4707,3.4707,3.4707,3.4707,3.4707,3.4707,3.4805,3.4824,3.4844,3.4922,3.4961,3.4941,3.4766,3.4707,3.4707,0.0,0.0,0.0,0.0,0.0,0.0,0.0,0.0,2.3101,2.3101,2.3454,2.373,2.3789,2.4121,2.4512,2.4984,2.541,2.5659,2.5718,2.5693,2.5693,2.5693,2.6113,2.6348,2.6387,2.7154,2.7565,2.7624,2.7995,2.8144,2.8144,2.8144,2.8144,2.8144,2.8144,2.8144,2.8144,2.8144,2.7956,2.7624,2.7624,2.7363,2.6986,2.6889,2.6641,2.6269,2.5854,2.5971,2.6328,2.6367,2.692,2.7565,2.7604,2.7897,2.8223,2.8223,2.8262,2.8301,2.8301,2.8301,2.8379,2.875,2.8859,2.9023,0.0,2.9559,2.9696,3.0059,3.0156,3.0332,3.0742,3.1152,3.1465,3.1474,3.1836,3.2276,3.2656,3.2734,3.2871,3.3211,3.2949,3.2871,3.3242,3.3672,3.3958,3.3958,3.4316,3.457,3.4629,3.4629,3.4648,3.4707,3.4707,3.4707,3.4707,3.4707,3.4707,3.4707,3.4707,3.4707,3.4707,3.4707,3.4707,3.4707,3.4707,3.4707,3.4726,3.5137,3.5312,3.5351,3.5723,3.5845,3.5747,3.5,3.4707,3.4707,0.0,0.0,0.0,0.0,0.0,0.0,0.0,0.0,0.0,2.3101,2.3516,2.3887,2.4121,2.4742,2.523,2.5449,2.5601,2.5693,2.5693,2.5693,2.5693,2.5693,2.6152,2.6504,2.6738,2.737,2.7819,2.8054,2.8203,2.8301,2.8301,2.8301,2.8301,2.8301,2.8301,2.8301,2.8301,2.8301,2.8184,2.8054,2.8054,2.793,2.7734,2.7506,2.7311,2.7096,2.6641,2.6576,0.0,2.7051,2.7389,2.7741,2.7976,2.8144,2.8301,2.8301,2.8301,2.834,2.8594,2.8652,2.8769,2.9199,2.9473,2.9707,2.9883,3.0165,3.0391,3.0566,3.0801,3.1016,3.1211,3.1601,3.1973,3.2226,3.2422,3.2676,3.3105,3.3379,3.3625,3.3769,3.3867,3.3867,3.3809,3.418,3.4434,3.4434,3.4609,3.4824,3.5078,3.5098,3.5215,3.5449,3.5469,3.5469,3.5469,3.5469,3.5469,3.5469,3.5469,3.5469,3.5469,3.5469,3.5469,3.5469,3.5469,3.5469,3.5488,3.5684,3.5762,3.5781,3.5923,3.5982,3.5976,3.5605,3.5469,3.5469,0.0,0.0,0.0,0.0,0.0,0.0,0.0,0.0,0.0,0.0,2.3691,2.418,2.4703,2.5328,2.5693,2.5693,2.5693,2.5693,2.5693,2.5693,2.5693,2.5693,2.6152,2.6582,2.6986,2.7467,2.7897,2.8301,2.8301,2.8301,2.8301,2.8301,2.8301,2.8301,2.8301,2.8301,2.8301,2.8301,2.8301,2.8301,2.8301,2.8301,2.8262,2.7976,2.7858,2.78,2.7207,2.709,2.7246,2.7585,2.778,2.7917,2.823,2.8301,2.8301,2.8301,2.8379,2.8555,2.8984,2.9101,2.9199,2.9657,2.9961,3.0234,3.0351,3.0644,3.0918,3.1035,3.1309,3.1562,3.168,3.2051,3.2472,3.2734,3.2891,3.3105,3.3535,3.3899,3.4153,3.4271,3.4629,3.4766,3.4505,3.4707,3.4883,3.4883,3.5,3.5215,3.5547,3.5566,3.5703,3.5982,3.5982,3.5982,3.5982,3.5982,3.5982,3.5982,3.5982,3.5982,3.5982,3.5982,3.5982,3.5982,3.5982,3.5982,3.5982,3.5982,3.6094,3.6191,3.6191,3.6269,3.6367,3.6367,3.623,3.5982,0.0,0.0,0.0,0.0,0.0,0.0,0.0,0.0,0.0,0.0,0.0,0.0,0.0,2.5674,2.5693,2.5693,2.5693,2.5693,2.5693,2.5693,2.5693,2.5693,2.6152,2.6582,2.6986,2.7467,2.7897,2.8301,2.8301,2.8301,2.8301,2.8301,2.8301,2.8301,2.8301,2.8301,2.8301,2.8301,2.8301,2.8301,2.8301,2.8301,2.8301,2.8281,2.8281,2.8164,2.7324,2.7285,2.7682,2.7682,2.7956,2.8281,2.8281,2.8301,2.8301,2.8301,2.8574,2.8976,2.9461,2.9579,2.9676,3.0078,3.0176,3.0312,3.0762,3.0879,3.0996,3.1406,3.1474,3.1641,3.2101,3.2531,3.2773,3.2793,3.3144,3.3555,3.4016,3.4095,3.4219,3.4629,3.5098,3.5371,3.5351,3.5371,3.5371,3.5371,3.5742,3.5996,3.5962,3.5962,3.5982,3.5982,3.5982,3.5982,3.5982,3.5982,3.5982,3.5982,3.5982,3.5982,3.5982,3.5982,3.5982,3.5982,3.5982,3.5982,3.5982,3.5982,3.6269,3.6695,3.6695,3.6929,3.7266,3.7266,3.6738,3.5982,0.0,0.0,0.0,0.0,0.0,0.0,0.0,0.0,0.0,0.0,0.0,0.0,0.0,0.0,0.0,0.0,2.5693,2.5693,2.5693,2.5693,2.5693,2.5693,2.6152,2.6465,2.6602,2.733,2.7761,2.7897,2.8191,2.8301,2.8301,2.8301,2.8301,2.8301,2.8301,2.8301,2.8301,2.8301,2.8301,2.8301,2.8301,2.8301,2.8301,2.8301,2.8301,2.8262,0.0,2.7949,2.8112,2.8112,2.821,2.8301,2.8301,2.8301,2.834,2.8633,2.9004,2.9481,2.9863,2.998,3.0098,3.0547,3.0664,3.0781,3.1211,3.1309,3.1426,3.1855,3.2168,3.2402,3.2559,3.293,3.3203,3.3203,3.3574,3.3906,3.4095,3.4603,3.5,3.5137,3.5547,3.5801,3.5801,3.5801,3.5801,3.5801,3.5903,3.5982,3.5982,3.5982,3.5982,3.5982,3.5982,3.5982,3.5982,3.5982,3.5982,3.5982,3.5982,3.5982,3.6001,3.6328,3.6445,3.6465,3.6758,3.6875,3.6875,3.6875,3.6953,3.709,3.709,3.7168,3.7305,3.7305,3.7109,3.6875,0.0,0.0,0.0,0.0,0.0,0.0,0.0,0.0,0.0,0.0,0.0,0.0,0.0,0.0,0.0,0.0,0.0,2.5693,2.5693,2.5693,2.5693,2.5693,2.5971,2.623,2.6412,2.6959,2.7311,2.7467,2.7695,2.791,2.8093,2.8093,2.8144,2.8301,2.8301,2.8301,2.8301,2.8301,2.8301,2.8301,2.8301,2.8301,2.8301,2.8301,2.8301,0.0,2.8301,2.8301,2.8301,2.8301,2.8301,2.8301,2.8301,2.8398,2.8633,2.9199,2.957,2.9911,3.0332,3.0449,3.0508,3.082,3.0996,3.1191,3.1416,3.1641,3.1875,3.2335,3.2598,3.2832,3.2988,3.3242,3.3445,3.3633,3.3887,3.4212,3.4525,3.5039,3.5449,3.5605,3.5859,3.5982,3.5982,3.5982,3.5982,3.5982,3.5982,3.5982,3.5982,3.5982,3.5982,3.5982,3.5982,3.5982,3.5982,3.5982,3.6094,3.625,3.6406,3.6484,3.6484,3.6777,3.6894,3.6949,3.7187,3.7305,3.7305,3.7305,3.7383,3.7519,3.7519,3.7617,3.7754,3.7754,3.7754,3.7715,0.0,0.0,0.0,0.0,0.0,0.0,0.0,0.0,0.0,0.0,0.0,0.0,0.0,0.0,0.0,0.0,0.0,0.0,2.5693,2.5693,2.5693,2.5693,2.5693,2.5913,2.6348,2.6412,2.6582,2.6973,2.6986,2.7226,2.7663,2.7663,2.7878,2.8223,2.8223,2.8223,2.8223,2.8262,2.8262,2.8262,2.8281,2.8301,2.8301,2.8301,2.8301,2.8301,2.8301,2.8301,2.8301,2.8301,2.8301,2.832,2.832,2.8633,2.9113,2.9961,3.0215,3.0332,3.0762,3.0898,3.0898,3.0918,3.123,3.1494,3.1552,3.1894,3.2355,3.2734,3.2832,3.2949,3.3308,3.3386,3.3555,3.4036,3.4114,3.4446,3.5273,3.541,3.5566,3.5942,3.5982,3.5982,3.5982,3.5982,3.5982,3.5982,3.5982,3.5982,3.5982,3.5982,3.5982,3.5982,3.5982,3.6001,3.6055,3.6074,3.6289,3.6734,3.7109,3.7305,3.7305,3.7324,3.7324,3.7324,3.7363,3.7363,3.7363,3.7363,3.7598,3.7933,3.7933,3.8203,3.8611,3.8611,3.8611,3.8493,0.0,0.0,0.0,0.0,0.0,0.0,0.0,0.0,0.0,0.0,0.0,0.0,0.0,0.0,0.0,0.0,0.0,0.0,2.5693,2.5693,2.5693,2.5693,2.5693,2.5776,2.5874,2.623,2.6445,2.6543,2.6855,2.7045,2.7187,2.7187,2.7246,2.7344,2.7344,2.7344,2.7363,2.7695,2.7858,2.7878,2.8164,2.8301,2.8301,2.8301,2.8301,2.8301,2.8301,2.8301,2.8301,2.8301,2.8496,2.8769,2.8769,2.9277,2.9902,3.0137,3.0449,3.0742,3.0859,3.0898,3.0957,3.1269,3.1416,3.165,3.2324,3.2559,3.2754,3.3184,3.3262,3.3269,3.3367,3.3386,3.3555,3.4036,3.4336,3.4746,3.5312,3.5664,3.5898,3.5982,3.5982,3.5982,3.5982,3.5982,3.5982,3.5982,3.5982,3.5982,3.5982,3.5982,3.5982,3.5982,3.5982,3.6172,3.6538,3.6816,3.7031,3.7148,3.7246,3.7305,3.7305,3.7617,3.7773,3.7773,3.8105,3.8278,3.8278,3.8278,3.832,3.8418,3.8418,3.8476,3.8611,3.8611,3.8611,3.8591,0.0,0.0,0.0,0.0,0.0,0.0,0.0,0.0,0.0,0.0,0.0,0.0,0.0,0.0,0.0,0.0,0.0,0.0,0.0,2.5693,2.5693,2.5693,2.5693,2.5693,2.5693,2.5952,2.6069,2.6069,2.6323,2.6518,2.6738,2.6738,2.6836,2.6986,2.6986,2.6986,2.7025,2.7506,2.7702,0.0,0.0,2.8301,2.8301,2.8301,2.8301,2.8301,2.8301,2.8301,2.832,2.8496,2.8703,2.8957,2.9355,2.9805,3.0234,3.0449,3.0684,3.0898,3.0898,3.1035,3.123,3.1435,3.1797,3.2207,3.2676,3.293,3.3144,3.3347,3.3386,3.3386,3.3386,3.3386,3.3633,3.4238,3.4551,3.4922,3.5566,3.5879,3.5982,3.5982,3.5982,3.6094,3.6289,3.6309,3.6387,3.6562,3.623,3.6094,3.6289,3.6309,3.6387,3.6582,3.6582,3.6699,3.6953,3.7363,3.7578,3.7578,3.7773,3.7851,3.7871,3.8105,3.8203,3.8223,3.8513,3.8611,3.8611,3.8611,3.8611,3.8611,3.8611,3.8611,3.8611,3.8611,3.8611,3.8611,0.0,0.0,0.0,0.0,0.0,0.0,0.0,0.0,0.0,0.0,0.0,0.0,0.0,0.0,0.0,0.0,0.0,0.0,0.0,0.0,2.5693,2.5693,2.5693,2.5693,2.5693,2.5693,2.5693,2.5693,2.5693,2.5913,2.6309,2.6309,2.6504,2.683,2.683,2.685,2.6953,2.7428,2.7643,2.7721,2.8151,2.8301,2.8301,0.0,2.8301,2.8301,2.8301,2.8301,2.8359,2.8848,2.8976,2.9113,2.9941,3.0234,3.0371,3.0781,3.0898,3.0898,3.0957,3.123,3.1513,3.163,3.2246,3.2812,3.2871,3.3164,3.3386,3.3386,3.3386,3.3386,3.3386,3.3386,3.3711,3.4551,3.4707,3.5,3.5898,3.5982,3.5982,3.5982,3.604,3.625,3.6675,3.6753,3.6894,3.7266,3.6601,3.6348,3.6773,3.6792,3.6949,3.7285,3.7344,3.7383,3.7383,3.7793,3.7972,3.8008,3.8398,3.8611,3.8611,3.8611,3.8611,3.8611,3.8611,3.8611,3.8611,3.8611,3.8611,3.8611,3.8611,3.8611,3.8611,3.8611,3.8611,3.8611,0.0,0.0,0.0,0.0,0.0,0.0,0.0,0.0,0.0,0.0,2.541,2.5693,0.0,0.0,0.0,0.0,0.0,0.0,0.0,0.0,0.0,2.5693,2.5693,2.5693,2.5693,2.5693,2.5693,2.5693,2.5693,2.5732,2.5835,2.5835,2.5874,2.5932,2.5932,2.6128,2.6523,2.6953,2.737,2.7721,2.8151,2.8301,2.8301,2.8301,0.0,0.0,2.8301,2.8301,2.8418,2.9227,2.9481,2.9579,3.0039,3.0469,3.0781,3.0859,3.0898,3.0957,3.1309,3.1465,3.165,3.2402,3.2676,3.2891,3.3242,3.3347,3.3386,3.3386,3.3386,3.3386,3.3386,3.3386,3.3711,3.4551,3.4707,3.5,3.5898,3.5982,3.5982,3.5982,3.6348,3.6616,3.6695,3.6992,3.7226,3.7285,3.7168,3.7109,3.7187,3.7187,3.7226,3.7305,3.7637,3.7812,3.7812,3.8242,3.8457,3.8457,3.8571,3.8611,3.8611,3.8611,3.8611,3.8611,3.8611,3.8611,3.8611,3.8611,3.8611,3.8611,3.8611,3.8611,3.8611,3.8611,3.8611,3.8611,0.0,0.0,0.0,0.0,0.0,0.0,0.0,2.4277,2.4645,2.5332,2.5581,2.5693,2.5693,2.5693,2.5693,0.0,0.0,0.0,0.0,0.0,0.0,0.0,2.5693,2.5693,2.5693,2.5693,2.5693,2.5693,0.0,2.5693,2.5693,2.5693,2.5693,2.5693,2.5952,2.6191,2.6426,2.709,2.7506,2.7721,2.8151,2.8301,2.8301,0.0,0.0,0.0,2.8301,2.8301,2.8418,2.9305,2.9598,2.9715,3.0351,3.0703,3.0898,3.0898,3.0898,3.0976,3.1406,3.168,3.2012,3.2637,3.2969,3.3184,3.3347,3.3386,3.3386,3.3386,3.3386,3.3386,3.3386,3.3386,3.3711,3.4551,3.4707,3.5,3.5898,3.5982,3.5982,3.5982,3.6406,3.6792,3.6973,3.7383,3.7715,3.7949,3.8005,3.7871,3.7637,3.7832,3.8005,3.8005,3.8164,3.8262,3.8262,3.8513,3.8611,3.8611,3.8611,3.8611,3.8611,3.8611,3.8611,3.8611,3.8611,3.8611,3.8611,3.8611,3.8611,3.8611,3.8611,3.8611,3.8611,3.8611,3.8611,3.8611,0.0,0.0,0.0,0.0,0.0,0.0,0.0,2.4391,2.4703,2.5601,2.5693,2.5693,2.5693,2.5693,2.5693,0.0,0.0,0.0,0.0,0.0,0.0,0.0,0.0,0.0,2.5693,0.0,0.0,2.5693,2.5693,0.0,0.0,0.0,0.0,0.0,2.6191,2.6445,2.6562,2.737,2.7741,0.0,0.0,2.8301,0.0,0.0,0.0,0.0,0.0,2.8301,2.8418,2.9305,2.9598,2.9755,3.0634,3.0898,3.0898,3.0898,3.0898,3.0976,3.1406,3.1836,3.2296,3.2695,3.3105,3.3386,3.3386,3.3386,3.3386,3.3386,3.3386,3.3386,3.3386,3.3386,3.3711,3.4551,3.4707,3.5,3.5898,3.5982,3.5982,3.5982,3.6484,3.6934,3.7266,3.7754,3.8203,3.8591,3.8611,3.8418,3.8086,3.8398,3.8611,3.8611,3.8611,3.8611,3.8611,3.8611,3.8611,3.8611,3.8611,3.8611,3.8611,3.8611,3.8611,3.8611,3.8611,3.8611,3.8611,3.8611,3.8611,3.8611,3.8611,3.8611,3.8611,3.8611,3.8611,3.8611,0.0,0.0,0.0,0.0,0.0,0.0,0.0,2.4391,2.4703,2.5601,2.5693,2.5693,2.5693,2.5693,2.5693,0.0,0.0,0.0,0.0,0.0,0.0,0.0,0.0,0.0,0.0,0.0,0.0,2.5693,2.5693,0.0,0.0,0.0,0.0,0.0,0.0,2.6602,2.6992,2.7487,0.0,0.0,0.0,0.0,0.0,0.0,0.0,0.0,0.0,2.8301,2.8418,2.9305,2.9598,2.9755,3.0634,3.0898,3.0898,3.0898,3.0898,3.0976,3.1406,3.1836,3.2296,3.2695,3.3105,3.3386,3.3386,3.3386,3.3386,3.3386,3.3386,3.3386,3.3386,3.3386,3.3711,3.4551,3.4707,3.5,3.5898,3.5982,3.5982,3.5982,3.6738,3.7266,3.7285,3.8027,3.8535,3.8611,3.8611,3.8591,3.8552,3.8591,3.8611,3.8611,3.8611,3.8611,3.8611,3.8611,3.8611,3.8611,3.8611,3.8611,3.8611,3.8611,3.8611,3.8611,3.8611,3.8611,3.8611,3.8611,3.8611,3.8611,3.8611,3.8611,3.8611,3.8611,3.8611,3.8611,0.0,0.0,0.0,0.0,0.0,0.0,2.4293,2.4648,2.5039,2.5615,2.5693,2.5693,2.5693,2.5693,2.5693,2.5693,0.0,0.0,0.0,0.0,0.0,0.0,0.0,0.0,0.0,0.0,2.5693,2.5693,2.5693,0.0,0.0,0.0,0.0,0.0,0.0,2.6855,2.707,2.7754,0.0,0.0,0.0,0.0,0.0,0.0,0.0,0.0,0.0,0.0,2.8418,2.9305,2.9598,2.9755,3.0634,3.0898,3.0898,3.0898,3.0898,3.0976,3.1406,3.1641,3.1875,3.2335,3.257,3.2734,3.2988,3.3047,3.3105,3.3347,3.3386,3.3386,3.3386,3.3386,3.3613,3.4219,3.4531,3.4922,3.5547,3.5859,3.5982,3.5982,3.6777,3.7305,3.7305,3.8102,3.8611,3.8611,3.8611,3.8611,3.8611,3.8611,3.8611,3.8611,3.8611,3.8611,3.8611,3.8611,3.8611,3.8611,3.8611,3.8611,3.8611,3.8611,3.8611,3.8611,3.8611,3.8611,3.8611,3.8611,3.8611,3.8611,3.8611,3.8611,3.8611,3.8611,3.8611,3.8611,0.0,0.0,0.0,0.0,0.0,2.3926,2.4332,2.4785,2.5234,2.5659,2.5693,2.5693,2.5693,2.5693,2.5693,2.5693,2.5693,0.0,0.0,0.0,0.0,0.0,0.0,0.0,0.0,0.0,2.5693,2.5693,2.5693,2.5693,0.0,0.0,2.5693,2.5757,0.0,0.0,0.0,0.0,0.0,0.0,0.0,0.0,0.0,0.0,0.0,0.0,0.0,0.0,0.0,0.0,0.0,2.9755,3.0634,3.0898,3.0898,3.0898,3.0898,3.0957,3.125,3.1426,3.1582,3.1894,3.2101,3.2276,3.257,3.2695,3.2871,3.3184,3.3308,3.3386,3.3386,3.3386,3.3555,3.4036,3.4434,3.4863,3.5332,3.5762,3.5982,3.5982,3.6777,3.7305,3.7305,3.8102,3.8611,3.8611,3.8611,3.8611,3.8611,3.8611,3.8611,3.8611,3.8611,3.8611,3.8611,3.8611,3.8611,3.8611,3.8611,3.8611,3.8611,3.8611,3.8611,3.8611,3.8611,3.8611,3.8611,3.8611,3.8611,3.8611,3.8611,3.8611,3.8611,3.8611,3.8611,3.8611,0.0,0.0,0.0,0.0,0.0,0.0,2.4332,2.4785,2.5234,2.5659,2.5693,2.5693,2.5693,2.5693,2.5693,2.5693,2.5693,0.0,0.0,0.0,0.0,0.0,0.0,0.0,0.0,0.0,2.5693,2.5693,2.5693,2.5693,2.5693,2.5693,2.5693,2.5757,0.0,0.0,0.0,0.0,0.0,0.0,0.0,0.0,0.0,0.0,0.0,0.0,0.0,0.0,0.0,0.0,0.0,0.0,0.0,3.0898,3.0898,3.0898,3.0898,3.0898,3.0898,3.1191,3.1494,3.1523,3.1855,3.2198,3.2198,3.25,3.2793,3.2793,3.3125,3.3386,3.3386,3.3386,3.3555,3.4036,3.4434,3.4863,3.5332,3.5762,3.5982,3.5982,3.6777,3.7305,3.7305,3.8102,3.8611,3.8611,3.8611,3.8611,3.8611,3.8611,3.8611,3.8611,3.8611,3.8611,3.8611,3.8611,3.8611,3.8611,3.8611,3.8611,3.8611,3.8611,3.8611,3.8611,3.8611,3.8611,3.8611,3.8611,3.8611,3.8611,3.8611,3.8611,3.8611,3.8611,3.8611,3.8611,0.0,0.0,0.0,0.0,0.0,0.0,0.0,2.5234,2.5562,2.5674,2.5693,2.5693,2.5693,2.5693,2.5693,2.5693,2.5693,0.0,0.0,0.0,0.0,0.0,0.0,0.0,0.0,0.0,2.5693,2.5693,2.5693,2.5693,2.5693,2.5693,2.5874,2.6211,2.6732,2.7187,0.0,0.0,0.0,0.0,0.0,0.0,2.8301,0.0,0.0,0.0,0.0,0.0,0.0,0.0,0.0,0.0,0.0,0.0,0.0,3.0898,3.0898,3.0898,3.0898,3.0996,3.1094,3.1094,3.1191,3.1367,3.166,3.1836,3.209,3.2676,3.291,3.3086,3.3347,3.3386,3.3445,3.3613,3.4238,3.4746,3.4902,3.5547,3.5982,3.5982,3.6777,3.7402,3.7695,3.8242,3.8611,3.8611,3.8611,3.8611,3.8611,3.8611,3.8611,3.8611,3.8611,3.8611,3.8611,3.8611,3.8611,3.8611,3.8611,3.8611,3.8611,3.8611,3.8611,3.8611,3.8611,3.8611,3.8611,3.8611,3.8611,3.8611,3.8611,3.8611,3.8611,3.8611,3.8611,3.8611,0.0,0.0,0.0,0.0,0.0,0.0,0.0,2.5449,2.5693,2.5693,2.5693,2.5693,2.5693,2.5693,2.5693,2.5693,2.5693,0.0,0.0,0.0,0.0,0.0,0.0,0.0,0.0,2.5693,2.5693,2.5693,2.5693,2.5693,2.5693,2.5693,2.5952,2.6431,2.6836,2.7266,0.0,0.0,0.0,0.0,0.0,0.0,2.8301,0.0,0.0,0.0,0.0,0.0,0.0,0.0,0.0,0.0,0.0,0.0,0.0,0.0,3.0898,3.0898,3.0898,3.0898,3.0898,3.0898,3.0898,3.0957,3.123,3.1406,3.1719,3.2422,3.2676,3.293,3.334,3.3386,3.3386,3.3386,3.4141,3.4707,3.4707,3.5469,3.6074,3.625,3.6875,3.7461,3.7855,3.832,3.8611,3.8611,3.8611,3.8611,3.8611,3.8611,3.8611,3.8611,3.8611,3.8611,3.8611,3.8611,3.8611,3.8611,3.8611,3.8611,3.8611,3.8611,3.8611,3.8611,3.8611,3.8611,0.0,3.8611,3.8611,3.8611,3.8611,3.8611,3.8611,3.8611,3.8611,3.8611,0.0,0.0,0.0,0.0,0.0,0.0,0.0,2.5469,2.5693,2.5693,2.5693,2.5693,2.5693,2.5693,2.5693,2.5693,0.0,0.0,0.0,0.0,0.0,0.0,0.0,0.0,2.5693,2.5693,2.5693,2.5693,2.5693,2.5693,2.5693,2.5693,2.5971,2.6445,2.6836,2.7285,2.7761,0.0,0.0,0.0,0.0,0.0,0.0,0.0,0.0,0.0,0.0,0.0,0.0,0.0,0.0,0.0,0.0,0.0,0.0,0.0,0.0,0.0,0.0,3.0898,3.0898,3.0898,3.0898,3.0898,3.0898,3.1191,0.0,3.2101,3.2511,3.2891,3.3308,3.3386,3.3386,3.3386,3.4141,3.4707,3.4707,3.5469,3.6172,3.6616,3.6992,3.7422,3.7796,3.8281,3.8571,3.8611,3.8611,3.8611,3.8611,3.8611,3.8611,3.8611,3.8611,3.8611,3.8611,3.8611,3.8611,3.8611,3.8611,3.8611,3.8611,3.8611,3.8611,3.8611,3.8611,3.8611,3.8611,3.8611,3.8611,3.8611,3.8611,3.8611,3.8611,3.8611,3.8611,3.8611,0.0,0.0,0.0,0.0,0.0,0.0,0.0,0.0,0.0,0.0,2.5693,2.5693,2.5693,2.5693,2.5693,0.0,0.0,0.0,0.0,0.0,0.0,0.0,0.0,0.0,2.5693,2.5693,2.5693,2.5693,2.5693,2.5693,2.5693,2.5693,2.6108,2.6875,2.6973,2.7441,2.8171,2.8262,0.0,0.0,0.0,0.0,0.0,0.0,0.0,0.0,2.8301,2.8301,0.0,0.0,0.0,0.0,0.0,0.0,0.0,0.0,3.0898,3.0898,3.0898,0.0,3.0898,3.0898,3.0898,3.0898,0.0,3.0957,3.125,3.2042,3.2276,3.257,3.3281,3.3386,3.3386,3.3386,3.4141,3.4707,3.4707,3.5469,3.6055,3.6152,3.6562,3.6992,3.7402,3.7832,3.8223,3.8591,3.8611,3.8611,3.8611,3.8611,3.8611,3.8611,3.8611,3.8611,3.8611,3.8611,3.8611,3.8611,3.8611,3.8611,3.8611,3.8611,3.8611,3.8611,3.8611,3.8611,3.8611,3.8611,3.8611,3.8611,3.8611,3.8611,3.8611,3.8611,3.8611,3.8611,0.0,0.0,0.0,0.0,0.0,0.0,0.0,0.0,0.0,0.0,0.0,0.0,0.0,0.0,0.0,0.0,0.0,0.0,0.0,0.0,0.0,0.0,0.0,2.5693,2.5693,2.5693,2.5693,2.5693,2.5693,2.5693,2.5693,2.5913,2.6362,2.7006,2.7422,2.7851,2.8301,2.8301,2.8301,0.0,2.8301,0.0,0.0,0.0,0.0,0.0,2.8301,2.8301,0.0,2.9305,2.9598,2.9755,0.0,0.0,0.0,0.0,3.0898,3.0898,3.0898,3.0898,3.0898,3.0898,3.0898,3.0898,3.0898,3.0898,3.1133,3.2022,3.2198,3.2452,3.323,3.3386,3.3386,3.3386,3.4141,3.4844,3.5254,3.5723,3.5982,3.5982,3.6406,3.6792,3.6992,3.7559,3.8027,3.8262,3.8457,3.8611,3.8611,3.8379,3.8281,3.8281,3.8086,3.822,3.8611,3.8611,3.8611,3.8611,3.8611,3.8611,3.8611,3.8611,3.8611,3.8611,3.8611,3.8611,3.8611,3.8611,3.8611,3.8611,3.8611,3.8611,3.8611,3.8611,3.8611,3.8611,0.0,0.0,0.0,0.0,0.0,0.0,0.0,0.0,0.0,0.0,0.0,0.0,0.0,0.0,0.0,0.0,0.0,0.0,0.0,0.0,0.0,0.0,0.0,2.5693,2.5693,2.5693,2.5693,2.5693,2.5693,2.5693,2.5693,2.6191,2.6641,2.7148,2.793,2.8301,2.8301,2.8301,2.8301,2.8301,2.8301,0.0,0.0,0.0,0.0,0.0,0.0,0.0,0.0,2.9324,2.9637,2.9833,3.0625,0.0,0.0,0.0,0.0,0.0,3.0898,3.0898,3.0898,3.0898,3.0898,3.0898,3.0898,3.0898,3.1133,3.2022,3.2198,3.2452,3.323,3.3386,3.3386,3.3386,3.4141,3.5,3.5898,3.5982,3.5982,3.5982,3.6348,3.6636,3.6695,3.7324,3.7718,3.7777,3.8164,3.8415,3.8415,3.8027,3.7832,3.7832,3.748,3.7637,3.8415,3.8415,3.8415,3.8415,3.8415,3.8415,3.8415,3.8415,3.8415,3.8415,3.8415,3.8415,3.8415,3.8415,3.8415,3.8415,3.8415,3.8454,3.8476,3.8476,3.8552,3.8611,0.0,0.0,0.0,0.0,0.0,0.0,0.0,0.0,0.0,0.0,0.0,0.0,0.0,0.0,0.0,0.0,0.0,0.0,0.0,0.0,0.0,2.6018,2.582,2.5693,2.5693,2.5693,2.5693,2.5693,2.5693,2.5693,2.5693,2.6191,2.6842,2.7604,2.8093,2.8301,2.8301,2.8301,2.8301,2.8301,2.8301,0.0,0.0,0.0,0.0,0.0,0.0,0.0,0.0,2.9422,2.9833,3.0195,3.0723,0.0,0.0,0.0,0.0,0.0,3.0898,3.0898,3.0898,3.0898,3.0898,3.0898,3.0898,3.0898,3.1133,3.2022,3.2198,3.2452,3.323,3.3386,3.3386,3.3386,3.4141,3.5,3.5898,3.5982,3.5982,3.5982,3.604,3.6269,3.6675,3.6812,3.7012,3.7363,3.7461,3.75,3.75,3.7422,3.7402,3.7402,3.7324,3.7363,3.75,3.75,3.75,3.75,3.75,3.75,3.75,3.75,3.75,3.75,3.75,3.75,3.75,3.75,3.75,3.75,3.75,3.7715,3.8027,3.8027,3.8262,3.8611,0.0,0.0,0.0,0.0,0.0,0.0,0.0,0.0,0.0,0.0,0.0,0.0,0.0,0.0,0.0,0.0,0.0,0.0,0.0,0.0,0.0,2.6091,2.5989,2.5989,2.6135,2.5989,2.5917,2.5917,2.5791,2.5835,2.6069,2.6777,2.7428,2.8034,2.8203,2.8301,2.8301,2.8301,2.8301,2.8301,0.0,0.0,0.0,0.0,0.0,0.0,0.0,0.0,0.0,0.0,2.9872,3.0273,3.0742,0.0,0.0,0.0,0.0,0.0,3.0898,3.0898,3.0898,3.0898,3.0898,3.0898,3.0898,3.0898,3.1133,3.2022,3.2198,3.2452,3.323,3.3386,3.3542,3.4043,3.4453,3.5,3.5898,3.5982,3.5982,3.5982,3.5982,3.6094,3.6289,3.6543,3.6792,3.6953,3.7168,3.7305,3.7305,3.709,3.6988,3.6988,3.6738,3.6601,3.6601,3.6601,3.6836,3.7305,3.7305,3.7305,3.7305,3.7305,3.7305,3.7305,3.7305,3.7305,3.7305,3.7305,3.7305,3.7305,3.7305,3.7422,3.7598,3.7598,3.7851,3.8223,0.0,0.0,0.0,0.0,0.0,0.0,0.0,0.0,0.0,0.0,0.0,0.0,0.0,0.0,0.0,0.0,0.0,0.0,0.0,0.0,2.5844,2.6163,2.6187,2.6304,2.6496,2.6255,2.6091,2.6091,2.5942,2.6152,2.6724,2.7389,2.7917,2.8301,2.8301,2.8301,2.8301,2.8301,2.8301,2.8301,0.0,0.0,0.0,0.0,0.0,0.0,0.0,0.0,0.0,0.0,0.0,0.0,0.0,0.0,0.0,3.0898,3.0898,3.0898,3.0898,3.0898,3.0898,3.0898,3.0898,3.0898,3.0898,3.0957,3.125,3.2042,3.2276,3.257,3.3281,3.3386,3.3711,3.4551,3.4707,3.5,3.5898,3.5982,3.5982,3.5982,3.5982,3.5982,3.5982,3.6328,3.6558,3.6558,3.6816,3.6992,3.6992,3.6699,3.6558,3.6558,3.6191,3.5982,3.5982,3.5982,3.6348,3.6992,3.6992,3.6992,3.6992,3.6992,3.6992,3.6992,3.6992,3.6992,3.6992,3.6992,3.6992,3.6992,3.6992,3.7051,3.7168,3.7266,3.75,3.7773,0.0,0.0,0.0,0.0,0.0,0.0,0.0,0.0,0.0,0.0,0.0,0.0,0.0,0.0,0.0,0.0,0.0,0.0,0.0,0.0,2.5917,2.6448,2.6472,2.6472,2.6496,2.6255,2.6091,2.6091,2.6256,2.6783,2.7604,2.7663,2.7917,2.8301,2.8301,2.8301,2.8301,2.8301,2.8301,2.8301,2.8301,0.0,0.0,0.0,0.0,0.0,0.0,0.0,0.0,0.0,0.0,0.0,0.0,0.0,3.0898,3.0898,3.0898,3.0898,3.0898,3.0898,3.0898,3.0898,3.0898,3.0898,3.0898,3.1191,3.1601,3.2101,3.2511,3.2891,3.3308,3.3386,3.3711,3.4551,3.4707,3.5,3.5898,3.5982,3.5982,3.5982,3.5982,3.5982,3.5982,3.6021,3.604,3.604,3.6094,3.6079,3.6079,3.6094,3.604,3.604,3.6001,3.5982,3.5982,3.5982,3.6021,3.6079,3.6079,3.6079,3.6079,3.6079,3.6079,3.6079,3.6079,3.6079,3.6079,3.6079,3.6079,3.6079,3.6079,3.6367,3.6792,3.7148,3.7324,3.7344,0.0,0.0,0.0,0.0,0.0,0.0,0.0,0.0,0.0,0.0,0.0,0.0,0.0,0.0,0.0,0.0,0.0,0.0,0.0,2.6038,2.611,2.6472,2.6352,2.6328,2.6496,2.64,2.6352,2.6352,2.6625,2.709,2.7702,2.7956,2.8144,2.8301,2.8301,2.8301,2.8301,2.8301,2.8301,2.8301,2.8301,2.8301,0.0,0.0,0.0,0.0,0.0,0.0,0.0,0.0,3.04,3.0898,3.0898,3.0898,3.0898,3.0898,3.0898,3.0898,3.0898,3.0898,3.0898,3.0898,3.0898,3.0898,3.0898,3.1211,3.1641,3.2101,3.2531,3.293,3.334,3.3386,3.3711,3.4551,3.4707,3.5,3.5898,3.5982,3.5982,3.5982,3.5982,3.5982,3.5982,3.5982,3.5982,3.5982,3.5982,3.5982,3.5982,3.5982,3.5982,3.5982,3.5982,3.5982,3.5982,3.5982,3.5982,3.5982,3.5982,3.5982,3.5982,3.5982,3.5982,3.5982,3.5982,3.5982,3.5982,3.5982,3.5982,3.5982,3.5982,3.6113,3.6289,3.6445,3.668,3.6949,0.0,0.0,0.0,0.0,0.0,0.0,0.0,0.0,0.0,0.0,0.0,0.0,0.0,0.0,0.0,0.0,0.0,0.0,2.6616,2.6284,2.6231,2.6496,2.6255,2.6231,2.6496,2.6564,2.6576,2.6576,2.7024,2.7441,2.7897,2.8191,2.8301,2.8301,2.8301,2.8301,2.8301,2.8301,2.8301,2.8301,2.8301,2.8301,0.0,0.0,0.0,0.0,0.0,0.0,0.0,0.0,3.0508,3.0898,3.0898,3.0898,3.0898,3.0898,3.0898,3.0898,3.0898,3.0898,3.0898,3.0898,3.0996,3.1094,3.1094,3.1426,3.1855,3.2316,3.2695,3.3086,3.3347,3.3386,3.362,3.4375,3.4609,3.4961,3.5723,3.5937,3.5982,3.5982,3.5982,3.5982,3.5982,3.5982,3.5982,3.5982,3.5982,3.5982,3.5982,3.5982,3.5982,3.5982,3.5982,3.5982,3.5982,3.5982,3.5982,3.5982,3.5982,3.5982,3.5982,3.5982,3.5982,3.5982,3.5982,3.5982,3.5982,3.5982,3.5982,3.5982,3.5982,3.5982,3.5982,3.5982,3.6211,3.6465,0.0,0.0,0.0,0.0,0.0,0.0,0.0,0.0,0.0,0.0,0.0,0.0,0.0,0.0,0.0,0.0,0.0,0.0,2.6884,2.6404,2.6231,2.6496,2.6255,2.6231,2.6472,2.6694,2.6814,2.6814,2.74,2.7917,2.8301,2.8301,2.8301,2.8301,2.8301,2.8301,2.8301,2.8301,2.8301,2.8301,2.8301,2.8301,2.8301,0.0,0.0,0.0,0.0,0.0,0.0,0.0,3.0508,3.0898,3.0898,3.0898,3.0898,3.0898,3.0898,3.0898,3.0898,3.0898,3.0898,3.0898,3.1211,3.1494,3.1523,3.1855,3.2316,3.2715,3.3125,3.3386,3.3386,3.3386,3.3555,3.4036,3.4414,3.4863,3.5332,3.5742,3.6016,3.5982,3.5982,3.5982,3.5982,3.5982,3.5982,3.5982,3.5982,3.5982,3.5982,3.5982,3.5982,3.5982,3.5982,3.5982,3.5982,3.5982,3.5982,3.5982,3.5982,3.5982,3.5982,3.5982,3.5982,3.5982,3.5982,3.5982,3.5982,3.5982,3.5982,3.5982,3.5982,3.5982,3.5982,3.5982,3.5982,3.5982,0.0,0.0,0.0,0.0,0.0,0.0,0.0,0.0,0.0,0.0,0.0,0.0,0.0,0.0,0.0,0.0,0.0,0.0,2.7384,2.7119,2.6808,2.652,2.6255,2.6201,2.6438,2.7092,2.744,2.744,2.7617,2.7917,2.8301,2.8301,2.8301,2.8301,2.8301,2.8301,2.8301,2.8301,2.8301,2.8301,2.8301,2.8301,2.8301,0.0,0.0,0.0,0.0,0.0,0.0,0.0,0.0,0.0,3.0898,3.0898,3.0898,3.0898,3.0898,3.0898,3.0898,3.0898,3.0898,3.0898,3.1211,3.1601,3.1914,3.2335,3.2734,3.3144,3.3308,3.3386,3.3386,3.3386,3.3555,3.4036,3.4212,3.4531,3.5293,3.5508,3.5684,3.5996,3.5982,3.5982,3.5982,3.5982,3.5982,3.5982,3.5982,3.5982,3.5982,3.5982,3.5982,3.5982,3.5982,3.5982,3.5982,3.5982,3.5982,3.5982,3.5982,3.5982,3.5982,3.5982,3.5982,3.5982,3.5982,3.5982,3.5982,3.5982,3.5982,3.5982,3.5982,3.5982,3.5947,3.5743,3.5641,3.5572,0.0,0.0,0.0,0.0,0.0,0.0,0.0,0.0,0.0,0.0,0.0,0.0,0.0,0.0,0.0,0.0,0.0,0.0,0.0,2.7309,2.6952,2.652,2.6415,2.6572,2.7052,2.7693,2.8022,2.8114,2.7989,2.8073,2.8301,2.8301,2.8301,2.8301,2.8301,2.8301,2.8301,2.8301,2.8301,2.8301,2.8301,2.8301,2.8301,0.0,0.0,0.0,0.0,0.0,0.0,0.0,0.0,0.0,3.0898,3.0898,3.0898,3.0898,3.0898,3.0898,3.0898,3.0898,3.0937,3.1094,3.1465,3.1934,3.2539,3.2871,3.3105,3.3347,3.3386,3.3386,3.3386,3.3386,3.3484,3.3769,3.3997,3.429,3.4805,3.5019,3.5273,3.5723,3.5762,3.584,3.5962,3.5982,3.5982,3.5982,3.5982,3.5982,3.5982,3.5982,3.5982,3.5982,3.5982,3.5982,3.5982,3.5982,3.5982,3.5982,3.5982,3.5982,3.5982,3.5982,3.5982,3.5982,3.5982,3.5982,3.5982,3.5982,3.5982,3.5982,3.5982,3.5982,3.5947,3.5606,3.5523,3.5367,0.0,0.0,0.0,0.0,0.0,0.0,0.0,0.0,0.0,0.0,0.0,0.0,0.0,0.0,0.0,0.0,0.0,0.0,0.0,0.0,2.6849,2.6581,2.6729,2.7221,2.8111,2.8425,2.8593,2.8701,2.8461,2.8327,2.8301,2.8301,2.8301,2.8301,2.8301,2.8301,2.8301,2.8301,2.8301,2.8301,2.8301,2.8301,2.8301,2.834,0.0,0.0,0.0,0.0,0.0,0.0,0.0,0.0,3.0898,3.0898,3.0898,3.0898,3.0898,3.0898,3.0898,3.0898,3.0996,3.1406,3.1875,3.2472,3.3211,3.3386,3.3386,3.3386,3.3386,3.3386,3.3386,3.3386,3.3386,3.3386,3.375,3.4055,3.4095,3.4394,3.4824,3.5273,3.5332,3.5488,3.5859,3.5903,3.5957,3.5957,3.5962,3.5982,3.5982,3.5982,3.5982,3.5982,3.5982,3.5982,3.5982,3.5982,3.5982,3.5982,3.5982,3.5982,3.5982,3.5982,3.5982,3.5947,3.5913,3.5913,3.5947,3.5913,3.5913,3.5947,3.5913,3.5913,3.5845,3.5504,3.5386,3.523,0.0,0.0,0.0,0.0,0.0,0.0,0.0,0.0,0.0,0.0,0.0,0.0,0.0,0.0,0.0,0.0,0.0,0.0,0.0,0.0,2.7311,2.6979,2.7511,2.7984,2.839,2.8784,2.8893,2.8701,2.8648,2.8514,2.8301,2.8301,2.8301,2.8301,2.8301,2.8301,2.8301,2.8301,2.8301,2.8301,2.8301,2.8301,2.832,2.8652,2.9043,0.0,0.0,0.0,0.0,0.0,0.0,0.0,3.0898,3.0898,3.0898,3.0898,3.0898,3.0898,3.0898,3.0898,3.0996,3.1406,3.209,3.2793,3.3269,3.3386,3.3386,3.3386,3.3386,3.3386,3.3386,3.3386,3.3386,3.3386,3.3464,3.3691,3.4055,3.4192,3.4375,3.4805,3.4844,3.4883,3.498,3.5312,3.5527,3.5527,3.584,3.5982,3.5982,3.5982,3.5982,3.5982,3.5982,3.5982,3.5982,3.5982,3.5982,3.5982,3.5982,3.5982,3.5982,3.5982,3.5845,3.5572,3.5264,3.5333,3.5572,3.5264,3.5333,3.5572,3.5264,3.5127,3.5093,3.4749,3.4439,3.399,0.0,0.0,0.0,0.0,0.0,0.0,0.0,0.0,0.0,0.0,0.0,0.0,0.0,0.0,0.0,0.0,0.0,0.0,0.0,0.0,2.781,2.7965,2.8303,2.8646,2.9025,2.9373,2.9317,2.8887,2.8887,2.8701,2.8301,2.8301,2.8301,2.8301,2.8301,2.8301,2.8301,2.8301,2.8301,2.8301,2.8301,2.8301,2.834,2.8769,2.9199,2.9657,3.0059,0.0,0.0,0.0,0.0,0.0,0.0,0.0,3.0898,3.0898,3.0898,3.0898,3.0898,3.0898,3.1035,3.168,3.2461,3.3144,3.3347,3.3386,3.3386,3.3386,3.3386,3.3386,3.3386,3.3386,3.3386,3.3386,3.3386,3.3496,3.373,3.375,3.3926,3.4355,3.4394,3.4473,3.4687,3.4922,3.5059,3.5059,3.5254,3.5391,3.5391,3.5605,3.5723,3.5723,3.5884,3.5982,3.5982,3.5982,3.5982,3.5982,3.5982,3.5982,3.5982,3.5811,3.5675,3.5489,3.5059,3.5127,3.5489,3.5059,3.5127,3.5436,3.4887,3.4646,3.4577,3.4024,3.359,3.3068,0.0,0.0,0.0,0.0,0.0,0.0,0.0,0.0,0.0,0.0,0.0,0.0,0.0,0.0,0.0,0.0,0.0,0.0,0.0,0.0,0.0,2.9009,2.9039,2.9218,2.9659,2.9837,2.9679,2.9105,2.9052,2.8761,2.8301,2.8301,2.8301,2.8301,2.8301,2.8301,2.8301,2.8301,2.8301,2.8301,2.8301,2.834,2.8437,2.8867,2.9297,2.9755,3.0156,3.0566,3.0898,3.0898,0.0,0.0,0.0,0.0,3.0898,3.0898,3.0898,3.0898,3.0898,3.0996,3.1319,3.2022,3.2793,3.3386,3.3386,3.3386,3.3386,3.3386,3.3386,3.3386,3.3386,3.3386,3.3386,3.3386,3.3386,3.3386,3.3386,3.3386,3.3523,3.3926,3.3997,3.4101,3.4453,3.4551,3.459,3.459,3.4668,3.4707,3.4707,3.5059,3.5273,3.5273,3.5605,3.5801,3.5801,3.5801,3.5801,3.5747,3.5733,3.568,3.5646,3.5224,3.5131,3.5367,3.4921,3.4956,3.5264,3.4818,3.4853,3.5127,3.437,3.4094,3.4024,3.3365,3.2859,3.2351,0.0,0.0,0.0,0.0,0.0,0.0,0.0,0.0,0.0,0.0,0.0,0.0,0.0,0.0,0.0,0.0,0.0,0.0,2.7857,0.0,0.0,2.9576,2.9533,2.965,2.9942,2.9738,2.9475,2.9105,2.8887,2.8594,2.8301,2.8301,2.8301,2.8301,2.8301,2.8301,2.8301,2.8301,2.8301,2.8301,2.8301,2.8516,2.8887,2.9316,2.9774,3.0176,3.0625,3.084,3.0898,3.0898,3.0898,0.0,0.0,0.0,3.0898,3.0898,3.0898,3.0898,3.0898,3.1455,3.2061,3.2179,3.2793,3.3386,3.3386,3.3386,3.3386,3.3386,3.3386,3.3386,3.3386,3.3386,3.3386,3.3386,3.3386,3.3386,3.3386,3.3386,3.3406,3.3496,3.3484,3.3503,3.3594,3.3926,3.4192,3.4192,3.4492,3.4707,3.4707,3.4766,3.4785,3.4785,3.4844,3.4883,3.4883,3.4883,3.4883,3.4883,3.4586,3.4453,3.442,3.3423,3.3714,3.4956,3.4267,3.4163,3.4474,3.3782,3.3712,3.3955,3.3225,3.2911,3.2911,3.2806,3.2316,3.1595,0.0,0.0,0.0,0.0,0.0,0.0,0.0,0.0,0.0,0.0,0.0,0.0,0.0,0.0,0.0,2.8418,2.842,2.8589,2.8983,2.9151,2.9467,3.0055,2.9792,2.9659,2.9764,2.9475,2.9158,2.8887,2.8754,2.8568,2.8301,2.8301,2.8301,2.8301,2.8301,2.8301,2.8301,2.8301,2.8301,2.832,2.8555,2.875,2.8976,2.9668,3.0039,3.0254,3.0723,3.0898,3.0898,3.0898,3.0898,3.0898,3.0898,0.0,0.0,0.0,3.0898,3.0898,3.0898,3.1348,3.1855,3.214,3.2617,3.3125,3.3347,3.3386,3.3386,3.3386,3.3386,3.3386,3.3386,3.3386,3.3386,3.3386,3.3386,3.3386,3.3386,3.3386,3.3386,3.3386,3.3386,3.3386,3.3386,3.3594,3.3711,3.3711,3.3867,3.3984,3.3984,3.4219,3.4336,3.4336,3.457,3.4707,3.4707,3.4707,3.4609,3.4411,3.3884,3.3553,3.3335,3.2454,3.2621,3.3579,3.2866,3.2661,3.2779,3.2233,3.213,3.2217,3.1687,3.1461,3.146,3.142,3.0939,3.0211,0.0,0.0,0.0,0.0,0.0,0.0,0.0,0.0,0.0,0.0,0.0,0.0,0.0,0.0,0.0,0.0,2.8877,2.9383,3.0125,3.0013,3.0062,3.0396,2.9895,2.9554,2.9475,2.9158,2.8913,2.8701,2.8621,2.8514,2.8301,2.8301,2.8301,2.8301,2.8301,2.8301,2.8301,2.8301,2.8359,2.8476,2.8762,2.9015,2.9316,2.9961,3.0273,3.041,3.0762,3.0898,3.0898,3.0898,3.0898,3.0898,3.0898,3.0898,0.0,0.0,0.0,3.0898,3.0898,3.1191,3.1601,3.1914,3.2402,3.2871,3.3184,3.3308,3.3386,3.3386,3.3386,3.3386,3.3386,3.3386,3.3386,3.3386,3.3386,3.3386,3.3386,3.3386,3.3386,3.3386,3.3386,3.3386,3.3386,3.3386,3.3386,3.3386,3.3386,3.3386,3.3386,3.373,3.3906,3.3906,3.4199,3.4342,3.4245,3.4082,3.3821,3.3494,3.2706,3.2144,3.1794,3.0893,3.0759,3.1212,3.1206,3.1193,3.1142,3.0548,3.0412,3.0497,3.0013,2.9922,3.0043,3.001,2.9595,2.8992,0.0,0.0,0.0,0.0,0.0,0.0,0.0,0.0,0.0,0.0,0.0,0.0,2.8511,2.8675,2.8814,2.8769,2.942,3.0245,3.1169,3.0758,3.0444,3.0396,2.9895,0.0,2.9132,2.886,2.8701,2.8701,2.8461,2.8308,2.8301,2.8301,2.8301,2.8301,2.8301,2.8301,2.8301,2.8301,2.8516,2.8859,2.8879,2.9386,3.0137,3.0176,3.0469,3.0859,3.0879,3.0898,3.0898,3.0898,3.0898,3.0898,3.0898,3.0898,3.0898,0.0,0.0,0.0,3.0898,3.1191,3.1523,3.1513,3.2187,3.2793,3.2832,3.3144,3.3386,3.3386,3.3386,3.3386,3.3386,3.3386,3.3386,3.3386,3.3386,3.3386,3.3386,3.3386,3.3386,3.3386,3.3386,3.3386,3.3386,3.3386,3.3386,3.3386,3.3386,3.3386,3.3386,3.3406,3.3425,3.3425,3.3476,3.3338,3.2988,3.2364,3.1883,3.1529,3.0494,2.9791,2.9431,2.8047,2.745,2.7582,2.9327,3.0088,2.9986,2.8891,2.8666,2.8958,2.8214,2.8318,2.8905,2.8887,2.8661,2.8297,0.0,0.0,0.0,0.0,0.0,0.0,0.0,0.0,0.0,0.0,0.0,0.0,0.0,2.8723,2.8924,2.9206,3.0022,3.0685,3.1008,3.0657,3.0352,3.0156,2.9416,2.8966,2.886,2.8594,2.8434,2.8434,2.8354,2.8301,2.8301,2.8301,2.8301,2.8301,2.8301,2.8437,2.8691,2.8691,2.8945,2.9355,2.9629,2.9922,3.0234,3.0527,3.0742,3.0898,3.0898,3.0898,3.0898,3.0898,3.0898,3.0898,3.0898,3.0898,3.0898,3.0898,3.0898,3.0898,3.0898,3.0996,3.1191,3.1445,3.1728,3.2051,3.2355,3.2715,3.3008,3.3008,3.3242,3.3386,3.3386,3.3386,3.3386,3.3386,3.3386,3.3386,3.3386,3.3386,3.3386,3.3386,3.3386,3.3386,3.3386,3.3386,3.3386,3.3386,3.3386,3.3386,3.3386,3.3386,3.3386,3.3386,3.3386,3.3228,3.288,3.2019,3.141,3.1073,2.9985,2.9201,2.8642,2.7866,2.7284,2.69,2.732,2.7363,2.7144,2.6722,2.65,2.6394,2.6401,2.6545,2.6767,2.6996,2.6843,2.6459,0.0,0.0,0.0,0.0,0.0,0.0,0.0,0.0,0.0,0.0,0.0,0.0,0.0,0.0,2.9128,2.9637,3.0265,3.0648,3.0719,3.043,3.0104,2.9706,2.9072,2.8648,2.8568,2.8408,2.8301,2.8301,2.8301,2.8301,2.8301,2.8301,2.8359,2.8496,2.8496,2.8652,2.8898,2.9082,2.9375,2.9833,3.0078,3.0293,3.0469,3.0781,3.0898,3.0898,3.0898,3.0898,3.0898,3.0898,3.0898,3.0898,3.0898,3.0898,3.0898,3.0898,3.0898,3.0898,3.0898,3.0898,3.0957,3.123,3.1406,3.1601,3.1875,3.2285,3.2578,3.2578,3.2812,3.3008,3.3008,3.3008,3.3086,3.3347,3.3386,3.3386,3.3386,3.3386,3.3386,3.3386,3.3386,3.3386,3.3386,3.3386,3.3386,3.3386,3.3386,3.3386,3.3386,3.3386,3.3386,3.3386,3.3165,3.2962,3.274,3.1603,3.0861,3.0505,2.948,2.8659,2.8081,2.7584,2.7085,2.6651,2.6164,2.5712,2.5375,2.5172,2.4902,2.4694,2.4827,2.5002,2.5271,2.5489,2.5403,2.516,0.0,0.0,0.0,0.0,0.0,0.0,0.0,0.0,0.0,2.7712,0.0,0.0,0.0,0.0,0.0,3.0015,3.0075,3.0185,3.037,3.0109,2.9691,2.9105,2.8834,2.8568,2.8327,2.8301,2.8301,2.8301,2.8301,2.8301,2.8301,2.8301,2.8535,2.8898,2.8918,2.8918,2.8957,2.9414,2.9852,3.0215,3.0215,3.0488,3.0898,3.0898,3.0898,3.0898,3.0898,3.0898,3.0898,3.0898,3.0898,3.0898,3.0898,3.0898,3.0898,3.0898,3.0898,3.0898,0.0,0.0,0.0,3.0898,3.1191,3.1474,3.1474,3.1836,3.2179,3.2179,3.2179,3.2198,3.2198,3.2198,3.2472,3.3242,3.3347,3.3347,3.3347,3.3347,3.3347,3.3367,3.3367,3.3386,3.3386,3.3386,3.3386,3.3386,3.3386,3.3386,3.3386,3.3386,3.3386,3.3386,3.2772,3.2422,3.2422,3.1106,3.023,2.9837,2.8839,2.8147,2.7733,2.7035,2.6718,2.6651,2.5965,2.5427,2.497,2.4306,2.3986,2.3918,2.3543,2.3816,2.4428,2.4428,2.4428,2.4428,0.0,0.0,0.0,0.0,0.0,0.0,2.8303,2.8233,2.8068,0.0,0.0,0.0,2.8508,2.9133,2.9526,2.952,2.9653,2.975,2.9816,2.9343,2.8993,2.8834,2.8568,2.8381,2.8301,2.8301,2.8301,2.8301,2.8301,2.8301,2.8301,2.8613,2.8781,2.8918,2.957,2.9844,2.9844,2.998,3.0293,3.0703,3.0703,3.0781,3.0898,3.0898,3.0898,3.0898,3.0898,3.0898,3.0898,3.0898,3.0898,3.0898,3.0898,3.0898,3.0898,3.0898,3.0898,3.0898,3.0898,0.0,0.0,0.0,0.0,0.0,3.1055,3.1387,3.1699,3.1699,3.1953,3.2198,3.2198,3.2198,3.2276,3.2511,3.2519,3.2519,3.2519,3.2519,3.2637,3.293,3.2969,3.3086,3.3367,3.3386,3.3386,3.3386,3.3386,3.3386,3.3386,3.3386,3.3386,3.3386,3.2975,3.2772,3.2772,3.1923,3.1313,3.0958,3.0375,2.9902,2.9559,2.9363,2.9003,2.851,2.8097,2.7102,2.5712,2.4495,2.3816,2.3543,2.3167,2.3167,2.3338,2.3338,2.3338,2.3338,0.0,0.0,0.0,0.0,0.0,0.0,2.8115,2.7998,2.7896,0.0,0.0,0.0,2.871,2.9106,2.9245,2.9088,2.9149,2.9185,2.9052,2.8727,2.8541,2.8541,2.8381,2.8301,2.8301,2.8301,2.8301,2.8301,2.8301,2.8379,2.8555,2.8781,2.9074,2.9445,2.998,3.0312,3.0488,3.0488,3.0644,3.0898,3.0898,3.0898,3.0898,3.0898,3.0898,3.0898,3.0898,3.0898,3.0898,3.0898,3.0898,3.0898,3.0898,3.0898,3.0898,3.0898,3.0898,3.0898,0.0,3.0898,3.0898,3.0898,0.0,0.0,3.0898,3.1074,3.125,3.125,3.1465,3.167,3.167,3.167,3.167,3.167,3.167,3.1788,3.214,3.2198,3.2296,3.2531,3.257,3.2637,3.2871,3.2891,3.2969,3.3144,3.3164,3.3211,3.3386,3.3386,3.3386,3.3386,3.307,3.288,3.288,3.2243,3.1777,3.1603,3.1249,3.0958,3.0746,3.0746,3.0455,2.9935,2.9445,2.8296,2.6669,2.5394,2.4292,2.3372,2.303,2.2893,2.2893,2.2893,2.2893,2.2893,0.0,0.0,0.0,2.9623,2.9462,2.9094,2.8162,2.7993,2.7875,0.0,2.7783,2.8197,2.8752,2.8781,2.8735,2.8661,2.8648,2.8541,2.8327,2.8301,2.8301,2.8301,2.8301,2.8301,2.8301,2.8301,2.8301,2.8301,2.834,2.8555,2.8898,2.8996,2.9473,3.0195,3.0254,3.0508,3.0898,3.0898,3.0898,3.0898,3.0898,3.0898,3.0898,3.0898,3.0898,3.0898,3.0898,3.0898,3.0898,3.0898,3.0898,3.0898,3.0898,3.0898,3.0898,3.0898,3.0898,3.0898,3.0898,0.0,0.0,3.0898,3.0898,0.0,3.0898,3.0898,3.0898,3.0898,3.0898,3.0898,3.0898,3.0898,3.0898,3.0898,3.0898,3.1152,3.1944,3.2061,3.2081,3.212,3.212,3.214,3.2198,3.2198,3.2355,3.2695,3.2734,3.291,3.3289,3.3328,3.3347,3.3386,3.3102,3.2962,3.2962,3.2371,3.2065,3.2065,3.1763,3.1635,3.1635,3.1635,3.141,3.1041,3.0278,2.9151,2.7733,2.6669,2.5158,2.3475,2.3133,2.303,2.303,2.3065,2.3065,2.3065,0.0,0.0,3.0374,2.9623,2.9186,2.8723,2.8092,2.7959,2.7821,2.7554,2.8036,2.8479,2.8707,2.8714,2.8628,2.8388,2.8381,2.8354,2.8301,2.8301,2.8301,2.8301,2.8301,2.8301,2.8301,2.8301,2.8301,2.8301,2.8633,2.882,2.8918,2.9629,3.0039,3.0215,3.0586,3.0801,3.0898,3.0898,3.0898,3.0898,3.0898,3.0898,3.0898,3.0898,3.0898,3.0898,3.0898,3.0898,3.0898,3.0898,3.0898,3.0898,3.0898,3.0898,3.0898,3.0898,3.0898,3.0898,3.0898,3.0898,3.0898,3.0898,3.0898,0.0,3.0898,3.0898,3.0898,3.0898,3.0898,3.0898,3.0898,3.0898,3.0898,3.0898,3.0898,3.0957,3.1113,3.1133,3.1269,3.1601,3.1641,3.1777,3.2159,3.2198,3.2237,3.2316,3.2316,3.248,3.2891,3.291,3.3066,3.3386,3.3323,3.3292,3.3292,3.3165,3.3102,3.3102,3.3038,3.3007,3.3007,3.3007,3.2689,3.207,3.1377,3.013,2.8493,2.7435,2.5932,2.4258,2.3932,2.3795,2.3816,2.4088,2.419,2.4224,3.0352,2.992,2.9463,2.8862,2.8638,2.8359,2.7833,2.7913,2.7987,2.7784,2.8123,2.8437,2.8495,2.8514,2.8461,2.8308,2.8301,2.8301,2.8301,2.8301,2.8301,2.8301,2.8301,2.8301,2.8301,2.8301,2.8301,2.8301,2.8711,2.9023,2.9258,2.9902,3.0312,3.0547,3.0781,3.0898,3.0898,3.0898,3.0898,3.0898,3.0898,3.0898,3.0898,3.0898,3.0898,3.0898,3.0898,3.0898,3.0898,3.0898,3.0898,3.0898,3.0898,3.0898,3.0898,3.0898,3.0898,3.0898,3.0898,3.0898,3.0898,3.0898,3.0898,0.0,0.0,3.0898,3.0898,3.0898,3.0898,3.0898,3.0898,3.0898,3.0898,3.0898,3.0898,3.0898,3.0898,3.0898,3.0976,3.1191,3.1211,3.1289,3.1534,3.1553,3.1621,3.1836,3.2081,3.2296,3.2511,3.2511,3.2578,3.2793,3.3008,3.3105,3.3105,3.3289,3.3386,3.3386,3.3386,3.3386,3.3386,3.3386,3.3038,3.2358,3.1859,3.0649,2.9004,2.8477,2.7401,2.5999,2.5138,2.48,2.4834,2.5172,2.5307,2.5341,2.9646,2.9048,2.8513,2.8175,2.8133,2.8035,2.7701,2.7914,2.8151,2.8054,2.8218,2.8301,2.8301,2.8301,2.8301,2.8301,2.8301,2.8301,2.8301,2.8301,2.8301,2.8301,2.8301,2.8301,2.8301,2.8301,2.834,2.8418,2.8828,2.9258,2.9735,3.0137,3.0527,3.0898,3.0898,3.0898,3.0898,3.0898,3.0898,3.0898,3.0898,3.0898,3.0898,3.0898,3.0898,3.0898,3.0898,3.0898,3.0898,3.0898,3.0898,3.0898,3.0898,3.0898,3.0898,3.0898,3.0898,3.0898,3.0898,3.0898,3.0898,3.0898,3.0898,3.0898,0.0,0.0,0.0,3.0898,3.0898,3.0898,3.0898,3.0898,3.0898,3.0898,3.0898,3.0898,3.0898,3.0898,3.0898,3.0898,3.0898,3.0898,3.0898,3.0898,3.1035,3.1367,3.1749,3.1983,3.2061,3.2081,3.212,3.2198,3.2531,3.2676,3.2676,3.3008,3.3184,3.3184,3.3184,3.3184,3.3184,3.3184,3.2838,3.2239,3.1903,3.0883,2.9451,2.9386,2.8816,2.7835,2.6573,2.6054,2.6026,2.6426,2.6528,2.6466,2.9647,2.9049,2.8457,2.853,2.8004,2.7721,2.808,2.8049,2.8074,2.8244,2.8288,2.8301,2.8301,2.8301,2.8301,2.8301,2.8301,2.8301,2.8301,2.8301,2.8301,2.8301,2.8301,2.8301,2.8301,2.8301,2.8476,2.882,2.9277,2.9735,3.0137,3.0586,3.084,3.0898,3.0898,3.0898,3.0898,3.0898,3.0898,3.0898,3.0898,3.0898,3.0898,3.0898,3.0898,3.0898,3.0898,3.0898,3.0898,3.0898,3.0898,3.0898,3.0898,3.0898,3.0898,3.0898,3.0898,3.0898,3.0898,3.0898,3.0898,3.0898,3.0898,3.0898,3.0898,0.0,3.0898,3.0898,0.0,3.0898,3.0898,0.0,0.0,3.0898,3.0898,3.0898,3.0898,3.0898,3.0898,3.0898,3.0898,3.0898,3.0898,3.0898,3.0918,3.0957,3.1016,3.1191,3.1562,3.1582,3.1758,3.2179,3.2237,3.2276,3.2276,3.2316,3.2335,3.2335,3.2335,3.2335,3.2335,3.2335,3.2091,3.1673,3.1316,3.073,3.0002,2.9703,2.9297,2.8783,2.8161,2.7687,2.7442,2.8091,2.8082,2.786,2.8283,2.7928,2.7603,2.7496,2.7563,2.7674,2.7879,2.8068,2.8192,2.8288,2.8301,2.8301,2.8301,2.8301,2.8301,2.8301,2.8301,2.8301,2.8301,2.8301,2.8301,2.8301,2.8301,2.8301,2.8301,2.8301,2.8496,2.8898,2.9355,2.9813,3.0215,3.0664,3.0898,3.0898,3.0898,3.0898,3.0898,3.0898,3.0898,3.0898,3.0898,3.0898,3.0898,3.0898,3.0898,3.0898,3.0898,3.0898,3.0898,3.0898,3.0898,3.0898,3.0898,3.0898,3.0898,3.0898,3.0898,3.0898,3.0898,3.0898,3.0898,3.0898,3.0898,3.0898,3.0898,3.0898,3.0898,3.0898,0.0,0.0,0.0,0.0,0.0,0.0,3.0898,3.0898,3.0898,3.0898,3.0898,3.0898,3.0898,3.0898,3.0898,3.0898,3.0898,3.0898,3.0898,3.0976,3.1152,3.1152,3.123,3.1455,3.166,3.1797,3.1797,3.2081,3.2198,3.2198,3.2198,3.2198,3.2198,3.2198,3.1985,3.16,3.1447,3.0999,3.0384,3.0445,3.026,2.9937,2.9888,2.9418,2.8835,2.9277,2.9377,2.9266,2.7255,0.0,2.7023,2.7062,2.7406,2.7741,2.7839,2.8105,2.8301,2.8301,2.8301,2.8301,2.8301,2.8301,2.8301,2.8301,2.8301,2.8301,2.8301,2.8301,2.8301,2.8301,2.8301,2.8301,2.8301,2.8301,2.8555,2.9101,2.9442,2.9872,3.0391,3.0742,3.0898,3.0898,3.0898,3.0898,3.0898,3.0898,3.0898,3.0898,3.0898,3.0898,3.0898,3.0898,3.0898,3.0898,3.0898,3.0898,3.0898,3.0898,3.0898,3.0898,3.0898,3.0898,3.0898,3.0898,3.0898,3.0898,3.0898,3.0898,3.0898,3.0898,3.0898,3.0898,3.0898,3.0898,3.0898,3.0898,3.0898,0.0,0.0,0.0,3.0898,3.0898,0.0,3.0898,3.0898,3.0898,3.0898,3.0898,3.0898,3.0898,3.0898,3.0898,3.0898,3.0898,3.0898,3.0898,3.0898,3.0898,3.0869,3.0762,3.1054,3.115,3.1081,3.1491,3.1726,3.1726,3.1816,3.1846,3.1846,3.1846,3.1696,3.1406,3.1406,3.1134,3.0691,3.0922,3.0891,3.0709,3.0952,3.0618,3.0008,3.0242,3.0284,3.0192,2.7123,2.6892,2.7047,2.7823,2.7819,2.7839,2.8203,2.8281,2.8301,2.8301,2.8301,2.8301,2.8301,2.8301,2.8301,2.8301,2.8301,2.8301,2.8301,2.8301,2.8301,2.8301,2.8301,2.8301,2.8301,2.8301,2.8738,2.9579,2.9598,3.0048,3.0859,3.0879,3.0898,3.0898,3.0898,3.0898,3.0898,3.0898,3.0898,3.0898,3.0898,3.0898,3.0898,3.0898,3.0898,3.0898,3.0898,3.0898,3.0898,3.0898,3.0898,3.0898,3.0898,3.0898,3.0898,3.0898,3.0898,3.0898,3.0898,3.0898,3.0898,3.0898,3.0898,3.0898,3.0898,3.0898,3.0898,3.0898,3.0898,3.0898,3.0898,3.0898,0.0,0.0,3.0898,0.0,0.0,3.0898,3.0898,3.0898,3.0898,3.0898,3.0898,3.0898,3.0898,3.0898,3.0898,3.0898,3.0898,3.0898,3.0762,3.0421,3.044,3.0294,2.9941,3.0283,3.0459,3.0459,3.0801,3.0937,3.0937,3.0937,3.0937,3.0937,3.0937,3.0908,3.0908,3.0908,3.0908,3.0908,3.0908,3.0908,3.0859,3.0941,3.0736,3.043,2.757,2.7427,2.7479,2.7747,2.797,2.8125,2.8262,2.8301,2.8301,2.8301,2.8301,2.8398,2.8672,2.8711,2.8828,2.9129,2.9168,2.9168,2.9168,2.9168,2.9168,2.9168,2.8867,2.8711,2.8711,2.8437,2.8738,2.9598,2.9598,3.0048,3.0898,3.0898,3.0898,3.0898,3.0898,3.0898,3.0898,3.0898,3.0898,3.0898,3.0898,3.0898,3.0898,3.0898,3.0898,3.0898,3.0898,3.0898,3.0898,3.0898,3.0898,3.0898,3.0898,3.0898,3.0898,3.0898,3.0898,3.0898,3.0898,3.0898,3.0898,3.0898,3.0898,3.0898,3.0898,3.0898,3.0898,3.0898,3.0898,3.0898,3.0898,3.0898,0.0,0.0,0.0,3.0898,0.0,3.0625,3.0332,3.0087,3.0556,3.0898,3.0898,3.0898,3.0898,3.0898,3.0898,3.0898,3.0898,3.0898,3.0762,3.0421,3.0392,3.0245,2.9892,3.0245,3.0392,3.0392,3.0733,3.0898,3.0898,3.0898,3.0898,3.0898,3.0898,3.0898,3.0898,3.0898,3.0898,3.0898,3.0898,3.0898,3.0918,3.0937,3.0869,3.0674,2.7976,2.7917,2.7917,2.7917,2.8132,2.8301,2.8301,2.8301,2.834,2.8496,2.8516,2.8672,2.9101,2.9141,2.9258,2.9579,2.9598,2.9598,2.9598,2.9598,2.9598,2.9598,2.9297,2.9141,2.9141,2.8887,2.9129,2.9813,2.9813,3.0204,3.0898,3.0898,3.0898,3.0898,3.0898,3.0898,3.0898,3.0898,3.0898,3.0898,3.0898,3.0898,3.0898,3.0898,3.0898,3.0898,3.0898,3.0898,3.0898,3.0898,3.0898,3.0898,3.0898,3.0898,3.0898,3.0898,3.0898,3.0898,3.0898,3.0898,3.0898,3.0898,3.0898,3.0898,3.0898,3.0898,3.0898,3.0898,3.0898,3.0898,3.0898,3.0898,3.0898,0.0,0.0,0.0,0.0,3.0185,2.9891,2.9637,3.0215,3.0644,3.0644,3.0801,3.0898,3.0898,3.0898,3.0898,3.0898,3.0898,3.0704,3.0245,3.0216,3.001,2.9568,3.001,3.0216,3.0245,3.0674,3.0898,3.0898,3.0898,3.0898,3.0898,3.0898,3.0898,3.0898,3.0898,3.0898,3.0898,3.0898,3.0898,3.0898,3.0898,3.0898,3.0791,2.8363,2.8301,2.8301,2.8301,2.8301,2.8301,2.832,2.832,2.8476,2.8879,2.8918,2.9121,2.9579,2.9618,2.9637,2.9657,2.9657,2.9657,2.9657,2.9657,2.9657,2.9657,2.9637,2.9618,2.9618,2.9618,2.9813,3.0195,3.0195,3.043,3.0898,3.0898,3.0898,3.0898,3.0898,3.0898,3.0898,3.0898,3.0898,3.0898,3.0898,3.0898,3.0898,3.0898,3.0898,3.0898,3.0898,3.0898,3.0898,3.0898,3.0898,3.0898,3.0898,3.0898,3.0898,3.0898,3.0898,3.0898,3.0898,3.0898,3.0898,3.0898,3.0898,3.0898,3.0898,3.0898,3.0898,3.0898,3.0898,3.0898,3.0898,3.0898,3.0879,0.0,0.0,0.0,2.9618,2.9579,2.9559,2.954,2.9883,3.0156,3.0195,3.0586,3.0859,3.0898,3.0898,3.0898,3.0898,3.0898,3.0587,2.9951,2.9922,2.9627,2.9035,2.9597,2.9863,2.9892,3.0528,3.0869,3.085,3.0869,3.0869,3.085,3.084,3.082,3.082,3.0811,3.0811,3.0811,3.0811,3.0811,3.0811,3.0869,3.0869,3.0762,2.8361,2.8301,2.8301,2.8301,2.8301,2.8398,2.8711,2.8769,2.8906,2.9383,2.9422,2.9598,3.0,3.0039,3.0176,3.0556,3.0576,3.0576,3.0576,3.0576,3.0576,3.0576,3.0215,3.0039,3.0039,2.9755,2.9813,3.0195,3.0195,3.043,3.0898,3.0898,3.0898,3.0898,3.0898,3.0898,3.0898,3.0898,3.0898,3.0898,3.0898,3.0898,3.0898,3.0898,3.0898,3.0898,3.0898,3.0898,3.0898,3.0898,3.0898,3.0898,3.0898,3.0898,3.0898,3.0898,3.0898,3.0898,3.0898,3.0898,3.0898,3.0898,3.0898,3.0898,3.0898,3.0898,3.0898,3.0898,3.0898,3.0898,3.0898,3.0898,3.0781,3.043,0.0,2.9598,2.9141,2.9082,2.8965,2.8652,2.8984,2.9492,3.0137,3.0312,3.0527,3.0859,3.0898,3.0898,3.0898,3.0898,3.0704,3.0274,3.0039,2.9715,2.939,2.9538,2.9597,2.9597,2.9981,3.0274,3.0509,3.0274,3.0274,3.0509,2.9991,2.9785,2.9756,2.9568,2.9498,2.9498,2.9498,2.9498,2.9568,3.0274,3.0362,3.0128,2.8354,2.8301,2.8359,2.8535,2.8574,2.8652,2.8859,2.9082,2.9355,2.9813,2.9872,3.0048,3.0449,3.0508,3.0605,3.0859,3.0898,3.0898,3.0898,3.0898,3.0898,3.0898,3.0644,3.0508,3.0508,3.0273,3.0302,3.0508,3.0508,3.0644,3.0898,3.0898,3.0898,3.0898,3.0898,3.0898,3.0898,3.0898,3.0898,3.0898,3.0898,3.0898,0.0,3.0898,3.0898,3.0898,3.0898,3.0898,3.0898,3.0898,3.0898,3.0898,3.0898,3.0898,3.0898,3.0898,3.0898,3.0898,3.0898,3.0898,3.0898,3.0898,3.0898,3.0898,3.0898,3.0898,3.0898,3.0898,3.0898,3.0898,3.0898,3.0723,3.0371,2.9746,2.9434,2.9141,2.8711,2.8652,2.8555,2.832,2.8496,2.8906,2.957,2.9805,3.0098,3.0547,3.0586,3.0684,3.0879,3.0898,3.0762,3.0421,3.0069,2.9774,2.9509,2.9509,2.9509,2.9509,2.9774,3.001,3.0157,2.9833,2.9715,2.9774,2.9224,2.9016,2.8986,2.8838,2.8856,2.8993,2.8856,2.851,2.8212,2.8897,2.9372,2.9667,2.8413,2.8379,2.8516,2.8926,2.9043,2.9054,2.9054,2.9414,2.9833,3.0234,3.0293,3.0449,3.084,3.0898,3.0898,3.0898,3.0898,3.0898,3.0898,3.0898,3.0898,3.0898,3.0898,3.0898,3.0898,3.0898,3.0898,3.0898,3.0898,3.0898,3.0898,3.0898,3.0898,3.0898,3.0898,3.0898,3.0898,3.0898,3.0898,3.0898,3.0898,3.0898,3.0898,3.0898,3.0898,3.0898,3.0898,3.0898,3.0898,3.0898,3.0898,3.0898,3.0898,3.0898,3.0898,3.0898,3.0898,3.0898,3.0898,3.0898,3.0898,3.0898,3.0898,3.0898,3.0898,3.0898,3.0898,3.0898,3.0898,3.0898,3.0898,3.0469,2.9844,2.9015,2.884,2.8711,2.834,2.8301,2.8301,2.8301,2.8301,0.0,2.8809,2.9238,2.9696,3.0078,3.0176,3.0371,3.0781,3.083,3.0704,3.0421,3.001,2.9686,2.9509,2.9361,2.9361,2.945,2.9627,2.9745,2.9833,2.946,2.9135,2.8916,2.8451,2.8241,2.8182,2.8092,2.8212,2.8469,2.8152,2.7474,2.6719,2.7069,2.7894,2.8879,2.875,2.8781,2.8945,2.9403,2.9746,2.9961,2.9961,3.0039,3.0254,3.0703,3.0762,3.0801,3.0879,3.0898,3.0898,3.0898,3.0898,3.0898,3.0898,3.0898,3.0898,3.0898,3.0898,3.0898,3.0898,3.0898,3.0898,3.0898,3.0898,3.0898,3.0898,3.0898,3.0898,3.0898,3.0898,3.0898,3.0898,3.0898,3.0898,3.0898,3.0898,3.0898,3.0898,3.0898,3.0898,3.0898,3.0898,3.0898,3.0898,3.0898,3.0898,3.0898,3.0898,3.0898,3.0898,3.0898,3.0898,3.0898,3.0898,3.0898,3.0898,3.0898,3.0898,3.0898,3.0898,3.0898,3.0898,3.0898,3.0898,3.0898,3.0898,3.0263,2.954,2.9004,2.8633,2.8379,2.8301,2.8301,2.8301,2.8301,2.8301,2.832,2.8398,2.8789,2.9219,2.9676,3.0,3.0234,3.0312,3.0432,3.045,3.0392,2.9597,2.9272,2.9509,2.8677,2.8528,2.9064,2.8845,2.9023,2.9538,2.8945,2.8618,2.851,2.7401,2.6783,2.6493,2.5914,2.5747,2.5778,2.5717,2.5441,2.5057,2.541,2.567,2.6064,2.918,2.9258,2.9394,2.9852,3.0059,3.0273,3.0527,3.0547,3.0644,3.0859,3.0898,3.0898,3.0898,3.0898,3.0898,3.0898,3.0898,3.0898,3.0898,3.0898,3.0898,3.0898,3.0898,3.0898,3.0898,3.0898,3.0898,3.0898,3.0898,3.0898,3.0898,3.0898,3.0898,3.0898,3.0898,3.0898,3.0898,3.0898,3.0898,3.0898,3.0898,3.0898,3.0898,3.0898,3.0898,3.0898,3.0898,3.0898,3.0898,3.0898,3.0898,3.0898,3.0898,3.0898,3.0898,3.0898,3.0898,3.0898,3.0898,3.0898,3.0898,3.0898,3.0898,3.0898,3.0898,3.0898,3.0898,3.0898,3.0898,3.0762,3.0322,2.9891,2.9383,2.8691,2.8418,2.8301,2.8301,2.8301,2.8301,2.8301,2.8301,2.8301,2.8301,2.8476,2.8769,2.9199,2.9414,2.9726,3.0176,3.0122,3.019,3.0372,2.9656,2.9331,2.9509,2.8856,2.8677,2.9005,2.8666,2.8666,2.8964,2.8157,2.7569,2.719,2.6236,2.5625,2.5318,2.5165,2.5011,2.4826,2.4826,2.4425,2.3852,2.4208,2.41,2.4116,2.9657,2.9735,2.9872,3.0273,3.0351,3.0469,3.084,3.0898,3.0898,3.0898,3.0898,3.0898,3.0898,3.0898,3.0898,3.0898,3.0898,3.0898,3.0898,3.0898,3.0898,3.0898,3.0898,3.0898,3.0898,3.0898,3.0898,3.0898,3.0898,3.0898,3.0898,3.0898,3.0898,3.0898,3.0898,3.0898,3.0898,3.0898,3.0898,3.0898,3.0898,3.0898,3.0898,3.0898,3.0898,3.0898,3.0898,3.0898,3.0898,3.0898,3.0898,3.0898,3.0898,3.0898,3.0898,3.0898,3.0898,3.0898,3.0898,3.0898,3.0898,3.0898,3.0898,3.0898,3.0898,3.0898,3.0898,3.0898,3.0898,3.0625,2.9755,2.9598,2.9324,2.8437,2.8301,2.8301,2.8301,2.8301,2.8301,2.8301,2.8301,2.8301,2.8301,2.8301,2.8437,2.8769,2.884,2.9191,2.9883,2.9775,2.9843,3.015,2.9512,2.9242,2.939,2.8916,2.8737,2.8904,2.8487,2.8307,2.8277,2.7405,2.6631,2.5945,2.5288,2.4672,2.4208,2.4394,2.4301,2.4069,2.4069,2.3542,2.2825,2.3168,2.2887,2.2699,3.0059,3.0137,3.0293,3.0742,3.082,3.084,3.0879,3.0898,3.0898,3.0898,3.0898,3.0898,3.0898,3.0898,3.0898,3.0898,3.0898,3.0898,3.0898,3.0898,3.0898,3.0898,3.0898,3.0898,3.0898,3.0898,3.0898,3.0898,3.0898,3.0898,3.0898,3.0898,3.0898,3.0898,3.0898,3.0898,3.0898,3.0898,3.0898,3.0898,3.0898,3.0898,3.0898,3.0898,3.0898,3.0898,3.0898,3.0898,3.0898,3.0898,3.0898,3.0898,3.0898,3.0898,3.0898,3.0898,3.0898,3.0898,3.0898,3.0898,3.0898,3.0898,3.0898,3.0898,3.0898,3.0898,3.0898,3.0898,3.0898,3.0625,2.9755,2.9598,2.9324,2.8437,2.8301,2.8301,2.8301,2.8301,2.8301,2.8301,2.8301,2.8301,2.8301,2.8301,2.832,2.834,2.8711,2.8918,2.9015,2.924,2.9364,2.9401,2.8585,2.8439,2.9035,2.8092,2.796,2.8546,2.79,2.7581,2.7581,2.6935,2.6297,2.5609,2.4949,2.3945,2.2762,2.248,2.2355,2.2324,2.2324,2.2073,2.1772,2.2104,2.2024,2.1821,3.0527,3.0605,3.0664,3.0859,3.0898,3.0898,3.0898,3.0898,3.0898,3.0898,3.0898,3.0898,3.0898,3.0898,3.0898,3.0898,3.0898,3.0898,3.0898,3.0898,3.0898,3.0898,3.0898,3.0898,3.0898,3.0898,3.0898,3.0898,3.0898,3.0898,3.0898,3.0898,3.0898,3.0898,3.0898,3.0898,3.0898,3.0898,3.0898,3.0898,3.0898,3.0898,3.0898,3.0898,3.0898,3.0898,3.0898,3.0898,3.0898,3.0898,3.0898,3.0898,3.0898,3.0898,3.0898,3.0898,3.0898,3.0898,3.0898,3.0898,3.0898,3.0898,3.0898,3.0898,3.0898,3.0898,3.0898,3.0898,3.0898,3.0625,2.9755,2.9598,2.9324,2.8437,2.8301,2.8301,2.8301,2.8301,2.8301,2.8301,2.8301,2.8301,2.8301,2.8301,2.8301,2.8301,2.8437,2.8652,2.8879,2.8842,2.8974,2.9297,2.8564,2.8353,2.8696,2.811,2.784,2.79,2.7448,2.7146,2.6918,2.6083,2.5118,2.4069,2.3604,2.2981,2.2292,2.2167,2.2104,2.2104,2.2104,2.1884,2.1614,2.1772,2.1583,2.133,3.082,3.0898,3.0898,3.0898,3.0898,3.0898,3.0898,3.0898,3.0898,3.0898,3.0898,3.0898,3.0898,3.0898,3.0898,3.0898,3.0898,3.0898,3.0898,3.0898,3.0898,3.0898,3.0898,3.0898,3.0898,3.0898,3.0898,3.0898,3.0898,3.0898,3.0898,3.0898,3.0898,3.0898,3.0898,3.0898,3.0898,3.0898,3.0898,3.0898,3.0898,3.0898,3.0898,3.0898,3.0898,3.0898,3.0898,3.0898,3.0898,3.0898,3.0898,3.0898,3.0898,3.0898,3.0898,3.0898,3.0898,3.0898,3.0898,3.0898,3.0898,3.0898,3.0898,3.0898,3.0898,3.0898,3.0898,3.0898,3.0898,3.0664,2.9931,2.9676,2.9364,2.8594,2.8379,2.8301,2.8301,2.8301,2.8301,2.8301,2.8301,2.8301,2.8301,2.8301,2.8301,2.8301,2.8247,2.831,2.8575,2.8375,2.8444,2.8964,2.8373,2.8131,2.8367,2.793,2.7569,2.722,2.6935,2.6648,2.6266,2.5257,2.4177,2.3074,2.2637,2.2261,2.1947,2.1853,2.1803,2.1803,2.1803,2.1677,2.1457,2.1457,2.1299,2.1109,3.0898,3.0898,3.0898,3.0898,3.0898,3.0898,3.0898,3.0898,3.0898,3.0898,3.0898,3.0898,3.0898,3.0898,3.0898,3.0898,3.0898,3.0898,3.0898,3.0898,3.0898,3.0898,3.0898,3.0898,3.0898,3.0898,3.0898,3.0898,3.0898,3.0898,3.0898,3.0898,3.0898,3.0898,3.0898,3.0898,3.0898,3.0898,3.0898,3.0898,3.0898,3.0898,3.0898,3.0898,3.0898,3.0898,3.0898,3.0898,3.0898,3.0898,3.0898,3.0898,3.0898,3.0898,3.0898,3.0898,3.0898,3.0898,3.0898,3.0898,3.0898,3.0898,3.0898,3.0898,3.0898,3.0898,3.0898,3.0898,3.0898,3.0742,3.0273,2.9872,2.9434,2.8957,2.8574,2.8301,2.8301,2.8301,2.8301,2.8301,2.8301,2.8301,2.8301,2.8301,2.8301,2.8301,2.804,2.7906,2.7906,2.7729,2.7781,2.8191,2.7676,2.76,2.802,2.7405,2.6952,2.6601,2.6266,2.5931,2.558,2.4579,2.3728,2.3074,2.2386,2.1915,2.1583,2.1267,2.1109,2.1109,2.1109,2.1109,2.1109,2.1109,2.1109,2.1109,3.0898,3.0898,3.0898,3.0898,3.0898,3.0898,3.0898,3.0898,3.0898,3.0898,3.0898,3.0898,3.0898,3.0898,3.0898,3.0898,3.0898,3.0898,3.0898,3.0898,3.0898,3.0898,3.0898,3.0898,3.0898,3.0898,3.0898,3.0898,3.0898,3.0898,3.0898,3.0898,3.0898,3.0898,3.0898,3.0898,3.0898,3.0898,3.0898,3.0898,3.0898,3.0898,3.0898,3.0898,3.0898,3.0898,3.0898,3.0898,3.0898,3.0898,3.0898,3.0898,3.0898,3.0898,3.0898,3.0898,3.0898,3.0898,3.0898,3.0898,3.0898,3.0898,3.0898,3.0898,3.0898,3.0898,3.0898,3.0898,3.0898,3.0742,3.0293,2.9891,2.9461,2.8984,2.8574,2.8301,2.8301,2.8301,2.8301,2.8301,2.8301,2.8301,2.8301,2.8301,2.8301,2.8301,2.7826,2.7664,2.7879,2.7609,2.7546,2.7781,2.7433,2.7251,2.7257,2.6708,2.6144,2.5564,2.5257,2.4795,2.4239,2.4131,2.3479,2.2418,2.2198,2.1772,2.1267,2.1141,2.1109,2.1109,2.1109,2.1109,2.1109,2.1109,2.1109,2.1082,3.0898,3.0898,3.0898,3.0898,3.0898,3.0898,3.0898,3.0898,3.0898,3.0898,3.0898,3.0898,3.0898,3.0898,3.0898,3.0898,3.0898,3.0898,3.0898,3.0898,3.0898,3.0898,3.0898,3.0898,3.0898,3.0898,3.0898,3.0898,3.0898,3.0898,3.0898,3.0898,3.0898,3.0898,3.0898,3.0898,3.0898,3.0898,3.0898,3.0898,3.0898,3.0898,3.0898,3.0898,3.0898,3.0898,3.0898,3.0898,3.0898,3.0898,3.0898,3.0898,3.0898,3.0898,3.0898,3.0898,3.0898,3.0898,3.0898,3.0898,3.0898,3.0898,3.0898,3.0898,3.0898,3.0898,3.0898,3.0898,3.0898,3.0801,3.0508,3.0009,2.95,2.9199,2.8672,2.8301,2.8301,2.8301,2.8301,2.8301,2.8301,2.8301,2.8301,2.8301,2.8301,2.8301,2.7853,2.7611,2.7718,2.7206,2.6957,2.7104,2.6852,2.6712,2.674,2.6174,2.5678,2.5273,2.4703,2.4053,2.3417,2.351,2.295,2.1929,2.1929,2.1614,2.1109,2.1109,2.1109,2.1109,2.1109,2.1109,2.1096,2.0989,2.0949,2.0909,3.0898,3.0898,3.0898,3.0898,3.0898,3.0898,3.0898,3.0898,3.0898,3.0898,3.0898,3.0898,3.0898,3.0898,3.0898,3.0898,3.0898,3.0898,3.0898,3.0898,3.0898,3.0898,3.0898,3.0898,3.0898,3.0898,3.0898,3.0898,3.0898,3.0898,3.0898,3.0898,3.0898,3.0898,3.0898,3.0898,3.0898,3.0898,3.0898,3.0898,3.0898,3.0898,3.0898,3.0898,3.0898,3.0898,3.0898,3.0898,3.0898,3.0898,3.0898,3.0898,3.0898,3.0898,3.0898,3.0898,3.0898,3.0898,3.0898,3.0898,3.0898,3.0898,3.0898,3.0898,3.0898,3.0898,3.0898,3.0898,3.0898,3.0898,3.0898,3.0204,2.9598,2.9598,2.8875,2.8301,2.8301,2.8301,2.8301,2.8301,2.8301,2.8301,2.8301,2.8301,2.8301,2.8301,2.804,2.7745,2.7395,2.6554,2.616,2.6267,2.5937,2.5961,2.6346,2.5761,2.5465,2.5457,2.4518,2.3697,2.3043,2.2731,2.223,2.1614,2.1614,2.1425,2.1109,2.1109,2.1109,2.1109,2.1109,2.1096,2.1042,2.0775,2.0699,2.0632,3.0898,3.0898,3.0898,3.0898,3.0898,3.0898,3.0898,3.0898,3.0898,3.0898,3.0898,3.0898,3.0898,3.0898,3.0898,3.0898,3.0898,3.0898,3.0898,3.0898,3.0898,3.0898,3.0898,3.0898,3.0898,3.0898,3.0898,3.0898,3.0898,3.0898,3.0898,3.0898,3.0898,3.0898,3.0898,3.0898,3.0898,3.0898,3.0898,3.0898,3.0898,3.0898,3.0898,3.0898,3.0898,3.0898,3.0898,3.0898,3.0898,3.0898,3.0898,3.0898,3.0898,3.0898,3.0898,3.0898,3.0898,3.0898,3.0898,3.0898,3.0898,3.0898,3.0898,3.0898,3.0898,3.0898,3.0898,3.0898,3.0898,3.0898,3.0898,3.0204,2.9598,2.9598,2.8875,2.8301,2.8301,2.8301,2.8301,2.8301,2.8301,2.8301,2.8301,2.8301,2.8301,2.8301,2.804,2.7664,2.7125,2.6445,2.6035,2.5848,2.5618,2.5304,2.4882,2.4844,2.4572,2.4069,2.3821,2.3355,2.2731,2.2637,2.223,2.1614,2.1614,2.1425,2.1109,2.1109,2.1109,2.1109,2.1109,2.0975,2.0806,2.0726,2.0535,2.0264,3.0898,3.0898,3.0898,3.0898,3.0898,3.0898,3.0898,3.0898,3.0898,3.0898,3.0898,3.0898,3.0898,3.0898,3.0898,3.0898,3.0898,3.0898,3.0898,3.0898,3.0898,3.0898,3.0898,3.0898,3.0898,3.0898,3.0898,3.0898,3.0898,3.0898,3.0898,3.0898,3.0898,3.0898,3.0898,3.0898,3.0898,3.0898,3.0898,3.0898,3.0898,3.0898,3.0898,3.0898,3.0898,3.0898,3.0898,3.0898,3.0898,3.0898,3.0898,3.0898,3.0898,3.0898,3.0898,3.0898,3.0898,3.0898,3.0898,3.0898,3.0898,3.0898,3.0898,3.0898,3.0898,3.0898,3.0898,3.0898,3.0898,3.0898,3.0898,3.0332,2.9813,2.9618,2.9023,2.8516,2.832,2.8301,2.8301,2.8301,2.8301,2.8301,2.8301,2.8301,2.8301,2.8301,2.8147,2.7879,2.7449,2.6826,2.6145,2.5321,2.4917,2.4568,2.4232,2.4302,2.4022,2.338,2.3219,2.2856,2.2355,2.2041,2.174,2.1362,2.1362,2.1186,2.0909,2.0909,2.0828,2.0677,2.0677,2.0615,2.0454,2.0321,2.0174,2.0,3.0898,3.0898,3.0898,3.0898,3.0898,3.0898,3.0898,3.0898,3.0898,3.0898,3.0898,3.0898,3.0898,3.0898,3.0898,3.0898,3.0898,3.0898,3.0898,3.0898,3.0898,3.0898,3.0898,3.0898,3.0898,3.0898,3.0898,3.0898,3.0898,3.0898,3.0898,3.0898,3.0898,3.0898,3.0898,3.0898,3.0898,3.0898,3.0898,3.0898,3.0898,3.0898,3.0898,3.0898,3.0898,3.0898,3.0898,3.0898,3.0898,3.0898,3.0898,3.0898,3.0898,3.0898,3.0898,3.0898,3.0898,3.0898,3.0898,3.0898,3.0898,3.0898,3.0898,3.0898,3.0898,3.0898,3.0898,3.0898,3.0898,3.0898,3.0898,3.0508,3.0059,2.9676,2.9199,2.8769,2.8359,2.8301,2.8301,2.8301,2.8301,2.8301,2.8301,2.8301,2.8301,2.8301,2.8301,2.8174,2.7906,2.7368,2.6445,2.5027,2.4323,2.3917,2.3802,2.3822,2.3504,2.2884,2.255,2.2213,2.1884,2.1258,2.0944,2.0944,2.0944,2.0842,2.0615,2.0615,2.0468,2.0197,2.0197,2.0184,2.0104,1.9893,1.9773,1.9693,3.0898,3.0898,3.0898,3.0898,3.0898,3.0898,3.0898,3.0898,3.0898,3.0898,3.0898,3.0898,3.0898,3.0898,3.0898,3.0898,3.0898,3.0898,3.0898,3.0898,3.0898,3.0898,3.0898,3.0898,3.0898,3.0898,3.0898,3.0898,3.0898,3.0898,3.0898,3.0898,3.0898,3.0898,3.0898,3.0898,3.0898,3.0898,3.0898,3.0898,3.0898,3.0898,3.0898,3.0898,3.0898,3.0898,3.0898,3.0898,3.0898,3.0898,3.0898,3.0898,3.0898,3.0898,3.0898,3.0898,3.0898,3.0898,3.0898,3.0898,3.0898,3.0898,3.0898,3.0898,3.0898,3.0898,3.0898,3.0898,3.0898,3.0898,3.0898,3.0508,3.0059,2.9676,2.9199,2.8769,2.8359,2.8301,2.8301,2.8301,2.8301,2.8301,2.8301,2.8301,2.8301,2.8301,2.8301,2.8174,2.7906,2.753,2.6881,2.5926,2.4868,2.3832,2.2835,2.2608,2.2305,2.1927,2.1578,2.1243,2.0909,2.0513,2.0344,2.0344,2.0344,2.0317,2.0277,2.0277,2.0237,2.0197,2.0197,2.005,1.9867,1.9813,1.9639,1.9455,3.0898,3.0898,3.0898,3.0898,3.0898,3.0898,3.0898,3.0898,3.0898,3.0898,3.0898,3.0898,3.0898,3.0898,3.0898,3.0898,3.0898,3.0898,3.0898,3.0898,3.0898,3.0898,3.0898,3.0898,3.0898,3.0898,3.0898,3.0898,3.0898,3.0898,3.0898,3.0898,3.0898,3.0898,3.0898,3.0898,3.0898,3.0898,3.0898,3.0898,3.0898,3.0898,3.0898,3.0898,3.0898,3.0898,3.0898,3.0898,3.0898,3.0898,3.0898,3.0898,3.0898,3.0898,3.0898,3.0898,3.0898,3.0898,3.0898,3.0898,3.0898,3.0898,3.0898,3.0898,3.0898,3.0898,3.0898,3.0898,3.0898,3.0898,3.0898,3.0723,3.0351,2.9715,2.9422,2.9043,2.8379,2.8301,2.8301,2.8301,2.8301,2.8301,2.8301,2.8301,2.8301,2.8301,2.8301,2.8247,2.8121,2.7826,2.7395,2.6826,2.4878,2.3368,2.233,2.2194,2.1921,2.1417,2.126,2.1013,2.0681,2.0348,2.0197,2.0197,2.0197,2.0117,1.997,1.997,1.9907,1.9773,1.9773,1.9679,1.9559,1.9559,1.9508,1.9401,3.0898,3.0898,3.0898,3.0898,3.0898,3.0898,3.0898,3.0898,3.0898,3.0898,3.0898,3.0898,3.0898,3.0898,3.0898,3.0898,3.0898,3.0898,3.0898,3.0898,3.0898,3.0898,3.0898,3.0898,3.0898,3.0898,3.0898,3.0898,3.0898,3.0898,3.0898,3.0898,3.0898,3.0898,3.0898,3.0898,3.0898,3.0898,3.0898,3.0898,3.0898,3.0898,3.0898,3.0898,3.0898,3.0898,3.0898,3.0898,3.0898,3.0898,3.0898,3.0898,3.0898,3.0898,3.0898,3.0898,3.0898,3.0898,3.0898,3.0898,3.0898,3.0898,3.0898,3.0898,3.0898,3.0898,3.0898,3.0898,3.0898,3.0898,3.0898,3.0898,3.0605,2.9735,2.9598,2.9305,2.8418,2.8301,2.8301,2.8301,2.8301,2.8301,2.8301,2.8301,2.8301,2.8301,2.8301,2.8301,2.8301,2.8094,2.7772,2.7314,2.5027,2.3372,2.2413,2.2274,2.1845,2.1205,2.1065,2.0835,2.0476,2.0147,1.9997,1.9997,1.9997,1.9907,1.9693,1.9693,1.9602,1.9401,1.9401,1.9401,1.9401,1.9401,1.9401,1.9401,3.0898,3.0898,3.0898,3.0898,3.0898,3.0898,3.0898,3.0898,3.0898,3.0898,3.0898,3.0898,3.0898,3.0898,3.0898,3.0898,3.0898,3.0898,3.0898,3.0898,3.0898,3.0898,3.0898,3.0898,3.0898,3.0898,3.0898,3.0898,3.0898,3.0898,3.0898,3.0898,3.0898,3.0898,3.0898,3.0898,3.0898,3.0898,3.0898,3.0898,3.0898,3.0898,3.0898,3.0898,3.0898,3.0898,3.0898,3.0898,3.0898,3.0898,3.0898,3.0898,3.0898,3.0898,3.0898,3.0898,3.0898,3.0898,3.0898,3.0898,3.0898,3.0898,3.0898,3.0898,3.0898,3.0898,3.0898,3.0898,3.0898,3.0898,3.0898,3.0898,3.0605,2.9735,2.9598,2.9305,2.8418,2.8301,2.8301,2.8301,2.8301,2.8301,2.8301,2.8301,2.8301,2.8301,2.8301,2.8301,2.8301,2.8301,2.7879,2.7071,2.5743,2.4501,2.3311,2.2752,2.2059,2.1189,2.0643,2.0196,1.9848,1.9571,1.9468,1.9468,1.9468,1.9441,1.9428,1.9428,1.9415,1.9401,1.9401,1.9401,1.9401,1.9401,1.9401,1.9401,3.0898,3.0898,3.0898,3.0898,3.0898,3.0898,3.0898,3.0898,3.0898,3.0898,3.0898,3.0898,3.0898,3.0898,3.0898,3.0898,3.0898,3.0898,3.0898,3.0898,3.0898,3.0898,3.0898,3.0898,3.0898,3.0898,3.0898,3.0898,3.0898,3.0898,3.0898,3.0898,3.0898,3.0898,3.0898,3.0898,3.0898,3.0898,3.0898,3.0898,3.0898,3.0898,3.0898,3.0898,3.0898,3.0898,3.0898,3.0898,3.0898,3.0898,3.0898,3.0898,3.0898,3.0898,3.084,3.0547,3.0469,3.0469,3.0469,3.0664,3.0898,3.0898,3.0898,3.0898,3.0898,3.0898,3.0898,3.0898,3.0898,3.0898,3.0898,3.0644,3.0302,2.9696,2.9383,2.8965,2.8379,2.8301,2.8301,2.8301,2.8301,2.8301,2.8301,2.8301,2.8301,2.8301,2.8301,2.8301,2.8301,2.8121,2.7718,2.7016,2.62,2.5165,2.3955,2.3356,2.251,2.146,2.0831,2.0299,1.978,1.9504,1.9401,1.9401,1.9401,1.9401,1.9401,1.9401,1.9401,1.9401,1.9401,1.9401,1.9401,1.9401,1.9401,1.9401,3.0898,3.0898,3.0898,3.0898,3.0898,3.0898,3.0898,3.0898,3.0898,3.0898,3.0898,3.0898,3.0898,3.0898,3.0898,3.0898,3.0898,3.0898,3.0898,3.0898,3.0898,3.0898,3.0898,3.0898,3.0898,3.0898,3.0898,3.0898,3.0898,3.0898,3.0898,3.0898,3.0898,3.0898,3.0898,3.0898,3.0898,3.0898,3.0898,3.0898,3.0898,3.0898,3.0898,3.0898,3.0898,3.0898,3.0898,3.0801,3.0664,3.0664,3.0586,3.0469,3.0469,3.0469,3.0439,3.0098,3.0,3.0,3.0,3.0263,3.0576,3.082,3.0898,3.0898,3.0898,3.0898,3.0859,3.0703,3.0664,3.0625,3.0537,3.0215,2.9863,2.9461,2.9121,2.8769,2.8359,2.8301,2.8301,2.8301,2.8301,2.8301,2.8301,2.8301,2.8301,2.8301,2.8301,2.8274,2.8174,2.7906,2.7422,2.6745,2.6145,2.5248,2.4039,2.3624,2.2921,2.1887,2.1088,2.0443,1.9924,1.9562,1.9401,1.9401,1.9401,1.9401,1.9401,1.9401,1.9401,1.9401,1.9401,1.9401,1.9401,1.9401,1.9401,1.9401,3.0898,3.0898,3.0898,3.0898,3.0898,3.0898,3.0898,3.0898,3.0898,3.0898,3.0898,3.0898,3.0898,3.0898,3.0898,3.0898,3.0898,3.0898,3.0898,3.0898,3.0898,3.0898,3.0898,3.0898,3.0898,3.0898,3.0898,3.0898,3.0898,3.0898,3.0898,3.0898,3.0898,3.0898,3.0898,3.0898,3.0898,3.0898,3.0898,3.0898,3.0898,3.0898,3.0898,3.0898,3.0898,3.0879,3.0879,3.0586,3.0195,3.0195,2.9922,2.9598,2.9598,2.9598,2.9598,2.9598,2.9598,2.9598,2.9598,2.9598,2.9813,3.0664,3.0879,3.0879,3.0879,3.0879,3.0762,3.0293,3.0195,3.0059,2.9676,2.9598,2.9442,2.8984,2.8898,2.8769,2.8359,2.8301,2.8301,2.8301,2.8301,2.8301,2.8301,2.8301,2.8301,2.8301,2.8301,2.8174,2.7906,2.7584,2.6989,2.6118,2.5496,2.4595,2.3424,2.3456,2.3191,2.257,2.1303,2.0544,2.027,1.9678,1.9401,1.9401,1.9401,1.9401,1.9401,1.9401,1.9401,1.9401,1.9401,1.9401,1.9401,1.9401,1.9401,1.9401,3.0898,3.0898,3.0898,3.0898,3.0898,3.0898,3.0898,3.0898,3.0898,3.0898,3.0898,3.0898,3.0898,3.0898,3.0898,3.0898,3.0898,3.0898,3.0898,3.0898,3.0898,3.0898,3.0898,3.0898,3.0898,3.0898,3.0898,3.0898,3.0898,3.0898,3.0898,3.0898,3.0898,3.0898,3.0898,3.0898,3.0898,3.0898,3.0898,3.0898,3.0898,3.0898,3.0898,3.0898,3.0684,3.041,3.041,3.0146,2.9794,2.9794,2.9696,2.9598,2.9598,2.9355,2.9121,2.9121,2.9121,2.9121,2.9121,2.9336,2.9657,2.9931,2.9989,2.9989,2.9989,2.9989,2.995,2.9813,2.9794,2.9755,2.9618,2.9316,2.9062,2.8918,2.8672,2.8437,2.832,2.8301,2.8301,2.8301,2.8301,2.8301,2.8301,2.8301,2.8301,2.8301,2.8301,2.8174,2.7906,2.7395,2.6718,2.5844,2.4834,2.3916,2.3119,2.2906,2.2397,2.1602,2.0816,2.0241,1.9924,1.9562,1.9401,1.9401,1.9401,1.9401,1.9401,1.9401,1.9401,1.9401,1.9401,1.9401,1.9401,1.9401,1.9401,1.9401,3.0898,3.0898,3.0898,3.0898,3.0898,3.0898,3.0898,3.0898,3.0898,3.0898,3.0898,3.0898,3.0898,3.0898,3.0898,3.0898,3.0898,3.0898,3.0898,3.0898,3.0898,3.0898,3.0898,3.0898,3.0898,3.0898,3.0898,3.0898,3.0898,3.0898,3.0898,3.0898,3.0898,3.0898,3.0898,3.0898,3.0898,3.0898,3.0898,3.0898,3.0898,3.0898,3.0879,3.0684,3.0449,3.0176,3.0,2.9696,2.9316,2.9316,2.9227,2.909,2.909,2.8887,2.8672,2.8672,2.8672,2.8672,2.8672,2.8867,2.909,2.909,2.9344,2.9598,2.9598,2.9598,2.9559,2.9355,2.9316,2.9258,2.9129,2.8848,2.8672,2.8672,2.8457,2.8301,2.8301,2.8301,2.8301,2.8301,2.8301,2.8301,2.8301,2.8301,2.8301,2.8301,2.8301,2.8121,2.7718,2.726,2.6554,2.5541,2.4556,2.3664,2.2809,2.2369,2.183,2.1189,2.0443,1.9982,1.978,1.9504,1.9401,1.9401,1.9401,1.9401,1.9401,1.9401,1.9401,1.9401,1.9401,1.9401,1.9401,1.9401,1.9401,1.9401,3.0898,3.0898,3.0898,3.0898,3.0898,3.0898,3.0898,3.0898,3.0898,3.0898,3.0898,3.0898,3.0898,3.0898,3.0898,3.0898,3.0898,3.0898,3.0898,3.0898,3.0898,3.0898,3.0898,3.0898,3.0898,3.0898,3.0898,3.0898,3.0898,3.0898,3.0898,3.0898,3.0898,3.0898,3.0898,3.0898,3.0898,3.0898,3.0898,3.0898,3.0898,3.0859,3.0781,3.0351,3.0156,3.0039,2.9676,2.9238,2.8867,2.8867,2.8613,2.8301,2.8301,2.8301,2.8301,2.8301,2.8301,2.8301,2.8301,2.8301,2.8301,2.8301,2.8914,2.9481,2.9481,2.9481,2.9364,2.8918,2.8867,2.8723,2.8359,2.8301,2.8301,2.8301,2.8301,2.8301,2.8301,2.8301,2.8301,2.8301,2.8301,2.8301,2.8301,2.8301,2.8301,2.8301,2.8301,2.806,2.7476,2.7179,2.65,2.5303,2.4667,2.3776,2.2582,2.1943,2.1431,2.1117,2.0226,1.9793,1.9764,1.9504,1.9401,1.9401,1.9401,1.9401,1.9401,1.9401,1.9401,1.9401,1.9401,1.9401,1.9401,1.9401,1.9401,1.9401,3.0898,3.0898,3.0898,3.0898,3.0898,3.0898,3.0898,3.0898,3.0898,3.0898,3.0898,3.0898,3.0898,3.0898,3.0898,3.0898,3.0898,3.0898,3.0898,3.0898,3.0898,3.0898,3.0898,3.0898,3.0898,3.0898,3.0898,3.0898,3.0898,3.0898,3.0898,3.0898,3.0898,3.0898,3.0898,3.0898,3.0898,3.0898,3.0898,3.0898,3.0898,3.0664,3.0332,3.0234,2.9785,2.9152,2.9074,2.8789,2.8437,2.8437,2.8359,2.8301,2.8301,2.8301,2.8301,2.8301,2.8301,2.8301,2.8301,2.8301,2.8301,2.8301,2.8437,2.8574,2.8574,2.8574,2.8535,2.8437,2.8437,2.8398,2.832,2.8301,2.8301,2.8301,2.8301,2.8301,2.8301,2.8301,2.8301,2.8301,2.8301,2.8301,2.8301,2.8301,2.8301,2.8301,2.8301,2.8147,2.7799,2.7476,2.6881,2.5926,2.511,2.4195,2.3203,2.2142,2.1231,2.0472,2.0011,1.9678,1.9475,1.943,1.9401,1.9401,1.9401,1.9401,1.9401,1.9401,1.9401,1.9401,1.9401,1.9401,1.9401,1.9401,1.9401,1.9401,3.0898,3.0898,3.0898,3.0898,3.0898,3.0898,3.0898,3.0898,3.0898,3.0898,3.0898,3.0898,3.0898,3.0898,3.0898,3.0898,3.0898,3.0898,3.0898,3.0898,3.0898,3.0898,3.0898,3.0898,3.0898,3.0898,3.0898,3.0898,3.0898,3.0898,3.0898,3.0898,3.0898,3.0898,3.0898,3.0898,3.0898,3.0898,3.0898,3.0898,3.0898,3.0605,3.0176,3.0009,2.9492,2.8859,2.8691,2.8476,2.8301,2.8301,2.8301,2.8301,2.8301,2.8301,2.8301,2.8301,2.8301,2.8301,2.8301,2.8301,2.8301,2.8301,2.8301,2.8301,2.8301,2.8301,2.8301,2.8301,2.8301,2.8301,2.8301,2.8301,2.8301,2.8301,2.8301,2.8301,2.8301,2.8301,2.8301,2.8301,2.8301,2.8301,2.8301,2.8301,2.8301,2.8301,2.8301,2.8174,2.7906,2.7718,2.7233,2.6364,2.5734,2.4851,2.3636,2.2736,2.1659,2.05,2.0011,1.9649,1.9401,1.9401,1.9401,1.9401,1.9401,1.9401,1.9401,1.9401,1.9401,1.9401,1.9401,1.9401,1.9401,1.9401,1.9308,1.9158,3.0898,3.0898,3.0898,3.0898,3.0898,3.0898,3.0898,3.0898,3.0898,3.0898,3.0898,3.0898,3.0898,3.0898,3.0898,3.0898,3.0898,3.0898,3.0898,3.0898,3.0898,3.0898,3.0898,3.0898,3.0898,3.0898,3.0898,3.0898,3.0898,3.0898,3.0898,3.0898,3.0898,3.0898,3.0898,3.0898,3.0898,3.0898,3.0898,3.0879,3.0801,3.0508,3.0039,2.9657,2.918,2.8742,2.8418,2.8301,2.8301,2.8301,2.8301,2.8301,2.8301,2.8301,2.8301,2.8301,2.8301,2.8301,2.8301,2.8301,2.8301,2.8301,2.8301,2.8301,2.8301,2.8301,2.8301,2.8301,2.8301,2.8301,2.8301,2.8301,2.8301,2.8301,2.8301,2.8301,2.8301,2.8301,2.8301,2.8301,2.8301,2.8301,2.8301,2.8301,2.8301,2.8301,2.8301,2.8201,2.7987,2.796,2.7584,2.6772,2.6391,2.5514,2.4083,2.3344,2.2271,2.0859,2.0213,1.9707,1.9401,1.9401,1.9401,1.9401,1.9401,1.9401,1.9401,1.9401,1.9401,1.9401,1.9401,1.9361,1.9321,1.9267,1.9065,1.8823,3.0898,3.0898,3.0898,3.0898,3.0898,3.0898,3.0898,3.0898,3.0898,3.0898,3.0898,3.0898,3.0898,3.0898,3.0898,3.0898,3.0898,3.0898,3.0898,3.0898,3.0898,3.0898,3.0898,3.0898,3.0898,3.0898,3.0898,3.0898,3.0898,3.0898,3.0898,3.0898,3.0898,3.0898,3.0898,3.0898,3.0898,3.0898,3.0898,3.0859,3.0449,3.0039,2.9637,2.918,2.875,2.8379,2.832,2.8301,2.8301,2.8301,2.8301,2.8301,2.8301,2.8301,2.8301,2.8301,2.8301,2.8301,2.8301,2.8301,2.8301,2.8301,2.8301,2.8301,2.8301,2.8301,2.8301,2.8301,2.8301,2.8301,2.8301,2.8301,2.8301,2.8301,2.8301,2.8301,2.8301,2.8301,2.8301,2.8301,2.8301,2.8301,2.8301,2.8301,2.8301,2.8301,2.8301,2.8301,2.8247,2.8247,2.7933,2.7314,2.6799,2.5935,2.4695,2.3568,2.2469,2.1474,2.0615,1.9938,1.9401,1.9401,1.9401,1.9401,1.9401,1.9401,1.9401,1.9401,1.9401,1.9401,1.9401,1.9212,1.8958,1.8704,1.8584,1.8544,3.0898,3.0898,3.0898,3.0898,3.0898,3.0898,3.0898,3.0898,3.0898,3.0898,3.0898,3.0898,3.0898,3.0898,3.0898,3.0898,3.0898,3.0898,3.0898,3.0898,3.0898,3.0898,3.0898,3.0898,3.0898,3.0898,3.0898,3.0898,3.0898,3.0898,3.0898,3.0898,3.0898,3.0898,3.0898,3.0898,3.0898,3.0898,3.0898,3.0859,3.0391,2.9941,2.9559,2.9082,2.8652,2.8301,2.8301,2.8301,2.8301,2.8301,2.8301,2.8301,2.8301,2.8301,2.8301,2.8301,2.8301,2.8301,2.8301,2.8301,2.8301,2.8301,2.8301,2.8301,2.8301,2.8301,2.8301,2.8301,2.8301,2.8301,2.8301,2.8301,2.8301,2.8301,2.8301,2.8301,2.8301,2.8301,2.8301,2.8301,2.8301,2.8301,2.8301,2.8301,2.8301,2.8301,2.8301,2.8301,2.8301,2.8301,2.8014,2.7422,2.7016,2.6154,2.4806,2.3944,2.2849,2.1574,2.0859,2.0213,1.962,1.9488,1.9401,1.9388,1.9185,1.9118,1.9105,1.8973,1.8906,1.8906,1.8906,1.8798,1.8664,1.8544,1.8384,1.8209]},{"header":{"parameterUnit":"m.s-1","parameterCategory":1,"la1":30.6,"la2":28.766,"lo1":-90.7593,"lo2":-88.6598,"dy":0.0162,"dx":0.0183,"nx":116,"ny":114,"refTime":"2023-09-25T00:00:00:Z","depth":0,"parameterNumber":3,"parameterNumberName":"V-component_of_WINDS"},"data":[0.0,0.0,0.0,0.0,0.0,0.0,0.0,0.0,0.0,0.0,0.0,0.0,0.0,0.0,0.0,0.0,0.0,0.0,0.0,0.0,0.0,0.0,0.0,0.0,0.0,0.0,0.0,0.0,0.0,0.0,0.0,0.0,0.0,0.0,0.0,0.0,0.0,0.0,0.0,0.0,0.0,0.0,0.0,0.0,0.0,0.0,0.0,0.0,0.0,0.0,0.0,0.0,0.0,0.0,0.0,0.0,0.0,0.0,0.0,0.0,0.0,0.0,0.0,0.0,0.0,0.0,0.0,0.0,0.0,0.0,0.0,0.0,0.0,0.0,0.0,0.0,0.0,0.0,0.0,0.0,0.0,0.0,0.0,0.0,0.0,0.0,0.0,0.0,0.0,0.0,0.0,0.0,0.0,0.0,0.0,0.0,0.0,0.0,0.0,0.0,0.0,0.0,0.0,0.0,0.0,0.0,0.0,0.0,0.0,0.0,0.0,0.0,0.0,0.0,0.0,0.0,0.0,0.0,0.0,0.0,0.0,0.0,0.0,0.0,0.0,0.0,0.0,0.0,0.0,0.0,0.0,0.0,0.0,0.0,0.0,0.0,0.0,0.0,0.0,0.0,0.0,0.0,0.0,0.0,0.0,0.0,0.0,0.0,0.0,0.0,0.0,0.0,0.0,0.0,0.0,0.0,0.0,0.0,0.0,0.0,0.0,0.0,0.0,0.0,0.0,0.0,0.0,0.0,0.0,0.0,0.0,0.0,0.0,0.0,0.0,0.0,0.0,0.0,0.0,0.0,0.0,0.0,0.0,0.0,0.0,0.0,0.0,0.0,0.0,0.0,0.0,0.0,0.0,0.0,0.0,0.0,0.0,0.0,0.0,0.0,0.0,0.0,0.0,0.0,0.0,0.0,0.0,0.0,0.0,0.0,0.0,0.0,0.0,0.0,0.0,0.0,0.0,0.0,0.0,0.0,0.0,0.0,0.0,0.0,0.0,0.0,0.0,0.0,0.0,0.0,0.0,0.0,0.0,0.0,0.0,0.0,0.0,0.0,0.0,0.0,0.0,0.0,0.0,0.0,0.0,0.0,0.0,0.0,0.0,0.0,0.0,0.0,0.0,0.0,0.0,0.0,0.0,0.0,0.0,0.0,0.0,0.0,0.0,0.0,0.0,0.0,0.0,0.0,0.0,0.0,0.0,0.0,0.0,0.0,0.0,0.0,0.0,0.0,0.0,0.0,0.0,0.0,0.0,0.0,0.0,0.0,0.0,0.0,0.0,0.0,0.0,0.0,0.0,0.0,0.0,0.0,0.0,0.0,0.0,0.0,0.0,0.0,0.0,0.0,0.0,0.0,0.0,0.0,0.0,0.0,0.0,0.0,0.0,0.0,0.0,0.0,0.0,0.0,0.0,0.0,0.0,0.0,0.0,0.0,0.0,0.0,0.0,0.0,0.0,0.0,0.0,0.0,0.0,0.0,0.0,0.0,0.0,0.0,0.0,0.0,0.0,0.0,0.0,0.0,0.0,0.0,0.0,0.0,0.0,0.0,0.0,0.0,0.0,0.0,0.0,0.0,0.0,0.0,0.0,0.0,0.0,0.0,0.0,0.0,0.0,0.0,0.0,0.0,0.0,0.0,0.0,0.0,0.0,0.0,0.0,0.0,0.0,0.0,0.0,0.0,0.0,0.0,0.0,0.0,0.0,0.0,0.0,0.0,0.0,0.0,0.0,0.0,0.0,0.0,0.0,0.0,0.0,0.0,0.0,0.0,0.0,0.0,0.0,0.0,0.0,0.0,0.0,0.0,0.0,0.0,0.0,0.0,0.0,0.0,0.0,0.0,0.0,0.0,0.0,0.0,0.0,0.0,0.0,0.0,0.0,0.0,0.0,0.0,0.0,0.0,0.0,0.0,0.0,0.0,0.0,0.0,0.0,0.0,0.0,0.0,0.0,0.0,0.0,0.0,0.0,0.0,0.0,0.0,0.0,0.0,0.0,0.0,0.0,0.0,0.0,0.0,0.0,0.0,0.0,0.0,0.0,0.0,0.0,0.0,0.0,0.0,0.0,0.0,0.0,0.0,0.0,0.0,0.0,0.0,0.0,0.0,0.0,0.0,0.0,0.0,0.0,0.0,0.0,0.0,0.0,0.0,0.0,0.0,0.0,0.0,0.0,0.0,0.0,0.0,0.0,0.0,0.0,0.0,0.0,0.0,0.0,0.0,0.0,0.0,0.0,0.0,0.0,0.0,0.0,0.0,0.0,0.0,0.0,0.0,0.0,0.0,0.0,0.0,0.0,0.0,0.0,0.0,0.0,0.0,0.0,0.0,0.0,0.0,0.0,0.0,0.0,0.0,0.0,0.0,0.0,0.0,0.0,0.0,0.0,0.0,0.0,0.0,0.0,0.0,0.0,0.0,0.0,0.0,0.0,0.0,0.0,0.0,0.0,0.0,0.0,0.0,0.0,0.0,0.0,0.0,0.0,0.0,0.0,0.0,0.0,0.0,0.0,0.0,0.0,0.0,0.0,0.0,0.0,0.0,0.0,0.0,0.0,0.0,0.0,0.0,0.0,0.0,0.0,0.0,0.0,0.0,0.0,0.0,0.0,0.0,0.0,0.0,0.0,0.0,0.0,0.0,0.0,0.0,0.0,0.0,0.0,0.0,0.0,0.0,0.0,0.0,0.0,0.0,0.0,0.0,0.0,0.0,0.0,0.0,0.0,0.0,0.0,0.0,0.0,0.0,0.0,0.0,0.0,0.0,0.0,0.0,0.0,0.0,0.0,0.0,0.0,0.0,0.0,0.0,0.0,0.0,0.0,0.0,0.0,0.0,0.0,0.0,0.0,0.0,0.0,0.0,0.0,0.0,0.0,0.0,0.0,0.0,0.0,0.0,0.0,0.0,0.0,0.0,0.0,0.0,0.0,0.0,0.0,0.0,0.0,0.0,0.0,0.0,0.0,0.0,0.0,0.0,0.0,0.0,0.0,0.0,0.0,0.0,0.0,0.0,0.0,0.0,0.0,0.0,0.0,0.0,0.0,0.0,0.0,0.0,0.0,0.0,0.0,0.0,0.0,0.0,0.0,0.0,0.0,0.0,0.0,0.0,0.0,0.0,0.0,0.0,0.0,0.0,0.0,0.0,0.0,0.0,0.0,0.0,0.0,0.0,0.0,0.0,0.0,0.0,0.0,0.0,0.0,0.0,0.0,0.0,0.0,0.0,0.0,0.0,0.0,0.0,0.0,0.0,0.0,0.0,0.0,0.0,0.0,0.0,0.0,0.0,0.0,0.0,0.0,0.0,0.0,0.0,0.0,0.0,0.0,0.0,0.0,0.0,0.0,0.0,0.0,0.0,0.0,0.0,0.0,0.0,0.0,0.0,0.0,0.0,0.0,0.0,0.0,0.0,0.0,0.0,0.0,0.0,0.0,0.0,0.0,0.0,0.0,0.0,0.0,0.0,0.0,0.0,0.0,0.0,0.0,0.0,0.0,0.0,0.0,0.0,0.0,0.0,0.0,0.0,0.0,0.0,0.0,0.0,0.0,0.0,0.0,0.0,0.0,0.0,0.0,0.0,0.0,0.0,0.0,0.0,0.0,0.0,0.0,0.0,0.0,0.0,0.0,0.0,0.0,0.0,0.0,0.0,0.0,0.0,0.0,0.0,0.0,0.0,0.0,0.0,0.0,0.0,0.0,0.0,0.0,0.0,0.0,0.0,0.0,0.0,0.0,0.0,0.0,0.0,0.0,0.0,0.0,0.0,0.0,0.0,0.0,0.0,0.0,0.0,0.0,0.0,0.0,0.0,0.0,0.0,0.0,0.0,0.0,0.0,0.0,0.0,0.0,0.0,0.0,0.0,0.0,0.0,0.0,0.0,0.0,0.0,0.0,0.0,0.0,0.0,0.0,0.0,0.0,0.0,0.0,0.0,0.0,0.0,0.0,0.0,0.0,0.0,0.0,0.0,0.0,0.0,0.0,0.0,0.0,0.0,0.0,0.0,0.0,0.0,0.0,0.0,0.0,0.0,0.0,0.0,0.0,0.0,0.0,0.0,0.0,0.0,0.0,0.0,0.0,0.0,0.0,0.0,0.0,0.0,0.0,0.0,0.0,0.0,0.0,0.0,0.0,0.0,0.0,0.0,0.0,0.0,0.0,0.0,0.0,0.0,0.0,0.0,0.0,0.0,0.0,0.0,0.0,0.0,0.0,0.0,0.0,0.0,0.0,0.0,0.0,0.0,0.0,0.0,0.0,0.0,0.0,0.0,0.0,0.0,0.0,0.0,0.0,0.0,0.0,0.0,0.0,0.0,0.0,0.0,0.0,0.0,0.0,0.0,0.0,0.0,0.0,0.0,0.0,0.0,0.0,0.0,0.0,0.0,0.0,0.0,0.0,0.0,0.0,0.0,0.0,0.0,0.0,0.0,0.0,0.0,0.0,0.0,0.0,0.0,0.0,0.0,0.0,0.0,0.0,0.0,0.0,0.0,0.0,0.0,0.0,0.0,0.0,0.0,0.0,0.0,0.0,0.0,0.0,0.0,0.0,0.0,0.0,0.0,0.0,0.0,0.0,0.0,0.0,0.0,0.0,0.0,0.0,0.0,0.0,0.0,0.0,0.0,0.0,0.0,0.0,0.0,0.0,0.0,0.0,0.0,0.0,0.0,0.0,0.0,0.0,0.0,0.0,0.0,0.0,0.0,0.0,0.0,0.0,0.0,0.0,0.0,0.0,0.0,0.0,0.0,0.0,0.0,0.0,0.0,0.0,0.0,0.0,0.0,0.0,0.0,0.0,0.0,0.0,0.0,0.0,0.0,0.0,0.0,0.0,0.0,0.0,0.0,0.0,0.0,0.0,0.0,0.0,0.0,0.0,0.0,0.0,0.0,0.0,0.0,0.0,0.0,0.0,0.0,0.0,0.0,0.0,0.0,0.0,0.0,0.0,0.0,0.0,0.0,0.0,0.0,0.0,0.0,0.0,0.0,0.0,0.0,0.0,0.0,0.0,0.0,0.0,0.0,0.0,0.0,0.0,0.0,0.0,0.0,0.0,0.0,0.0,0.0,0.0,0.0,0.0,0.0,0.0,0.0,0.0,0.0,0.0,0.0,0.0,0.0,0.0,0.0,0.0,0.0,0.0,0.0,0.0,0.0,0.0,0.0,0.0,0.0,0.0,0.0,0.0,0.0,0.0,0.0,0.0,0.0,0.0,0.0,0.0,0.0,0.0,0.0,0.0,0.0,0.0,0.0,0.0,0.0,0.0,0.0,0.0,0.0,0.0,0.0,0.0,0.0,0.0,0.0,0.0,0.0,0.0,0.0,0.0,0.0,0.0,0.0,0.0,0.0,0.0,0.0,0.0,0.0,0.0,0.0,0.0,0.0,0.0,0.0,0.0,0.0,0.0,0.0,0.0,0.0,0.0,0.0,0.0,0.0,0.0,0.0,0.0,0.0,0.0,0.0,0.0,0.0,0.0,0.0,0.0,0.0,0.0,0.0,0.0,0.0,0.0,0.0,0.0,0.0,0.0,0.0,0.0,0.0,0.0,0.0,0.0,0.0,0.0,0.0,0.0,0.0,0.0,0.0,0.0,0.0,0.0,0.0,0.0,0.0,0.0,0.0,0.0,0.0,0.0,0.0,0.0,0.0,0.0,0.0,0.0,0.0,0.0,0.0,0.0,0.0,0.0,0.0,0.0,0.0,0.0,0.0,0.0,0.0,0.0,0.0,0.0,0.0,0.0,0.0,0.0,0.0,0.0,0.0,0.0,0.0,0.0,0.0,0.0,0.0,0.0,0.0,0.0,0.0,0.0,0.0,0.0,0.0,0.0,0.0,0.0,0.0,0.0,0.0,0.0,0.0,0.0,0.0,0.0,0.0,0.0,0.0,0.0,0.0,0.0,0.0,0.0,0.0,0.0,0.0,0.0,0.0,0.0,0.0,0.0,0.0,0.0,0.0,0.0,0.0,0.0,0.0,0.0,0.0,0.0,0.0,0.0,0.0,0.0,0.0,0.0,0.0,0.0,0.0,0.0,0.0,0.0,0.0,0.0,0.0,0.0,0.0,0.0,0.0,0.0,0.0,0.0,0.0,0.0,0.0,0.0,0.0,4.7293,4.68,0.0,0.0,0.0,0.0,0.0,0.0,0.0,0.0,0.0,0.0,0.0,0.0,0.0,0.0,0.0,0.0,0.0,0.0,0.0,0.0,0.0,0.0,0.0,0.0,0.0,0.0,0.0,0.0,0.0,0.0,0.0,0.0,0.0,0.0,0.0,0.0,0.0,0.0,4.0113,4.0113,4.0113,4.0113,4.0113,4.0113,0.0,0.0,0.0,0.0,0.0,0.0,0.0,0.0,0.0,0.0,0.0,0.0,0.0,0.0,0.0,0.0,0.0,0.0,0.0,0.0,0.0,0.0,0.0,0.0,0.0,0.0,0.0,0.0,0.0,0.0,0.0,0.0,0.0,0.0,0.0,0.0,0.0,0.0,0.0,0.0,0.0,0.0,0.0,0.0,0.0,0.0,0.0,0.0,0.0,0.0,0.0,0.0,0.0,0.0,0.0,0.0,0.0,0.0,0.0,0.0,0.0,0.0,0.0,0.0,0.0,0.0,0.0,0.0,0.0,0.0,4.8173,4.7868,0.0,0.0,0.0,0.0,0.0,0.0,0.0,0.0,0.0,0.0,0.0,0.0,0.0,0.0,0.0,0.0,0.0,0.0,0.0,0.0,0.0,0.0,0.0,4.0113,4.0113,4.0113,4.0113,4.0113,0.0,0.0,0.0,0.0,0.0,0.0,0.0,4.0113,4.0113,4.0113,4.0113,4.0113,4.0113,4.0113,4.0113,4.0113,4.0113,0.0,0.0,0.0,0.0,0.0,0.0,0.0,0.0,0.0,0.0,0.0,0.0,0.0,0.0,0.0,0.0,0.0,0.0,0.0,0.0,0.0,0.0,0.0,0.0,0.0,0.0,0.0,0.0,0.0,0.0,0.0,0.0,0.0,0.0,0.0,0.0,0.0,0.0,0.0,0.0,0.0,0.0,0.0,0.0,0.0,0.0,0.0,0.0,0.0,0.0,0.0,0.0,0.0,0.0,0.0,0.0,0.0,0.0,0.0,0.0,0.0,0.0,0.0,4.809,4.8394,4.9018,4.9018,4.9018,4.9018,4.9154,4.912,4.9018,4.9018,0.0,0.0,0.0,0.0,0.0,0.0,0.0,0.0,0.0,0.0,0.0,0.0,0.0,0.0,0.0,0.0,0.0,0.0,0.0,0.0,0.0,4.0113,4.0113,4.0113,4.0113,4.0113,4.0113,0.0,0.0,0.0,0.0,0.0,4.0113,4.0113,4.0113,4.0113,4.0113,4.0113,4.0113,4.0113,4.0113,4.0113,4.0113,4.0113,4.0113,0.0,0.0,0.0,0.0,0.0,0.0,0.0,0.0,0.0,0.0,0.0,0.0,0.0,0.0,0.0,0.0,0.0,0.0,0.0,0.0,0.0,0.0,0.0,0.0,0.0,0.0,0.0,0.0,0.0,0.0,0.0,0.0,0.0,0.0,0.0,0.0,0.0,0.0,0.0,0.0,0.0,4.5805,4.6413,0.0,0.0,0.0,0.0,0.0,0.0,0.0,0.0,0.0,0.0,0.0,0.0,0.0,4.8056,4.8714,4.8714,4.8748,4.8849,4.8849,4.8917,4.9018,4.9018,4.9018,4.9052,4.9661,0.0,4.9018,4.9018,0.0,0.0,0.0,0.0,0.0,0.0,0.0,0.0,0.0,0.0,0.0,0.0,0.0,0.0,0.0,0.0,0.0,0.0,0.0,0.0,0.0,4.0113,4.0113,4.0113,4.0113,4.0113,4.0113,4.0113,0.0,0.0,0.0,4.0113,4.0113,4.0113,4.0113,4.0113,4.0113,4.0113,4.0113,4.0113,4.0113,4.0113,4.0113,4.0113,4.0113,4.0113,0.0,0.0,0.0,0.0,0.0,0.0,0.0,0.0,0.0,0.0,0.0,0.0,0.0,0.0,0.0,0.0,0.0,0.0,0.0,0.0,0.0,0.0,0.0,0.0,0.0,0.0,0.0,0.0,0.0,0.0,0.0,0.0,0.0,0.0,0.0,0.0,0.0,0.0,0.0,4.6109,4.6447,4.6752,4.68,4.68,0.0,0.0,0.0,0.0,0.0,0.0,0.0,0.0,0.0,4.8496,4.8529,4.8665,4.9018,4.9018,4.9018,4.9018,4.9424,4.9627,4.9627,5.0067,5.022,5.0254,5.0574,5.0541,5.022,5.022,5.022,5.022,0.0,0.0,0.0,0.0,5.071,5.0777,0.0,0.0,0.0,0.0,0.0,0.0,0.0,0.0,0.0,0.0,0.0,0.0,4.0113,4.0113,4.0113,4.0113,4.0113,4.0113,4.0113,4.0113,4.0113,4.0113,4.0113,4.0113,4.0113,4.0113,4.0113,4.0113,4.0113,4.0113,4.0113,4.0269,4.0371,4.0371,4.0574,4.0438,4.0113,4.0113,4.0113,4.0113,0.0,0.0,0.0,0.0,0.0,0.0,0.0,0.0,0.0,0.0,0.0,0.0,0.0,0.0,0.0,0.0,0.0,0.0,0.0,0.0,0.0,0.0,0.0,0.0,0.0,0.0,0.0,0.0,0.0,0.0,0.0,0.0,0.0,0.0,0.0,0.0,0.0,4.709,4.7158,4.7327,4.7361,4.7361,0.0,0.0,0.0,0.0,0.0,0.0,4.9018,4.9187,4.9289,4.9289,4.9458,4.956,4.956,4.956,4.956,4.9578,5.0135,5.0371,5.0405,5.093,5.1201,5.1201,5.1404,5.1472,5.1472,5.1269,5.1201,5.1201,5.1201,5.1201,5.1235,5.1404,5.1472,5.1505,0.0,0.0,0.0,0.0,0.0,0.0,0.0,0.0,0.0,0.0,0.0,4.0113,4.0113,4.0113,4.0113,4.0113,4.0113,4.0113,4.0113,4.0113,4.0113,4.0113,4.0113,4.0113,4.0113,4.0113,4.0113,4.0113,4.0113,4.0113,4.0113,4.0832,4.1136,4.117,4.1894,4.142,4.0113,4.0113,4.0113,4.0113,4.0113,0.0,0.0,0.0,0.0,0.0,0.0,0.0,0.0,0.0,0.0,0.0,0.0,0.0,0.0,0.0,0.0,0.0,0.0,0.0,0.0,0.0,0.0,0.0,0.0,0.0,0.0,0.0,0.0,0.0,0.0,0.0,0.0,0.0,0.0,0.0,0.0,0.0,0.0,4.8815,4.8883,0.0,0.0,0.0,0.0,4.8951,4.8984,4.9018,4.9018,4.9661,5.0049,5.0049,5.0744,5.11,5.11,5.11,5.11,5.11,5.1133,5.1133,5.1167,5.1167,5.1201,5.1235,5.1961,5.2232,5.2198,5.1472,5.1201,5.1201,5.1201,5.1201,5.1269,5.1995,5.2232,5.2367,0.0,0.0,0.0,0.0,0.0,0.0,0.0,0.0,4.0113,4.0113,4.0113,4.0113,4.0113,4.0113,4.0113,4.0113,4.0113,4.0113,4.0113,4.0113,4.0113,4.0113,4.0113,4.0303,4.0811,4.1284,4.1521,4.1521,4.1521,4.1521,4.1521,4.1779,4.1914,4.1914,4.2185,4.2029,4.1521,4.1521,4.1521,4.1521,4.1521,4.1521,0.0,0.0,0.0,0.0,0.0,0.0,0.0,0.0,0.0,0.0,0.0,0.0,0.0,0.0,0.0,0.0,0.0,0.0,0.0,0.0,0.0,0.0,0.0,0.0,0.0,0.0,0.0,0.0,0.0,0.0,0.0,0.0,0.0,0.0,0.0,0.0,0.0,4.8984,4.9018,0.0,4.9018,4.9424,4.9695,4.9695,5.0168,5.0423,5.0423,5.0676,5.0811,5.0811,5.1066,5.1201,5.1201,5.1201,5.1201,5.1201,5.1674,5.1911,5.1928,5.2418,5.2689,5.2689,5.2976,5.3078,5.3044,5.279,5.2689,5.2689,5.2689,5.2689,5.2706,5.2976,5.3078,5.3112,0.0,0.0,0.0,0.0,0.0,0.0,0.0,0.0,4.0113,4.0113,4.0113,4.0113,4.0113,4.0113,4.0113,4.0113,4.0113,4.0113,4.0113,4.0337,4.0472,4.0472,4.0709,4.1081,4.1576,4.2063,4.23,4.23,4.23,4.23,4.23,4.2557,4.2658,4.2692,4.2943,4.3078,4.3078,4.3078,4.2773,4.23,4.23,4.23,4.23,0.0,0.0,0.0,0.0,0.0,0.0,0.0,0.0,0.0,0.0,0.0,0.0,0.0,0.0,0.0,0.0,0.0,0.0,0.0,0.0,0.0,0.0,0.0,0.0,0.0,0.0,0.0,0.0,0.0,0.0,0.0,0.0,0.0,0.0,4.9018,4.9086,4.9357,4.9357,4.9458,4.9729,5.0168,5.0473,5.0473,5.0897,5.1201,5.1201,5.1438,5.1573,5.1573,5.1844,5.1979,5.1979,5.1979,5.1979,5.1979,5.2469,5.2706,5.2739,5.3281,5.3518,5.3518,5.3518,5.3653,5.3856,5.3856,5.4025,5.4177,5.3687,5.3518,5.3518,5.3518,5.3518,5.3518,0.0,0.0,0.0,0.0,0.0,0.0,0.0,4.0113,4.0113,4.0113,4.0113,4.0113,4.0113,4.0113,4.0113,4.0113,4.0113,4.0113,4.0146,4.0798,4.1191,4.1225,4.1948,4.2333,4.2333,4.2367,4.2367,4.2367,4.2367,4.2367,4.2401,4.3085,4.3457,4.349,4.4262,4.4615,4.4615,4.4615,4.3721,4.2367,4.2367,4.2367,4.2367,0.0,0.0,0.0,0.0,0.0,0.0,0.0,0.0,0.0,0.0,0.0,0.0,0.0,0.0,0.0,0.0,0.0,0.0,0.0,0.0,0.0,0.0,0.0,0.0,0.0,0.0,0.0,0.0,0.0,0.0,0.0,0.0,0.0,4.9052,4.9052,4.9323,5.0049,5.015,5.0405,5.1133,5.1235,5.1235,5.1235,5.1269,5.1269,5.1269,5.1961,5.2367,5.2367,5.3145,5.3585,5.3585,5.3585,5.3585,5.3585,5.3585,5.3585,5.3585,5.3585,5.3585,5.3585,5.3585,5.3957,5.4651,5.4651,5.5074,5.5564,5.4126,5.3585,5.3585,5.3585,5.3585,5.3585,0.0,0.0,0.0,0.0,0.0,0.0,0.0,4.0113,4.0113,4.0113,4.0113,4.0113,4.0113,4.0113,4.0113,4.0113,4.0113,4.035,4.0865,4.1102,4.1441,4.1982,4.2679,4.3085,4.3085,4.3687,4.3958,4.3958,4.3958,4.3958,4.3958,4.4161,4.4262,4.4296,4.4499,4.4615,4.4615,4.4615,4.4378,4.3958,4.3958,4.3958,4.3958,0.0,0.0,0.0,0.0,0.0,0.0,0.0,0.0,0.0,0.0,0.0,0.0,0.0,0.0,0.0,0.0,0.0,0.0,0.0,0.0,0.0,0.0,0.0,0.0,0.0,0.0,0.0,0.0,0.0,0.0,0.0,4.9796,4.9796,4.9796,4.9796,5.0067,5.0811,5.0897,5.0964,5.1167,5.1674,5.1995,5.1995,5.2536,5.2875,5.2875,5.3551,5.3957,5.3957,5.4702,5.509,5.509,5.509,5.509,5.509,5.509,5.509,5.509,5.509,5.509,5.509,5.509,5.5192,5.5395,5.5395,5.553,5.5665,5.5259,5.509,5.509,5.509,5.509,5.509,0.0,0.0,0.0,0.0,0.0,0.0,0.0,4.0113,4.0113,4.0113,4.0113,4.0113,4.0113,4.0113,4.0113,4.0113,4.0371,4.073,4.117,4.1766,4.2455,4.3247,4.3673,4.391,4.391,4.4364,4.4615,4.4615,4.4615,4.4615,4.4615,4.4615,4.4615,4.4615,4.4615,4.4615,4.4615,4.4615,4.4615,4.4615,4.4615,4.4615,4.4615,4.4615,4.4615,4.4615,4.4615,4.4615,4.4615,4.4615,0.0,0.0,0.0,0.0,0.0,0.0,0.0,0.0,0.0,0.0,0.0,0.0,0.0,0.0,0.0,0.0,0.0,0.0,0.0,0.0,0.0,0.0,0.0,0.0,5.0574,5.0676,5.098,5.0744,5.0845,5.1573,5.1641,5.1776,5.2114,5.2841,5.3247,5.3247,5.3991,5.4414,5.4414,5.4837,5.5074,5.5074,5.5462,5.5699,5.5699,5.5699,5.5699,5.5699,5.5699,5.5699,5.5699,5.5699,5.5699,5.5699,5.5699,5.5868,5.6139,5.6139,5.6341,5.6562,0.0,0.0,0.0,0.0,5.5699,5.5699,0.0,0.0,0.0,0.0,0.0,0.0,0.0,4.0113,4.0113,4.0113,4.0113,4.0113,4.0113,4.0113,4.0146,4.0214,4.0832,4.1271,4.1441,4.2746,4.3842,4.4581,4.4615,4.4615,4.4615,4.4668,4.4702,4.4702,4.4818,4.4838,4.4838,4.4838,4.4838,4.4838,4.4838,4.4838,4.4838,4.4838,4.4804,4.4702,4.4702,4.4668,4.4615,4.4615,4.4615,4.4615,4.4615,4.4615,4.4615,4.4615,0.0,0.0,0.0,0.0,0.0,0.0,0.0,0.0,0.0,0.0,0.0,0.0,0.0,0.0,0.0,0.0,0.0,0.0,0.0,0.0,0.0,0.0,0.0,0.0,5.1336,5.1607,5.2435,5.1995,5.181,5.2469,5.257,5.2875,5.3687,5.4329,5.4702,5.4702,5.5344,5.5699,5.5699,5.5767,0.0,0.0,0.0,5.5936,5.5936,5.5936,5.5936,5.5936,5.5936,5.5936,5.5936,5.5936,5.5936,5.5936,5.5936,5.6308,5.6934,5.6934,5.734,5.79,5.6494,5.5936,5.5936,5.5936,5.5936,5.5936,0.0,0.0,0.0,0.0,0.0,0.0,0.0,4.0113,4.0113,4.0113,4.0113,4.0113,4.0113,4.0113,4.0337,4.0933,4.1136,4.1698,4.2916,4.3842,4.4432,4.4601,4.4615,4.4615,4.4615,4.5162,4.55,4.55,4.6075,4.636,4.636,4.636,4.636,4.636,4.636,4.636,4.636,4.636,4.6007,4.55,4.55,4.5128,4.4615,4.4615,4.4615,4.4615,4.4615,4.4615,4.4615,4.4615,4.5007,4.55,4.55,4.5974,0.0,0.0,0.0,0.0,0.0,0.0,0.0,0.0,0.0,0.0,0.0,0.0,0.0,0.0,0.0,0.0,0.0,0.0,0.0,5.1995,5.2097,5.257,5.3957,5.4025,5.3991,5.4126,5.416,5.4431,5.5192,5.5395,5.5496,5.5496,5.5631,5.5699,5.5699,5.624,5.6596,5.6596,5.7171,5.7476,5.7476,5.7476,5.7476,5.7476,5.7476,0.0,5.7476,5.7476,5.7476,5.7476,5.7476,5.7561,5.7697,5.7697,5.8118,5.8693,5.7814,5.7476,5.7476,5.7476,5.7476,5.7476,0.0,0.0,0.0,0.0,0.0,0.0,0.0,4.0113,4.0113,4.0113,4.0113,4.0235,4.0608,4.0641,4.0933,4.1677,4.207,4.278,4.3944,4.4364,4.4615,4.4615,4.4615,4.477,4.5128,4.55,4.5872,4.6244,4.6616,4.68,4.68,4.68,4.68,4.68,4.68,4.68,4.68,4.68,4.6597,4.6244,4.6244,4.6007,4.5616,4.4871,4.4615,4.4615,4.4615,4.4615,4.4668,4.5041,4.5399,4.5756,4.6143,4.6752,4.7361,0.0,0.0,0.0,0.0,0.0,0.0,0.0,0.0,0.0,0.0,0.0,0.0,0.0,0.0,5.1319,5.1674,0.0,5.2604,5.3315,5.345,5.3856,5.5006,5.5141,5.5141,5.5141,5.5141,5.531,5.5665,5.6037,5.624,5.624,5.6596,5.6968,5.7322,5.7694,5.8084,5.8457,5.8795,5.8998,5.8998,5.8998,5.8998,5.8998,5.8998,5.8998,5.8998,5.8998,5.8998,5.8998,5.8998,5.8998,5.8998,5.8998,5.9235,5.9487,5.9133,5.8998,5.8998,5.8998,5.8998,5.8998,0.0,0.0,0.0,0.0,0.0,0.0,0.0,4.0113,4.0113,4.0113,4.0202,4.054,4.1136,4.1339,4.1711,4.2455,4.32,4.391,4.4567,4.4615,4.4615,4.4615,4.4736,4.5108,4.5703,4.5959,4.6413,4.7022,4.7173,4.724,4.724,4.724,4.724,4.724,4.724,4.724,4.724,4.724,4.7124,4.7022,4.7022,4.6921,4.6665,4.5481,4.4939,4.4804,4.4649,4.4702,4.4905,4.55,4.5906,4.623,4.6819,4.753,4.8124,4.8124,4.8529,0.0,0.0,0.0,0.0,0.0,0.0,0.0,0.0,5.0777,5.1235,5.137,5.1894,5.2367,5.2503,5.3179,5.3923,5.4499,5.4702,5.5074,5.58,5.5902,5.5969,5.6105,5.6003,5.5969,5.6105,5.6781,5.7239,5.7239,5.7915,5.8592,5.9182,5.9216,5.9487,6.008,6.0114,6.0114,6.0114,6.0114,6.0114,6.0114,6.0114,6.0114,6.0114,6.0114,6.0114,6.0114,6.0114,6.0114,6.0114,6.0283,6.0317,6.0351,6.0486,6.0554,6.052,6.0216,6.0114,6.0114,0.0,0.0,0.0,0.0,0.0,0.0,0.0,0.0,4.0113,4.0113,4.0675,4.1102,4.1204,4.1779,4.2455,4.322,4.4012,4.4499,4.4601,4.4615,4.4615,4.4615,4.5229,4.5635,4.5703,4.6974,4.7684,4.7785,4.8428,4.8748,4.8748,4.8748,4.8748,4.8748,4.8748,4.8748,4.8748,4.8748,4.836,4.7785,4.7785,4.7394,4.68,4.6631,4.6143,4.55,4.4838,4.5041,4.5602,4.5669,4.6568,4.7684,4.7752,4.8259,4.8883,4.8883,4.8951,4.9018,4.9018,4.9018,4.9154,4.9796,5.0049,5.027,0.0,5.1133,5.137,5.2063,5.2232,5.2536,5.3247,5.3957,5.4499,5.4583,5.5141,5.5834,5.6562,5.6697,5.6934,5.7595,5.707,5.6934,5.7577,5.8321,5.8743,5.8743,5.9438,5.9877,5.9979,5.9979,6.0013,6.0114,6.0114,6.0114,6.0114,6.0114,6.0114,6.0114,6.0114,6.0114,6.0114,6.0114,6.0114,6.0114,6.0114,6.0114,6.0148,6.0858,6.1163,6.1231,6.1873,6.2164,6.1994,6.0622,6.0114,6.0114,0.0,0.0,0.0,0.0,0.0,0.0,0.0,0.0,0.0,4.0113,4.073,4.1373,4.1779,4.2909,4.3755,4.4079,4.4398,4.4615,4.4615,4.4615,4.4615,4.4615,4.5297,4.5906,4.6312,4.7346,4.8124,4.8529,4.8849,4.9018,4.9018,4.9018,4.9018,4.9018,4.9018,4.9018,4.9018,4.9018,4.8815,4.8529,4.8529,4.8376,4.8037,4.7582,4.7244,4.6872,4.6143,4.609,0.0,4.6853,4.738,4.7988,4.8394,4.8748,4.9018,4.9018,4.9018,4.9086,4.9526,4.9627,4.983,5.0574,5.1048,5.1454,5.1758,5.2182,5.2638,5.2942,5.3348,5.3721,5.4059,5.4735,5.5378,5.5818,5.6156,5.6596,5.734,5.7814,5.8168,5.849,5.866,5.866,5.8558,5.9201,5.9641,5.9641,5.9945,6.0317,6.0757,6.0791,6.0994,6.14,6.1434,6.1434,6.1434,6.1434,6.1434,6.1434,6.1434,6.1434,6.1434,6.1434,6.1434,6.1434,6.1434,6.1434,6.1467,6.1806,6.1941,6.1975,6.2299,6.24,6.2313,6.167,6.1434,6.1434,0.0,0.0,0.0,0.0,0.0,0.0,0.0,0.0,0.0,0.0,4.1035,4.188,4.2841,4.3924,4.4615,4.4615,4.4615,4.4615,4.4615,4.4615,4.4615,4.4615,4.5297,4.6041,4.68,4.7515,4.8259,4.9018,4.9018,4.9018,4.9018,4.9018,4.9018,4.9018,4.9018,4.9018,4.9018,4.9018,4.9018,4.9018,4.9018,4.9018,4.8951,4.8394,4.8191,4.809,4.7124,4.6921,4.7192,4.7718,4.8056,4.8293,4.8834,4.9018,4.9018,4.9018,4.9154,4.9458,5.0202,5.0405,5.0574,5.1302,5.1894,5.2367,5.257,5.3078,5.3551,5.3754,5.4228,5.4668,5.4871,5.5513,5.6172,5.6697,5.6968,5.734,5.8084,5.8641,5.9081,5.9284,5.9979,6.0216,5.9689,6.0114,6.0419,6.0419,6.0622,6.0994,6.1569,6.1603,6.1839,6.24,6.24,6.24,6.24,6.24,6.24,6.24,6.24,6.24,6.24,6.24,6.24,6.24,6.24,6.24,6.24,6.24,6.2516,6.2685,6.2685,6.2821,6.299,6.299,6.2753,6.24,0.0,0.0,0.0,0.0,0.0,0.0,0.0,0.0,0.0,0.0,0.0,0.0,0.0,4.4581,4.4615,4.4615,4.4615,4.4615,4.4615,4.4615,4.4615,4.4615,4.5297,4.6041,4.68,4.7515,4.8259,4.9018,4.9018,4.9018,4.9018,4.9018,4.9018,4.9018,4.9018,4.9018,4.9018,4.9018,4.9018,4.9018,4.9018,4.9018,4.9018,4.8984,4.8984,4.8781,4.7327,4.7259,4.7887,4.7887,4.836,4.8984,4.8984,4.9018,4.9018,4.9018,4.9492,5.0252,5.0964,5.1167,5.1336,5.2097,5.2266,5.2503,5.3281,5.3484,5.3687,5.4397,5.4583,5.4803,5.553,5.6274,5.6765,5.6799,5.7408,5.8118,5.8844,5.8979,5.9268,5.9979,6.0791,6.1264,6.1231,6.1264,6.1264,6.1264,6.1907,6.2347,6.2367,6.2367,6.24,6.24,6.24,6.24,6.24,6.24,6.24,6.24,6.24,6.24,6.24,6.24,6.24,6.24,6.24,6.24,6.24,6.24,6.2821,6.3477,6.3477,6.3883,6.4546,6.4546,6.3632,6.24,0.0,0.0,0.0,0.0,0.0,0.0,0.0,0.0,0.0,0.0,0.0,0.0,0.0,0.0,0.0,0.0,4.4615,4.4615,4.4615,4.4615,4.4615,4.4615,4.5297,4.5838,4.6075,4.7278,4.8022,4.8259,4.8766,4.9018,4.9018,4.9018,4.9018,4.9018,4.9018,4.9018,4.9018,4.9018,4.9018,4.9018,4.9018,4.9018,4.9018,4.9018,4.9018,4.8951,0.0,4.8409,4.8631,4.8631,4.88,4.9018,4.9018,4.9018,4.9086,4.9593,5.0236,5.0998,5.1725,5.1928,5.2131,5.2909,5.3112,5.3315,5.4059,5.4228,5.4431,5.5175,5.5716,5.6122,5.6393,5.7036,5.7509,5.7509,5.8152,5.8727,5.8979,5.9859,6.0622,6.0858,6.1569,6.2009,6.2009,6.2009,6.2009,6.2009,6.2265,6.24,6.24,6.24,6.24,6.24,6.24,6.24,6.24,6.24,6.24,6.24,6.24,6.24,6.2434,6.2922,6.3125,6.3159,6.3666,6.3869,6.3869,6.3869,6.4005,6.4241,6.4241,6.4377,6.4613,6.4613,6.4275,6.3869,0.0,0.0,0.0,0.0,0.0,0.0,0.0,0.0,0.0,0.0,0.0,0.0,0.0,0.0,0.0,0.0,0.0,4.4615,4.4615,4.4615,4.4615,4.4615,4.5041,4.5432,4.5689,4.6636,4.7244,4.7515,4.797,4.8342,4.8597,4.8597,4.8748,4.9018,4.9018,4.9018,4.9018,4.9018,4.9018,4.9018,4.9018,4.9018,4.9018,4.9018,4.9018,0.0,4.9018,4.9018,4.9018,4.9018,4.9018,4.9018,4.9018,4.9187,4.9593,5.0574,5.1217,5.1742,5.2536,5.2739,5.2841,5.3382,5.3687,5.4025,5.4482,5.4803,5.5209,5.5936,5.6461,5.6867,5.7137,5.7577,5.8001,5.8254,5.8693,5.9182,5.9723,6.0689,6.14,6.167,6.211,6.24,6.24,6.24,6.24,6.24,6.24,6.24,6.24,6.24,6.24,6.24,6.24,6.24,6.24,6.24,6.2516,6.2787,6.3057,6.3193,6.3193,6.37,6.3903,6.3917,6.441,6.4613,6.4613,6.4613,6.4749,6.4986,6.4986,6.5155,6.5392,6.5392,6.5392,6.5324,0.0,0.0,0.0,0.0,0.0,0.0,0.0,0.0,0.0,0.0,0.0,0.0,0.0,0.0,0.0,0.0,0.0,0.0,4.4615,4.4615,4.4615,4.4615,4.4615,4.4939,4.5635,4.5689,4.6041,4.6718,4.68,4.7158,4.7853,4.7853,4.8225,4.8883,4.8883,4.8883,4.8883,4.8951,4.8951,4.8951,4.8984,4.9018,4.9018,4.9018,4.9018,4.9018,4.9018,4.9018,4.9018,4.9018,4.9018,4.9052,4.9052,4.9593,5.0489,5.1894,5.2334,5.2536,5.3281,5.3518,5.3518,5.3551,5.4093,5.4617,5.4719,5.5243,5.5969,5.6697,5.6867,5.707,5.7764,5.79,5.8118,5.8878,5.9013,5.9588,6.1095,6.1332,6.1603,6.2333,6.24,6.24,6.24,6.24,6.24,6.24,6.24,6.24,6.24,6.24,6.24,6.24,6.24,6.2434,6.2448,6.2482,6.2854,6.3545,6.4275,6.4613,6.4613,6.4647,6.4647,6.4647,6.4715,6.4715,6.4715,6.4715,6.5121,6.5784,6.5784,6.617,6.6791,6.6791,6.6791,6.6588,0.0,0.0,0.0,0.0,0.0,0.0,0.0,0.0,0.0,0.0,0.0,0.0,0.0,0.0,0.0,0.0,0.0,0.0,4.4615,4.4615,4.4615,4.4615,4.4615,4.4702,4.4871,4.5432,4.5805,4.5974,4.6515,4.6902,4.709,4.709,4.7192,4.7361,4.7361,4.7361,4.7394,4.797,4.8191,4.8225,4.8781,4.9018,4.9018,4.9018,4.9018,4.9018,4.9018,4.9018,4.9018,4.9018,4.9357,4.983,4.983,5.071,5.1792,5.2198,5.2739,5.3247,5.345,5.3518,5.3619,5.416,5.4482,5.4888,5.5987,5.6393,5.6731,5.7476,5.7611,5.7697,5.7866,5.79,5.8118,5.8878,5.9471,6.0182,6.1163,6.1772,6.2178,6.24,6.24,6.24,6.24,6.24,6.24,6.24,6.24,6.24,6.24,6.24,6.24,6.24,6.24,6.2651,6.3207,6.3768,6.414,6.4343,6.4512,6.4613,6.4613,6.5155,6.5425,6.5425,6.6,6.6216,6.6216,6.6216,6.6373,6.6542,6.6542,6.6643,6.6791,6.6791,6.6791,6.6757,0.0,0.0,0.0,0.0,0.0,0.0,0.0,0.0,0.0,0.0,0.0,0.0,0.0,0.0,0.0,0.0,0.0,0.0,0.0,4.4615,4.4615,4.4615,4.4615,4.4615,4.4615,4.5007,4.521,4.521,4.565,4.5988,4.6312,4.6312,4.6481,4.68,4.68,4.68,4.6868,4.7582,4.7921,0.0,0.0,4.9018,4.9018,4.9018,4.9018,4.9018,4.9018,4.9018,4.9052,4.9357,4.9778,5.0218,5.0845,5.1623,5.2367,5.2739,5.3145,5.3518,5.3518,5.3754,5.4093,5.4516,5.5074,5.5784,5.6596,5.7036,5.7408,5.7832,5.79,5.79,5.79,5.79,5.8254,5.9302,5.9844,6.0486,6.1603,6.2144,6.24,6.24,6.24,6.2516,6.2854,6.2888,6.3024,6.3328,6.2753,6.2516,6.2854,6.2888,6.3024,6.3362,6.3362,6.3565,6.4005,6.4715,6.5087,6.5087,6.5425,6.5561,6.5595,6.6,6.617,6.6203,6.6622,6.6791,6.6791,6.6791,6.6791,6.6791,6.6791,6.6791,6.6791,6.6791,6.6791,6.6791,0.0,0.0,0.0,0.0,0.0,0.0,0.0,0.0,0.0,0.0,0.0,0.0,0.0,0.0,0.0,0.0,0.0,0.0,0.0,0.0,4.4615,4.4615,4.4615,4.4615,4.4615,4.4615,4.4615,4.4615,4.4615,4.4939,4.5568,4.5568,4.5906,4.653,4.653,4.6563,4.6684,4.7447,4.7819,4.7954,4.8698,4.9018,4.9018,0.0,4.9018,4.9018,4.9018,4.9018,4.912,4.9965,5.0252,5.0489,5.186,5.2367,5.2604,5.3315,5.3518,5.3518,5.3619,5.4093,5.4651,5.4854,5.5852,5.6833,5.6934,5.7442,5.79,5.79,5.79,5.79,5.79,5.79,5.8389,5.9844,6.0114,6.0622,6.2178,6.24,6.24,6.24,6.2502,6.2787,6.3443,6.3579,6.3903,6.4546,6.3396,6.2956,6.3612,6.3646,6.3917,6.458,6.4681,6.4749,6.4749,6.5459,6.5852,6.5831,6.6508,6.6791,6.6791,6.6791,6.6791,6.6791,6.6791,6.6791,6.6791,6.6791,6.6791,6.6791,6.6791,6.6791,6.6791,6.6791,6.6791,6.6791,0.0,0.0,0.0,0.0,0.0,0.0,0.0,0.0,0.0,0.0,4.4012,4.4615,0.0,0.0,0.0,0.0,0.0,0.0,0.0,0.0,0.0,4.4615,4.4615,4.4615,4.4615,4.4615,4.4615,4.4615,4.4615,4.4682,4.4804,4.4804,4.4871,4.4973,4.4973,4.5311,4.594,4.6684,4.7346,4.7954,4.8698,4.9018,4.9018,4.9018,0.0,0.0,4.9018,4.9018,4.9221,5.0558,5.0998,5.1167,5.2029,5.2773,5.3315,5.345,5.3518,5.3619,5.4228,5.4499,5.4888,5.6122,5.6596,5.6968,5.7577,5.7832,5.79,5.79,5.79,5.79,5.79,5.79,5.8389,5.9844,6.0114,6.0622,6.2178,6.24,6.24,6.24,6.2956,6.3342,6.3477,6.4072,6.4478,6.458,6.4377,6.4275,6.441,6.441,6.4478,6.4613,6.5189,6.5493,6.5493,6.6237,6.6609,6.6609,6.6724,6.6791,6.6791,6.6791,6.6791,6.6791,6.6791,6.6791,6.6791,6.6791,6.6791,6.6791,6.6791,6.6791,6.6791,6.6791,6.6791,6.6791,0.0,0.0,0.0,0.0,0.0,0.0,0.0,4.2049,4.274,4.3876,4.4364,4.4615,4.4615,4.4615,4.4615,0.0,0.0,0.0,0.0,0.0,0.0,0.0,4.4615,4.4615,4.4615,4.4615,4.4615,4.4615,0.0,4.4615,4.4615,4.4615,4.4615,4.4615,4.5007,4.5365,4.5771,4.6921,4.7582,4.7954,4.8698,4.9018,4.9018,0.0,0.0,0.0,4.9018,4.9018,4.9221,5.0694,5.1201,5.1404,5.257,5.3179,5.3518,5.3518,5.3518,5.3653,5.4397,5.4871,5.5446,5.6528,5.7103,5.7476,5.7832,5.79,5.79,5.79,5.79,5.79,5.79,5.79,5.8389,5.9844,6.0114,6.0622,6.2178,6.24,6.24,6.24,6.3057,6.3646,6.4038,6.4749,6.5324,6.573,6.5743,6.5595,6.5189,6.5527,6.5743,6.5743,6.6102,6.6271,6.6271,6.6622,6.6791,6.6791,6.6791,6.6791,6.6791,6.6791,6.6791,6.6791,6.6791,6.6791,6.6791,6.6791,6.6791,6.6791,6.6791,6.6791,6.6791,6.6791,6.6791,6.6791,0.0,0.0,0.0,0.0,0.0,0.0,0.0,4.23,4.2841,4.4398,4.4615,4.4615,4.4615,4.4615,4.4615,0.0,0.0,0.0,0.0,0.0,0.0,0.0,0.0,0.0,4.4615,0.0,0.0,4.4615,4.4615,0.0,0.0,0.0,0.0,0.0,4.5365,4.5805,4.6007,4.7346,4.7988,0.0,0.0,4.9018,0.0,0.0,0.0,0.0,0.0,4.9018,4.9221,5.0694,5.1201,5.1472,5.2993,5.3518,5.3518,5.3518,5.3518,5.3653,5.4397,5.5141,5.5868,5.663,5.734,5.79,5.79,5.79,5.79,5.79,5.79,5.79,5.79,5.79,5.8389,5.9844,6.0114,6.0622,6.2178,6.24,6.24,6.24,6.3193,6.3971,6.4546,6.5392,6.617,6.6757,6.6791,6.6542,6.5967,6.6508,6.6791,6.6791,6.6791,6.6791,6.6791,6.6791,6.6791,6.6791,6.6791,6.6791,6.6791,6.6791,6.6791,6.6791,6.6791,6.6791,6.6791,6.6791,6.6791,6.6791,6.6791,6.6791,6.6791,6.6791,6.6791,6.6791,0.0,0.0,0.0,0.0,0.0,0.0,0.0,4.23,4.2841,4.4398,4.4615,4.4615,4.4615,4.4615,4.4615,0.0,0.0,0.0,0.0,0.0,0.0,0.0,0.0,0.0,0.0,0.0,0.0,4.4615,4.4615,0.0,0.0,0.0,0.0,0.0,0.0,4.6075,4.6752,4.7549,0.0,0.0,0.0,0.0,0.0,0.0,0.0,0.0,0.0,4.9018,4.9221,5.0694,5.1201,5.1472,5.2993,5.3518,5.3518,5.3518,5.3518,5.3653,5.4397,5.5141,5.5868,5.663,5.734,5.79,5.79,5.79,5.79,5.79,5.79,5.79,5.79,5.79,5.8389,5.9844,6.0114,6.0622,6.2178,6.24,6.24,6.24,6.3632,6.4546,6.458,6.5865,6.6745,6.6791,6.6791,6.6757,6.669,6.6757,6.6791,6.6791,6.6791,6.6791,6.6791,6.6791,6.6791,6.6791,6.6791,6.6791,6.6791,6.6791,6.6791,6.6791,6.6791,6.6791,6.6791,6.6791,6.6791,6.6791,6.6791,6.6791,6.6791,6.6791,6.6791,6.6791,0.0,0.0,0.0,0.0,0.0,0.0,4.213,4.2692,4.3369,4.4479,4.4615,4.4615,4.4615,4.4615,4.4615,4.4615,0.0,0.0,0.0,0.0,0.0,0.0,0.0,0.0,0.0,0.0,4.4615,4.4615,4.4615,0.0,0.0,0.0,0.0,0.0,0.0,4.6515,4.6887,4.8071,0.0,0.0,0.0,0.0,0.0,0.0,0.0,0.0,0.0,0.0,4.9221,5.0694,5.1201,5.1472,5.2993,5.3518,5.3518,5.3518,5.3518,5.3653,5.4397,5.4803,5.5209,5.5936,5.6341,5.6697,5.7137,5.7239,5.734,5.7832,5.79,5.79,5.79,5.79,5.822,5.9268,5.981,6.0486,6.1569,6.211,6.24,6.24,6.37,6.4613,6.4613,6.5912,6.6791,6.6791,6.6791,6.6791,6.6791,6.6791,6.6791,6.6791,6.6791,6.6791,6.6791,6.6791,6.6791,6.6791,6.6791,6.6791,6.6791,6.6791,6.6791,6.6791,6.6791,6.6791,6.6791,6.6791,6.6791,6.6791,6.6791,6.6791,6.6791,6.6791,6.6791,6.6791,0.0,0.0,0.0,0.0,0.0,4.1441,4.2198,4.2929,4.3707,4.4499,4.4615,4.4615,4.4615,4.4615,4.4615,4.4615,4.4615,0.0,0.0,0.0,0.0,0.0,0.0,0.0,0.0,0.0,4.4615,4.4615,4.4615,4.4615,0.0,0.0,4.4615,4.4668,0.0,0.0,0.0,0.0,0.0,0.0,0.0,0.0,0.0,0.0,0.0,0.0,0.0,0.0,0.0,0.0,0.0,5.1472,5.2993,5.3518,5.3518,5.3518,5.3518,5.3619,5.4126,5.4431,5.4702,5.5243,5.553,5.5834,5.6341,5.663,5.6934,5.7476,5.7764,5.79,5.79,5.79,5.8118,5.8878,5.9641,6.0385,6.1197,6.1941,6.24,6.24,6.37,6.4613,6.4613,6.5912,6.6791,6.6791,6.6791,6.6791,6.6791,6.6791,6.6791,6.6791,6.6791,6.6791,6.6791,6.6791,6.6791,6.6791,6.6791,6.6791,6.6791,6.6791,6.6791,6.6791,6.6791,6.6791,6.6791,6.6791,6.6791,6.6791,6.6791,6.6791,6.6791,6.6791,6.6791,6.6791,0.0,0.0,0.0,0.0,0.0,0.0,4.2198,4.2929,4.3707,4.4499,4.4615,4.4615,4.4615,4.4615,4.4615,4.4615,4.4615,0.0,0.0,0.0,0.0,0.0,0.0,0.0,0.0,0.0,4.4615,4.4615,4.4615,4.4615,4.4615,4.4615,4.4615,4.4668,0.0,0.0,0.0,0.0,0.0,0.0,0.0,0.0,0.0,0.0,0.0,0.0,0.0,0.0,0.0,0.0,0.0,0.0,0.0,5.3518,5.3518,5.3518,5.3518,5.3518,5.3518,5.4025,5.4617,5.46,5.5175,5.5699,5.5699,5.6292,5.6799,5.6799,5.7374,5.79,5.79,5.79,5.8118,5.8878,5.9641,6.0385,6.1197,6.1941,6.24,6.24,6.37,6.4613,6.4613,6.5912,6.6791,6.6791,6.6791,6.6791,6.6791,6.6791,6.6791,6.6791,6.6791,6.6791,6.6791,6.6791,6.6791,6.6791,6.6791,6.6791,6.6791,6.6791,6.6791,6.6791,6.6791,6.6791,6.6791,6.6791,6.6791,6.6791,6.6791,6.6791,6.6791,6.6791,6.6791,6.6791,0.0,0.0,0.0,0.0,0.0,0.0,0.0,4.3707,4.433,4.4581,4.4615,4.4615,4.4615,4.4615,4.4615,4.4615,4.4615,0.0,0.0,0.0,0.0,0.0,0.0,0.0,0.0,0.0,4.4615,4.4615,4.4615,4.4615,4.4615,4.4615,4.4871,4.5399,4.636,4.709,0.0,0.0,0.0,0.0,0.0,0.0,4.9018,0.0,0.0,0.0,0.0,0.0,0.0,0.0,0.0,0.0,0.0,0.0,0.0,5.3518,5.3518,5.3518,5.3518,5.3687,5.3856,5.3856,5.4025,5.4329,5.4837,5.5141,5.5581,5.6596,5.7002,5.7306,5.7832,5.79,5.8001,5.822,5.9302,6.0182,6.0452,6.1569,6.24,6.24,6.37,6.4783,6.529,6.6237,6.6791,6.6791,6.6791,6.6791,6.6791,6.6791,6.6791,6.6791,6.6791,6.6791,6.6791,6.6791,6.6791,6.6791,6.6791,6.6791,6.6791,6.6791,6.6791,6.6791,6.6791,6.6791,6.6791,6.6791,6.6791,6.6791,6.6791,6.6791,6.6791,6.6791,6.6791,6.6791,0.0,0.0,0.0,0.0,0.0,0.0,0.0,4.4079,4.4615,4.4615,4.4615,4.4615,4.4615,4.4615,4.4615,4.4615,4.4615,0.0,0.0,0.0,0.0,0.0,0.0,0.0,0.0,4.4615,4.4615,4.4615,4.4615,4.4615,4.4615,4.4615,4.5007,4.5722,4.6481,4.7225,0.0,0.0,0.0,0.0,0.0,0.0,4.9018,0.0,0.0,0.0,0.0,0.0,0.0,0.0,0.0,0.0,0.0,0.0,0.0,0.0,5.3518,5.3518,5.3518,5.3518,5.3518,5.3518,5.3518,5.3619,5.4093,5.4397,5.4938,5.6156,5.6596,5.7036,5.7746,5.79,5.79,5.79,5.9133,6.0114,6.0114,6.1434,6.2482,6.2787,6.3869,6.4884,6.5649,6.6373,6.6791,6.6791,6.6791,6.6791,6.6791,6.6791,6.6791,6.6791,6.6791,6.6791,6.6791,6.6791,6.6791,6.6791,6.6791,6.6791,6.6791,6.6791,6.6791,6.6791,6.6791,6.6791,0.0,6.6791,6.6791,6.6791,6.6791,6.6791,6.6791,6.6791,6.6791,6.6791,0.0,0.0,0.0,0.0,0.0,0.0,0.0,4.4113,4.4615,4.4615,4.4615,4.4615,4.4615,4.4615,4.4615,4.4615,0.0,0.0,0.0,0.0,0.0,0.0,0.0,0.0,4.4615,4.4615,4.4615,4.4615,4.4615,4.4615,4.4615,4.4615,4.5041,4.5805,4.6481,4.7259,4.8022,0.0,0.0,0.0,0.0,0.0,0.0,0.0,0.0,0.0,0.0,0.0,0.0,0.0,0.0,0.0,0.0,0.0,0.0,0.0,0.0,0.0,0.0,5.3518,5.3518,5.3518,5.3518,5.3518,5.3518,5.4025,0.0,5.553,5.624,5.6968,5.7764,5.79,5.79,5.79,5.9133,6.0114,6.0114,6.1434,6.2651,6.3342,6.4072,6.4816,6.5547,6.6305,6.6724,6.6791,6.6791,6.6791,6.6791,6.6791,6.6791,6.6791,6.6791,6.6791,6.6791,6.6791,6.6791,6.6791,6.6791,6.6791,6.6791,6.6791,6.6791,6.6791,6.6791,6.6791,6.6791,6.6791,6.6791,6.6791,6.6791,6.6791,6.6791,6.6791,6.6791,6.6791,0.0,0.0,0.0,0.0,0.0,0.0,0.0,0.0,0.0,0.0,4.4615,4.4615,4.4615,4.4615,4.4615,0.0,0.0,0.0,0.0,0.0,0.0,0.0,0.0,0.0,4.4615,4.4615,4.4615,4.4615,4.4615,4.4615,4.4615,4.4615,4.5277,4.6549,4.6718,4.753,4.8732,4.8951,0.0,0.0,0.0,0.0,0.0,0.0,0.0,0.0,4.9018,4.9018,0.0,0.0,0.0,0.0,0.0,0.0,0.0,0.0,5.3518,5.3518,5.3518,0.0,5.3518,5.3518,5.3518,5.3518,0.0,5.3619,5.4126,5.5428,5.5834,5.6341,5.7645,5.79,5.79,5.79,5.9133,6.0114,6.0114,6.1434,6.2448,6.2618,6.3328,6.4072,6.4783,6.5527,6.6203,6.6757,6.6791,6.6791,6.6791,6.6791,6.6791,6.6791,6.6791,6.6791,6.6791,6.6791,6.6791,6.6791,6.6791,6.6791,6.6791,6.6791,6.6791,6.6791,6.6791,6.6791,6.6791,6.6791,6.6791,6.6791,6.6791,6.6791,6.6791,6.6791,6.6791,6.6791,0.0,0.0,0.0,0.0,0.0,0.0,0.0,0.0,0.0,0.0,0.0,0.0,0.0,0.0,0.0,0.0,0.0,0.0,0.0,0.0,0.0,0.0,0.0,4.4615,4.4615,4.4615,4.4615,4.4615,4.4615,4.4615,4.4615,4.4939,4.5717,4.6834,4.7496,4.824,4.9018,4.9018,4.9018,0.0,4.9018,0.0,0.0,0.0,0.0,0.0,4.9018,4.9018,0.0,5.0694,5.1201,5.1472,0.0,0.0,0.0,0.0,5.3518,5.3518,5.3518,5.3518,5.3518,5.3518,5.3518,5.3518,5.3518,5.3518,5.3923,5.5395,5.5699,5.6139,5.7629,5.79,5.79,5.79,5.9133,6.0351,6.1061,6.1873,6.24,6.24,6.3057,6.3646,6.4072,6.5053,6.5865,6.6271,6.6609,6.6791,6.6791,6.6474,6.6305,6.6305,6.5967,6.6115,6.6791,6.6791,6.6791,6.6791,6.6791,6.6791,6.6791,6.6791,6.6791,6.6791,6.6791,6.6791,6.6791,6.6791,6.6791,6.6791,6.6791,6.6791,6.6791,6.6791,6.6791,6.6791,0.0,0.0,0.0,0.0,0.0,0.0,0.0,0.0,0.0,0.0,0.0,0.0,0.0,0.0,0.0,0.0,0.0,0.0,0.0,0.0,0.0,0.0,0.0,4.4615,4.4615,4.4615,4.4615,4.4615,4.4615,4.4615,4.4615,4.5365,4.6143,4.7022,4.8376,4.9018,4.9018,4.9018,4.9018,4.9018,4.9018,0.0,0.0,0.0,0.0,0.0,0.0,0.0,0.0,5.0728,5.1269,5.1607,5.3044,0.0,0.0,0.0,0.0,0.0,5.3518,5.3518,5.3518,5.3518,5.3518,5.3518,5.3518,5.3518,5.3923,5.5395,5.5699,5.6139,5.7629,5.79,5.79,5.79,5.9133,6.0622,6.2178,6.24,6.24,6.24,6.2956,6.3376,6.3477,6.4647,6.5412,6.5514,6.6102,6.6453,6.6453,6.5865,6.5527,6.5527,6.4918,6.5189,6.6453,6.6453,6.6453,6.6453,6.6453,6.6453,6.6453,6.6453,6.6453,6.6453,6.6453,6.6453,6.6453,6.6453,6.6453,6.6453,6.6453,6.6521,6.6643,6.6643,6.669,6.6791,0.0,0.0,0.0,0.0,0.0,0.0,0.0,0.0,0.0,0.0,0.0,0.0,0.0,0.0,0.0,0.0,0.0,0.0,0.0,0.0,0.0,4.4336,4.4497,4.4615,4.4615,4.4615,4.4615,4.4615,4.4615,4.4615,4.4615,4.5365,4.6433,4.7752,4.8597,4.9018,4.9018,4.9018,4.9018,4.9018,4.9018,0.0,0.0,0.0,0.0,0.0,0.0,0.0,0.0,5.0897,5.1607,5.23,5.3213,0.0,0.0,0.0,0.0,0.0,5.3518,5.3518,5.3518,5.3518,5.3518,5.3518,5.3518,5.3518,5.3923,5.5395,5.5699,5.6139,5.7629,5.79,5.79,5.79,5.9133,6.0622,6.2178,6.24,6.24,6.24,6.2502,6.2821,6.3443,6.368,6.4106,6.4715,6.4884,6.4952,6.4952,6.4816,6.4783,6.4783,6.4647,6.4715,6.4952,6.4952,6.4952,6.4952,6.4952,6.4952,6.4952,6.4952,6.4952,6.4952,6.4952,6.4952,6.4952,6.4952,6.4952,6.4952,6.4952,6.5324,6.5865,6.5865,6.6271,6.6791,0.0,0.0,0.0,0.0,0.0,0.0,0.0,0.0,0.0,0.0,0.0,0.0,0.0,0.0,0.0,0.0,0.0,0.0,0.0,0.0,0.0,4.4293,4.4398,4.4398,4.4312,4.4398,4.444,4.444,4.4559,4.4804,4.521,4.638,4.7447,4.8496,4.8849,4.9018,4.9018,4.9018,4.9018,4.9018,0.0,0.0,0.0,0.0,0.0,0.0,0.0,0.0,0.0,0.0,5.1674,5.2435,5.3247,0.0,0.0,0.0,0.0,0.0,5.3518,5.3518,5.3518,5.3518,5.3518,5.3518,5.3518,5.3518,5.3923,5.5395,5.5699,5.6139,5.7629,5.79,5.817,5.8964,5.9674,6.0622,6.2178,6.24,6.24,6.24,6.24,6.2516,6.2854,6.3294,6.3646,6.4005,6.4377,6.4613,6.4613,6.4241,6.3984,6.3984,6.3632,6.3396,6.3396,6.3396,6.3802,6.4613,6.4613,6.4613,6.4613,6.4613,6.4613,6.4613,6.4613,6.4613,6.4613,6.4613,6.4613,6.4613,6.4613,6.4816,6.5121,6.5121,6.5561,6.6203,0.0,0.0,0.0,0.0,0.0,0.0,0.0,0.0,0.0,0.0,0.0,0.0,0.0,0.0,0.0,0.0,0.0,0.0,0.0,0.0,4.4483,4.425,4.4236,4.4212,4.4097,4.4241,4.4293,4.4293,4.4651,4.5297,4.623,4.738,4.8293,4.9018,4.9018,4.9018,4.9018,4.9018,4.9018,4.9018,0.0,0.0,0.0,0.0,0.0,0.0,0.0,0.0,0.0,0.0,0.0,0.0,0.0,0.0,0.0,5.3518,5.3518,5.3518,5.3518,5.3518,5.3518,5.3518,5.3518,5.3518,5.3518,5.3619,5.4126,5.5428,5.5834,5.6341,5.7645,5.79,5.8389,5.9844,6.0114,6.0622,6.2178,6.24,6.24,6.24,6.24,6.24,6.24,6.2922,6.324,6.324,6.3768,6.4072,6.4072,6.3565,6.324,6.324,6.2685,6.24,6.24,6.24,6.2956,6.4072,6.4072,6.4072,6.4072,6.4072,6.4072,6.4072,6.4072,6.4072,6.4072,6.4072,6.4072,6.4072,6.4072,6.4174,6.4377,6.4546,6.4952,6.5425,0.0,0.0,0.0,0.0,0.0,0.0,0.0,0.0,0.0,0.0,0.0,0.0,0.0,0.0,0.0,0.0,0.0,0.0,0.0,0.0,4.444,4.4126,4.4112,4.4112,4.4097,4.4241,4.4293,4.4293,4.5192,4.6331,4.7752,4.7853,4.8293,4.9018,4.9018,4.9018,4.9018,4.9018,4.9018,4.9018,4.9018,0.0,0.0,0.0,0.0,0.0,0.0,0.0,0.0,0.0,0.0,0.0,0.0,0.0,5.3518,5.3518,5.3518,5.3518,5.3518,5.3518,5.3518,5.3518,5.3518,5.3518,5.3518,5.4025,5.4735,5.553,5.624,5.6968,5.7764,5.79,5.8389,5.9844,6.0114,6.0622,6.2178,6.24,6.24,6.24,6.24,6.24,6.24,6.2468,6.2502,6.2502,6.2516,6.257,6.257,6.2516,6.2502,6.2502,6.2434,6.24,6.24,6.24,6.2468,6.257,6.257,6.257,6.257,6.257,6.257,6.257,6.257,6.257,6.257,6.257,6.257,6.257,6.257,6.299,6.3646,6.4343,6.4647,6.4681,0.0,0.0,0.0,0.0,0.0,0.0,0.0,0.0,0.0,0.0,0.0,0.0,0.0,0.0,0.0,0.0,0.0,0.0,0.0,4.4369,4.4327,4.4112,4.4184,4.4198,4.4097,4.4155,4.4184,4.4184,4.5655,4.6921,4.7921,4.836,4.8748,4.9018,4.9018,4.9018,4.9018,4.9018,4.9018,4.9018,4.9018,4.9018,0.0,0.0,0.0,0.0,0.0,0.0,0.0,0.0,5.2588,5.3518,5.3518,5.3518,5.3518,5.3518,5.3518,5.3518,5.3518,5.3518,5.3518,5.3518,5.3518,5.3518,5.3518,5.4059,5.4803,5.553,5.6274,5.7036,5.7746,5.79,5.8389,5.9844,6.0114,6.0622,6.2178,6.24,6.24,6.24,6.24,6.24,6.24,6.24,6.24,6.24,6.24,6.24,6.24,6.24,6.24,6.24,6.24,6.24,6.24,6.24,6.24,6.24,6.24,6.24,6.24,6.24,6.24,6.24,6.24,6.24,6.24,6.24,6.24,6.24,6.24,6.255,6.2854,6.3125,6.3531,6.3917,0.0,0.0,0.0,0.0,0.0,0.0,0.0,0.0,0.0,0.0,0.0,0.0,0.0,0.0,0.0,0.0,0.0,0.0,4.4025,4.4179,4.4255,4.4097,4.4241,4.4255,4.4097,4.4375,4.4505,4.4505,4.6281,4.753,4.8259,4.8766,4.9018,4.9018,4.9018,4.9018,4.9018,4.9018,4.9018,4.9018,4.9018,4.9018,0.0,0.0,0.0,0.0,0.0,0.0,0.0,0.0,5.2841,5.3518,5.3518,5.3518,5.3518,5.3518,5.3518,5.3518,5.3518,5.3518,5.3518,5.3518,5.3687,5.3856,5.3856,5.4431,5.5175,5.5902,5.663,5.7306,5.7832,5.79,5.8306,5.9539,5.9945,6.0554,6.1873,6.2245,6.24,6.24,6.24,6.24,6.24,6.24,6.24,6.24,6.24,6.24,6.24,6.24,6.24,6.24,6.24,6.24,6.24,6.24,6.24,6.24,6.24,6.24,6.24,6.24,6.24,6.24,6.24,6.24,6.24,6.24,6.24,6.24,6.24,6.24,6.24,6.24,6.2719,6.3159,0.0,0.0,0.0,0.0,0.0,0.0,0.0,0.0,0.0,0.0,0.0,0.0,0.0,0.0,0.0,0.0,0.0,0.0,4.3816,4.4107,4.4255,4.4097,4.4241,4.4255,4.4112,4.498,4.5408,4.5408,4.7102,4.8293,4.9018,4.9018,4.9018,4.9018,4.9018,4.9018,4.9018,4.9018,4.9018,4.9018,4.9018,4.9018,4.9018,0.0,0.0,0.0,0.0,0.0,0.0,0.0,5.2841,5.3518,5.3518,5.3518,5.3518,5.3518,5.3518,5.3518,5.3518,5.3518,5.3518,5.3518,5.4059,5.4617,5.46,5.5175,5.5902,5.6664,5.7374,5.79,5.79,5.79,5.8118,5.8878,5.9607,6.0385,6.1197,6.1907,6.2381,6.24,6.24,6.24,6.24,6.24,6.24,6.24,6.24,6.24,6.24,6.24,6.24,6.24,6.24,6.24,6.24,6.24,6.24,6.24,6.24,6.24,6.24,6.24,6.24,6.24,6.24,6.24,6.24,6.24,6.24,6.24,6.24,6.24,6.24,6.24,6.24,6.24,0.0,0.0,0.0,0.0,0.0,0.0,0.0,0.0,0.0,0.0,0.0,0.0,0.0,0.0,0.0,0.0,0.0,0.0,4.3505,4.3717,4.3908,4.4083,4.4241,4.4591,4.5221,4.6513,4.717,4.717,4.7654,4.8293,4.9018,4.9018,4.9018,4.9018,4.9018,4.9018,4.9018,4.9018,4.9018,4.9018,4.9018,4.9018,4.9018,0.0,0.0,0.0,0.0,0.0,0.0,0.0,0.0,0.0,5.3518,5.3518,5.3518,5.3518,5.3518,5.3518,5.3518,5.3518,5.3518,5.3518,5.4059,5.4735,5.5277,5.5936,5.6697,5.7408,5.7764,5.79,5.79,5.79,5.8118,5.8878,5.9182,5.981,6.1129,6.1501,6.1806,6.2347,6.24,6.24,6.24,6.24,6.24,6.24,6.24,6.24,6.24,6.24,6.24,6.24,6.24,6.24,6.24,6.24,6.24,6.24,6.24,6.24,6.24,6.24,6.24,6.24,6.24,6.24,6.24,6.24,6.24,6.24,6.24,6.24,6.242,6.2537,6.2596,6.2635,0.0,0.0,0.0,0.0,0.0,0.0,0.0,0.0,0.0,0.0,0.0,0.0,0.0,0.0,0.0,0.0,0.0,0.0,0.0,4.3598,4.382,4.4083,4.451,4.5279,4.6446,4.7248,4.787,4.8269,4.8296,4.8563,4.9018,4.9018,4.9018,4.9018,4.9018,4.9018,4.9018,4.9018,4.9018,4.9018,4.9018,4.9018,4.9018,0.0,0.0,0.0,0.0,0.0,0.0,0.0,0.0,0.0,5.3518,5.3518,5.3518,5.3518,5.3518,5.3518,5.3518,5.3518,5.3585,5.3856,5.4499,5.531,5.6359,5.6934,5.734,5.7832,5.79,5.79,5.79,5.79,5.8069,5.849,5.881,5.9317,6.0283,6.0655,6.1095,6.1873,6.1941,6.2076,6.2367,6.24,6.24,6.24,6.24,6.24,6.24,6.24,6.24,6.24,6.24,6.24,6.24,6.24,6.24,6.24,6.24,6.24,6.24,6.24,6.24,6.24,6.24,6.24,6.24,6.24,6.24,6.24,6.24,6.24,6.242,6.2615,6.2707,6.2751,0.0,0.0,0.0,0.0,0.0,0.0,0.0,0.0,0.0,0.0,0.0,0.0,0.0,0.0,0.0,0.0,0.0,0.0,0.0,0.0,4.3975,4.4183,4.5095,4.6211,4.7546,4.7541,4.7941,4.8785,4.8925,4.9003,4.9018,4.9018,4.9018,4.9018,4.9018,4.9018,4.9018,4.9018,4.9018,4.9018,4.9018,4.9018,4.9018,4.9086,0.0,0.0,0.0,0.0,0.0,0.0,0.0,0.0,5.3518,5.3518,5.3518,5.3518,5.3518,5.3518,5.3518,5.3518,5.3687,5.4397,5.5209,5.6172,5.7595,5.79,5.79,5.79,5.79,5.79,5.79,5.79,5.79,5.79,5.8457,5.8912,5.8979,5.9573,6.0317,6.1095,6.1197,6.1467,6.211,6.2265,6.2279,6.2279,6.2367,6.24,6.24,6.24,6.24,6.24,6.24,6.24,6.24,6.24,6.24,6.24,6.24,6.24,6.24,6.24,6.24,6.242,6.244,6.244,6.242,6.244,6.244,6.242,6.244,6.244,6.2479,6.2673,6.2785,6.2828,0.0,0.0,0.0,0.0,0.0,0.0,0.0,0.0,0.0,0.0,0.0,0.0,0.0,0.0,0.0,0.0,0.0,0.0,0.0,0.0,4.392,4.4901,4.6357,4.7212,4.7425,4.7963,4.8444,4.8785,4.8816,4.8894,4.9018,4.9018,4.9018,4.9018,4.9018,4.9018,4.9018,4.9018,4.9018,4.9018,4.9018,4.9018,4.9052,4.9627,5.0304,0.0,0.0,0.0,0.0,0.0,0.0,0.0,5.3518,5.3518,5.3518,5.3518,5.3518,5.3518,5.3518,5.3518,5.3687,5.4397,5.5581,5.6799,5.7697,5.79,5.79,5.79,5.79,5.79,5.79,5.79,5.79,5.79,5.8035,5.8355,5.8912,5.9148,5.9539,6.0283,6.0351,6.0419,6.0588,6.1163,6.1535,6.1535,6.2076,6.24,6.24,6.24,6.24,6.24,6.24,6.24,6.24,6.24,6.24,6.24,6.24,6.24,6.24,6.24,6.2479,6.2635,6.2808,6.277,6.2635,6.2808,6.277,6.2635,6.2808,6.2885,6.2904,6.3095,6.3265,6.3507,0.0,0.0,0.0,0.0,0.0,0.0,0.0,0.0,0.0,0.0,0.0,0.0,0.0,0.0,0.0,0.0,0.0,0.0,0.0,0.0,4.4667,4.6085,4.693,4.7499,4.7772,4.8109,4.8372,4.8675,4.8675,4.8785,4.9018,4.9018,4.9018,4.9018,4.9018,4.9018,4.9018,4.9018,4.9018,4.9018,4.9018,4.9018,4.9086,4.983,5.0574,5.1302,5.2063,0.0,0.0,0.0,0.0,0.0,0.0,0.0,5.3518,5.3518,5.3518,5.3518,5.3518,5.3518,5.3754,5.4871,5.6224,5.7408,5.7832,5.79,5.79,5.79,5.79,5.79,5.79,5.79,5.79,5.79,5.79,5.8017,5.8423,5.8457,5.8761,5.9505,5.9573,5.9708,6.008,6.0486,6.0723,6.0723,6.1061,6.1298,6.1298,6.167,6.1873,6.1873,6.2231,6.24,6.24,6.24,6.24,6.24,6.24,6.24,6.24,6.2498,6.2576,6.2727,6.2923,6.2885,6.2727,6.2923,6.2885,6.2712,6.3019,6.3152,6.3189,6.3489,6.3675,6.3948,0.0,0.0,0.0,0.0,0.0,0.0,0.0,0.0,0.0,0.0,0.0,0.0,0.0,0.0,0.0,0.0,0.0,0.0,0.0,0.0,0.0,4.7049,4.7214,4.7563,4.8163,4.8099,4.8196,4.8499,4.8531,4.8704,4.9018,4.9018,4.9018,4.9018,4.9018,4.9018,4.9018,4.9018,4.9018,4.9018,4.9018,4.9086,4.9255,4.9999,5.0744,5.1472,5.2232,5.2942,5.3518,5.3518,0.0,0.0,0.0,0.0,5.3518,5.3518,5.3518,5.3518,5.3518,5.3687,5.4177,5.5395,5.6799,5.79,5.79,5.79,5.79,5.79,5.79,5.79,5.79,5.79,5.79,5.79,5.79,5.79,5.79,5.79,5.8137,5.8761,5.881,5.9066,5.9674,5.9844,5.9911,5.9911,6.0047,6.0114,6.0114,6.0723,6.1095,6.1095,6.167,6.2009,6.2009,6.2009,6.2009,6.1994,6.2048,6.2033,6.2053,6.2338,6.257,6.2751,6.3,6.2981,6.2808,6.3057,6.3038,6.2885,6.3302,6.3452,6.3489,6.3838,6.4056,6.427,0.0,0.0,0.0,0.0,0.0,0.0,0.0,0.0,0.0,0.0,0.0,0.0,0.0,0.0,0.0,0.0,0.0,0.0,4.3204,0.0,0.0,4.6649,4.7551,4.8031,4.8033,4.8114,4.8276,4.8499,4.8675,4.8848,4.9018,4.9018,4.9018,4.9018,4.9018,4.9018,4.9018,4.9018,4.9018,4.9018,4.9018,4.939,5.0033,5.0777,5.1505,5.2266,5.3044,5.3416,5.3518,5.3518,5.3518,0.0,0.0,0.0,5.3518,5.3518,5.3518,5.3518,5.3518,5.4414,5.5462,5.5665,5.6799,5.79,5.79,5.79,5.79,5.79,5.79,5.79,5.79,5.79,5.79,5.79,5.79,5.79,5.79,5.79,5.7934,5.8017,5.8069,5.8103,5.8186,5.8761,5.9148,5.9148,5.9742,6.0114,6.0114,6.0216,6.025,6.025,6.0351,6.0419,6.0419,6.0419,6.0419,6.0419,6.0589,6.0664,6.0683,6.1238,6.2014,6.2981,6.3358,6.3414,6.3246,6.3618,6.3655,6.3526,6.391,6.4073,6.4073,6.4127,6.4375,6.4689,0.0,0.0,0.0,0.0,0.0,0.0,0.0,0.0,0.0,0.0,0.0,0.0,0.0,0.0,0.0,4.2884,4.2836,4.3193,4.4102,4.5483,4.6533,4.7177,4.7851,4.8163,4.8098,4.8276,4.8468,4.8675,4.8754,4.8863,4.9018,4.9018,4.9018,4.9018,4.9018,4.9018,4.9018,4.9018,4.9018,4.9052,4.9458,4.9796,5.0252,5.1386,5.2029,5.2401,5.3213,5.3518,5.3518,5.3518,5.3518,5.3518,5.3518,0.0,0.0,0.0,5.3518,5.3518,5.3518,5.4296,5.5175,5.5597,5.6494,5.7374,5.7832,5.79,5.79,5.79,5.79,5.79,5.79,5.79,5.79,5.79,5.79,5.79,5.79,5.79,5.79,5.79,5.79,5.79,5.79,5.8186,5.8389,5.8389,5.866,5.8863,5.8863,5.9268,5.9471,5.9471,5.9877,6.0114,6.0114,6.0114,6.0171,6.0284,6.0582,6.0766,6.0841,6.136,6.1757,6.2087,6.2468,6.2575,6.2469,6.2752,6.2805,6.2805,6.3641,6.3971,6.4059,6.46,6.5048,6.5346,0.0,0.0,0.0,0.0,0.0,0.0,0.0,0.0,0.0,0.0,0.0,0.0,0.0,0.0,0.0,0.0,4.2812,4.346,4.5032,4.5996,4.6848,4.7655,4.8017,4.8227,4.8276,4.8468,4.8659,4.8785,4.8832,4.8894,4.9018,4.9018,4.9018,4.9018,4.9018,4.9018,4.9018,4.9018,4.912,4.9323,4.988,5.032,5.0777,5.1894,5.2435,5.2672,5.3281,5.3518,5.3518,5.3518,5.3518,5.3518,5.3518,5.3518,0.0,0.0,0.0,5.3518,5.3518,5.4025,5.4735,5.5277,5.6122,5.6934,5.7476,5.7764,5.79,5.79,5.79,5.79,5.79,5.79,5.79,5.79,5.79,5.79,5.79,5.79,5.79,5.79,5.79,5.79,5.79,5.79,5.79,5.79,5.79,5.79,5.79,5.8423,5.8727,5.8727,5.9235,5.9558,5.9614,5.9707,5.9855,6.0039,6.0472,6.0773,6.0913,6.1374,6.1441,6.1257,6.1829,6.2054,6.2036,6.2287,6.2354,6.2356,6.3369,6.3714,6.37,6.4449,6.4941,6.5213,0.0,0.0,0.0,0.0,0.0,0.0,0.0,0.0,0.0,0.0,0.0,0.0,4.2822,4.2713,4.2619,4.2602,4.3057,4.4007,4.5457,4.5925,4.6601,4.7655,4.8017,0.0,4.8483,4.8691,4.8785,4.8785,4.8925,4.8969,4.9018,4.9018,4.9018,4.9018,4.9018,4.9018,4.9018,4.9018,4.939,5.0049,5.0083,5.0963,5.2198,5.2266,5.2773,5.345,5.3484,5.3518,5.3518,5.3518,5.3518,5.3518,5.3518,5.3518,5.3518,0.0,0.0,0.0,5.3518,5.4025,5.46,5.4651,5.575,5.6799,5.6867,5.7408,5.79,5.79,5.79,5.79,5.79,5.79,5.79,5.79,5.79,5.79,5.79,5.79,5.79,5.79,5.79,5.79,5.79,5.79,5.79,5.79,5.79,5.79,5.79,5.7934,5.7967,5.7967,5.7983,5.8108,5.8307,5.8611,5.8874,5.9064,5.9606,5.9916,6.0094,6.0752,6.1025,6.1051,6.2095,6.2554,6.2603,6.303,6.3175,6.3085,6.3464,6.3418,6.3152,6.3204,6.3349,6.3555,0.0,0.0,0.0,0.0,0.0,0.0,0.0,0.0,0.0,0.0,0.0,0.0,0.0,4.2633,4.278,4.3249,4.4301,4.5173,4.5756,4.6648,4.7358,4.7853,4.8357,4.8628,4.8691,4.8848,4.8941,4.8941,4.8987,4.9018,4.9018,4.9018,4.9018,4.9018,4.9018,4.9255,4.9695,4.9695,5.0135,5.0845,5.1319,5.1826,5.2367,5.2875,5.3247,5.3518,5.3518,5.3518,5.3518,5.3518,5.3518,5.3518,5.3518,5.3518,5.3518,5.3518,5.3518,5.3518,5.3518,5.3687,5.4025,5.4465,5.5023,5.5513,5.5969,5.6664,5.7171,5.7171,5.7577,5.79,5.79,5.79,5.79,5.79,5.79,5.79,5.79,5.79,5.79,5.79,5.79,5.79,5.79,5.79,5.79,5.79,5.79,5.79,5.79,5.79,5.79,5.79,5.79,5.7991,5.8189,5.8667,5.8995,5.9217,5.9732,6.0119,6.0388,6.0707,6.1013,6.1226,6.1724,6.2004,6.2057,6.2198,6.2335,6.2465,6.3055,6.3207,6.3155,6.3695,6.4014,6.4173,0.0,0.0,0.0,0.0,0.0,0.0,0.0,0.0,0.0,0.0,0.0,0.0,0.0,0.0,4.349,4.4513,4.5456,4.6139,4.6467,4.7308,4.7886,4.818,4.8565,4.8816,4.8863,4.8956,4.9018,4.9018,4.9018,4.9018,4.9018,4.9018,4.912,4.9357,4.9357,4.9627,5.0117,5.0371,5.0879,5.1607,5.2097,5.2469,5.2773,5.3315,5.3518,5.3518,5.3518,5.3518,5.3518,5.3518,5.3518,5.3518,5.3518,5.3518,5.3518,5.3518,5.3518,5.3518,5.3518,5.3518,5.3619,5.4093,5.4397,5.4735,5.5209,5.5919,5.6427,5.6427,5.6833,5.7171,5.7171,5.7171,5.7306,5.7832,5.79,5.79,5.79,5.79,5.79,5.79,5.79,5.79,5.79,5.79,5.79,5.79,5.79,5.79,5.79,5.79,5.79,5.79,5.8027,5.8187,5.8312,5.8892,5.9284,5.9468,6.0027,6.0423,6.0651,6.0878,6.1102,6.1292,6.1544,6.1692,6.1832,6.1914,6.2024,6.2191,6.2726,6.2867,6.2844,6.3387,6.3674,6.3771,0.0,0.0,0.0,0.0,0.0,0.0,0.0,0.0,0.0,4.3343,0.0,0.0,0.0,0.0,0.0,4.6274,4.6422,4.6815,4.7671,4.7836,4.8097,4.8499,4.8707,4.8863,4.9003,4.9018,4.9018,4.9018,4.9018,4.9018,4.9018,4.9018,4.9424,5.0117,5.015,5.015,5.0218,5.0947,5.1641,5.2334,5.2334,5.2807,5.3518,5.3518,5.3518,5.3518,5.3518,5.3518,5.3518,5.3518,5.3518,5.3518,5.3518,5.3518,5.3518,5.3518,5.3518,5.3518,0.0,0.0,0.0,5.3518,5.4025,5.4583,5.4583,5.5141,5.5665,5.5665,5.5665,5.5699,5.5699,5.5699,5.6172,5.7577,5.7832,5.7832,5.7832,5.7832,5.7832,5.7866,5.7866,5.79,5.79,5.79,5.79,5.79,5.79,5.79,5.79,5.79,5.79,5.79,5.8294,5.849,5.849,5.92,5.9652,5.9762,6.0294,6.062,6.0767,6.1081,6.1263,6.1292,6.1544,6.1768,6.1996,6.2301,6.2384,6.241,6.2552,6.2449,6.2212,6.2212,6.2212,6.2212,0.0,0.0,0.0,0.0,0.0,0.0,4.2913,4.2959,4.3067,0.0,0.0,0.0,4.3899,4.5077,4.6124,4.673,4.7339,4.7784,4.8065,4.8356,4.8612,4.8707,4.8863,4.8972,4.9018,4.9018,4.9018,4.9018,4.9018,4.9018,4.9018,4.956,4.9914,5.015,5.1217,5.1691,5.1691,5.1928,5.2469,5.3179,5.3179,5.3315,5.3518,5.3518,5.3518,5.3518,5.3518,5.3518,5.3518,5.3518,5.3518,5.3518,5.3518,5.3518,5.3518,5.3518,5.3518,5.3518,5.3518,0.0,0.0,0.0,0.0,0.0,5.3788,5.4363,5.4905,5.4905,5.5344,5.5699,5.5699,5.5699,5.5834,5.624,5.6325,5.6325,5.6325,5.6325,5.6528,5.7036,5.7103,5.7306,5.7866,5.79,5.79,5.79,5.79,5.79,5.79,5.79,5.79,5.79,5.8135,5.8294,5.8294,5.8719,5.9047,5.9233,5.9535,5.973,5.9857,5.9953,6.0129,6.0364,6.06,6.1051,6.1692,6.2185,6.2449,6.2552,6.2692,6.2692,6.2629,6.2629,6.2629,6.2629,0.0,0.0,0.0,0.0,0.0,0.0,4.3036,4.3113,4.3318,0.0,0.0,0.0,4.5393,4.6298,4.7087,4.7642,4.8154,4.8452,4.8531,4.8769,4.8879,4.8879,4.8972,4.9018,4.9018,4.9018,4.9018,4.9018,4.9018,4.9154,4.9458,4.9914,5.0421,5.1064,5.1928,5.2503,5.2807,5.2807,5.3078,5.3518,5.3518,5.3518,5.3518,5.3518,5.3518,5.3518,5.3518,5.3518,5.3518,5.3518,5.3518,5.3518,5.3518,5.3518,5.3518,5.3518,5.3518,5.3518,0.0,5.3518,5.3518,5.3518,0.0,0.0,5.3518,5.3822,5.4126,5.4126,5.4499,5.4786,5.4786,5.4786,5.4786,5.4786,5.4786,5.4989,5.5597,5.5699,5.5868,5.6274,5.6341,5.6528,5.6934,5.6968,5.7103,5.7408,5.7442,5.7595,5.79,5.79,5.79,5.79,5.8081,5.8189,5.8189,5.8544,5.8754,5.8892,5.9081,5.9233,5.93,5.93,5.945,5.9714,5.9956,6.0508,6.1242,6.1782,6.2265,6.2616,6.2743,6.2793,6.2793,6.2793,6.2793,6.2793,0.0,0.0,0.0,4.2013,4.2126,4.2381,4.3006,4.3209,4.3703,0.0,4.5006,4.5622,4.7207,4.7372,4.7765,4.8718,4.8816,4.8879,4.9003,4.9018,4.9018,4.9018,4.9018,4.9018,4.9018,4.9018,4.9018,4.9018,4.9086,4.9458,5.0117,5.0286,5.1048,5.23,5.2401,5.2841,5.3518,5.3518,5.3518,5.3518,5.3518,5.3518,5.3518,5.3518,5.3518,5.3518,5.3518,5.3518,5.3518,5.3518,5.3518,5.3518,5.3518,5.3518,5.3518,5.3518,5.3518,5.3518,5.3518,0.0,0.0,5.3518,5.3518,0.0,5.3518,5.3518,5.3518,5.3518,5.3518,5.3518,5.3518,5.3518,5.3518,5.3518,5.3518,5.3957,5.5259,5.5462,5.5496,5.5564,5.5564,5.5597,5.5699,5.5699,5.5969,5.663,5.6697,5.7002,5.773,5.7798,5.7832,5.79,5.8063,5.8187,5.8187,5.8474,5.8597,5.8597,5.8806,5.8875,5.8875,5.8875,5.8995,5.9234,5.9584,6.01,6.0767,6.1242,6.1878,6.2578,6.2705,6.2743,6.2743,6.273,6.273,6.273,0.0,0.0,4.1473,4.2013,4.2317,4.2633,4.3052,4.3834,4.4522,4.4963,4.6088,4.728,4.8373,4.8505,4.8601,4.8923,4.8972,4.8987,4.9018,4.9018,4.9018,4.9018,4.9018,4.9018,4.9018,4.9018,4.9018,4.9018,4.9593,4.9981,5.015,5.1319,5.2029,5.2334,5.2976,5.3348,5.3518,5.3518,5.3518,5.3518,5.3518,5.3518,5.3518,5.3518,5.3518,5.3518,5.3518,5.3518,5.3518,5.3518,5.3518,5.3518,5.3518,5.3518,5.3518,5.3518,5.3518,5.3518,5.3518,5.3518,5.3518,5.3518,5.3518,0.0,5.3518,5.3518,5.3518,5.3518,5.3518,5.3518,5.3518,5.3518,5.3518,5.3518,5.3518,5.3619,5.389,5.3923,5.416,5.4735,5.4803,5.504,5.5631,5.5699,5.5767,5.5902,5.5902,5.6258,5.6968,5.7002,5.7273,5.79,5.7936,5.7954,5.7954,5.8027,5.8063,5.8063,5.8099,5.8117,5.8117,5.8117,5.8296,5.8684,5.9012,5.9615,6.0415,6.0903,6.1558,6.2278,6.2446,6.2498,6.2449,6.2344,6.2305,6.2291,4.1489,4.1802,4.2077,4.2539,4.3113,4.367,4.4007,4.4833,4.5614,4.624,4.7448,4.8397,4.8861,4.8894,4.8925,4.8969,4.9018,4.9018,4.9018,4.9018,4.9018,4.9018,4.9018,4.9018,4.9018,4.9018,4.9018,4.9018,4.9729,5.027,5.0676,5.1792,5.2503,5.2909,5.3315,5.3518,5.3518,5.3518,5.3518,5.3518,5.3518,5.3518,5.3518,5.3518,5.3518,5.3518,5.3518,5.3518,5.3518,5.3518,5.3518,5.3518,5.3518,5.3518,5.3518,5.3518,5.3518,5.3518,5.3518,5.3518,5.3518,5.3518,5.3518,0.0,0.0,5.3518,5.3518,5.3518,5.3518,5.3518,5.3518,5.3518,5.3518,5.3518,5.3518,5.3518,5.3518,5.3518,5.3653,5.4025,5.4059,5.4194,5.4549,5.4583,5.4769,5.5141,5.5496,5.5868,5.624,5.624,5.6427,5.6799,5.7171,5.734,5.734,5.773,5.79,5.79,5.79,5.79,5.79,5.79,5.8099,5.8525,5.8754,5.935,6.0215,6.0466,6.0918,6.1529,6.1928,6.2064,6.2051,6.1914,6.1859,6.1845,4.1997,4.2365,4.2774,4.3231,4.4001,4.4757,4.5148,4.5888,4.6794,4.7806,4.8569,4.9018,4.9018,4.9018,4.9018,4.9018,4.9018,4.9018,4.9018,4.9018,4.9018,4.9018,4.9018,4.9018,4.9018,4.9018,4.9086,4.9221,4.9932,5.0676,5.1438,5.2198,5.2875,5.3518,5.3518,5.3518,5.3518,5.3518,5.3518,5.3518,5.3518,5.3518,5.3518,5.3518,5.3518,5.3518,5.3518,5.3518,5.3518,5.3518,5.3518,5.3518,5.3518,5.3518,5.3518,5.3518,5.3518,5.3518,5.3518,5.3518,5.3518,5.3518,5.3518,5.3518,0.0,0.0,0.0,5.3518,5.3518,5.3518,5.3518,5.3518,5.3518,5.3518,5.3518,5.3518,5.3518,5.3518,5.3518,5.3518,5.3518,5.3518,5.3518,5.3518,5.3754,5.4329,5.4921,5.5327,5.5462,5.5496,5.5564,5.5699,5.6274,5.6596,5.6596,5.7171,5.7476,5.7476,5.7476,5.7476,5.7476,5.7476,5.7674,5.8011,5.8152,5.8699,5.9475,5.9507,5.9741,6.0205,6.1113,6.1379,6.1221,6.1049,6.092,6.0776,4.19,4.2317,4.3045,4.3932,4.4546,4.5181,4.5878,4.6855,4.7839,4.8735,4.8935,4.9018,4.9018,4.9018,4.9018,4.9018,4.9018,4.9018,4.9018,4.9018,4.9018,4.9018,4.9018,4.9018,4.9018,4.9018,4.9323,4.9981,5.071,5.1438,5.2198,5.2976,5.3416,5.3518,5.3518,5.3518,5.3518,5.3518,5.3518,5.3518,5.3518,5.3518,5.3518,5.3518,5.3518,5.3518,5.3518,5.3518,5.3518,5.3518,5.3518,5.3518,5.3518,5.3518,5.3518,5.3518,5.3518,5.3518,5.3518,5.3518,5.3518,5.3518,5.3518,5.3518,5.3518,0.0,5.3518,5.3518,0.0,5.3518,5.3518,0.0,0.0,5.3518,5.3518,5.3518,5.3518,5.3518,5.3518,5.3518,5.3518,5.3518,5.3518,5.3518,5.3551,5.3619,5.3721,5.4025,5.4668,5.4702,5.5006,5.5665,5.5767,5.5834,5.5834,5.5902,5.5936,5.5936,5.5936,5.5936,5.5936,5.5936,5.6076,5.6268,5.6423,5.6745,5.7177,5.7288,5.7498,5.7887,5.988,6.023,5.9612,5.9309,5.8794,5.8164,4.2833,4.3576,4.4336,4.4815,4.5872,4.6806,4.7093,4.7888,4.8585,4.8935,4.9018,4.9018,4.9018,4.9018,4.9018,4.9018,4.9018,4.9018,4.9018,4.9018,4.9018,4.9018,4.9018,4.9018,4.9018,4.9018,4.9357,5.0117,5.0845,5.1573,5.2334,5.3112,5.3518,5.3518,5.3518,5.3518,5.3518,5.3518,5.3518,5.3518,5.3518,5.3518,5.3518,5.3518,5.3518,5.3518,5.3518,5.3518,5.3518,5.3518,5.3518,5.3518,5.3518,5.3518,5.3518,5.3518,5.3518,5.3518,5.3518,5.3518,5.3518,5.3518,5.3518,5.3518,5.3518,5.3518,5.3518,5.3518,0.0,0.0,0.0,0.0,0.0,0.0,5.3518,5.3518,5.3518,5.3518,5.3518,5.3518,5.3518,5.3518,5.3518,5.3518,5.3518,5.3518,5.3518,5.3653,5.3957,5.3957,5.4093,5.4414,5.4837,5.5074,5.5074,5.5496,5.5699,5.5699,5.5699,5.5699,5.5699,5.5699,5.5821,5.5996,5.6081,5.6286,5.6621,5.6587,5.6687,5.6902,5.7721,5.8049,5.7992,5.777,5.75,5.7206,4.4367,0.0,4.5421,4.5942,4.7053,4.7988,4.8157,4.868,4.9018,4.9018,4.9018,4.9018,4.9018,4.9018,4.9018,4.9018,4.9018,4.9018,4.9018,4.9018,4.9018,4.9018,4.9018,4.9018,4.9018,4.9018,4.9458,5.0405,5.093,5.1674,5.2638,5.3247,5.3518,5.3518,5.3518,5.3518,5.3518,5.3518,5.3518,5.3518,5.3518,5.3518,5.3518,5.3518,5.3518,5.3518,5.3518,5.3518,5.3518,5.3518,5.3518,5.3518,5.3518,5.3518,5.3518,5.3518,5.3518,5.3518,5.3518,5.3518,5.3518,5.3518,5.3518,5.3518,5.3518,5.3518,5.3518,5.3518,5.3518,0.0,0.0,0.0,5.3518,5.3518,0.0,5.3518,5.3518,5.3518,5.3518,5.3518,5.3518,5.3518,5.3518,5.3518,5.3518,5.3518,5.3518,5.3518,5.3518,5.3518,5.3534,5.3551,5.4059,5.4364,5.4449,5.4889,5.5159,5.5159,5.5108,5.509,5.509,5.509,5.5177,5.5298,5.5298,5.5451,5.5653,5.557,5.5587,5.5687,5.5553,5.5738,5.6068,5.6209,5.6142,5.597,4.645,4.5997,4.586,4.7353,4.7762,4.8157,4.8849,4.8984,4.9018,4.9018,4.9018,4.9018,4.9018,4.9018,4.9018,4.9018,4.9018,4.9018,4.9018,4.9018,4.9018,4.9018,4.9018,4.9018,4.9018,4.9018,4.9713,5.1167,5.1201,5.1979,5.345,5.3484,5.3518,5.3518,5.3518,5.3518,5.3518,5.3518,5.3518,5.3518,5.3518,5.3518,5.3518,5.3518,5.3518,5.3518,5.3518,5.3518,5.3518,5.3518,5.3518,5.3518,5.3518,5.3518,5.3518,5.3518,5.3518,5.3518,5.3518,5.3518,5.3518,5.3518,5.3518,5.3518,5.3518,5.3518,5.3518,5.3518,5.3518,5.3518,5.3518,5.3518,0.0,0.0,5.3518,0.0,0.0,5.3518,5.3518,5.3518,5.3518,5.3518,5.3518,5.3518,5.3518,5.3518,5.3518,5.3518,5.3518,5.3518,5.3551,5.3701,5.3735,5.3817,5.4014,5.3868,5.3769,5.3769,5.3619,5.3585,5.3585,5.3585,5.3585,5.3585,5.3585,5.3602,5.3602,5.3602,5.3602,5.3602,5.3602,5.3602,5.372,5.4618,5.4465,5.3785,4.7275,4.7267,4.7237,4.7759,4.8262,4.8714,4.8951,4.9018,4.9018,4.9018,4.9018,4.9187,4.9661,4.9729,4.9932,5.0389,5.0457,5.0457,5.0457,5.0457,5.0457,5.0457,4.9999,4.9729,4.9729,4.9255,4.9713,5.1201,5.1201,5.1979,5.3518,5.3518,5.3518,5.3518,5.3518,5.3518,5.3518,5.3518,5.3518,5.3518,5.3518,5.3518,5.3518,5.3518,5.3518,5.3518,5.3518,5.3518,5.3518,5.3518,5.3518,5.3518,5.3518,5.3518,5.3518,5.3518,5.3518,5.3518,5.3518,5.3518,5.3518,5.3518,5.3518,5.3518,5.3518,5.3518,5.3518,5.3518,5.3518,5.3518,5.3518,5.3518,0.0,0.0,0.0,5.3518,0.0,5.3044,5.2536,5.2046,5.2858,5.3518,5.3518,5.3518,5.3518,5.3518,5.3518,5.3518,5.3518,5.3518,5.3551,5.3701,5.3717,5.38,5.3997,5.38,5.3717,5.3717,5.3568,5.3518,5.3518,5.3518,5.3518,5.3518,5.3518,5.3518,5.3518,5.3518,5.3518,5.3518,5.3518,5.3518,5.3551,5.3856,5.3805,5.3601,4.8032,4.8293,4.8293,4.8293,4.8665,4.9018,4.9018,4.9018,4.9086,4.9357,4.939,4.9661,5.0405,5.0473,5.0676,5.1167,5.1201,5.1201,5.1201,5.1201,5.1201,5.1201,5.0744,5.0473,5.0473,5.0033,5.0389,5.1573,5.1573,5.2249,5.3518,5.3518,5.3518,5.3518,5.3518,5.3518,5.3518,5.3518,5.3518,5.3518,5.3518,5.3518,5.3518,5.3518,5.3518,5.3518,5.3518,5.3518,5.3518,5.3518,5.3518,5.3518,5.3518,5.3518,5.3518,5.3518,5.3518,5.3518,5.3518,5.3518,5.3518,5.3518,5.3518,5.3518,5.3518,5.3518,5.3518,5.3518,5.3518,5.3518,5.3518,5.3518,5.3518,0.0,0.0,0.0,0.0,5.2216,5.1708,5.1269,5.2334,5.3078,5.3078,5.3348,5.3518,5.3518,5.3518,5.3518,5.3518,5.3518,5.3584,5.38,5.3816,5.3931,5.4175,5.3931,5.3816,5.38,5.3601,5.3518,5.3518,5.3518,5.3518,5.3518,5.3518,5.3518,5.3518,5.3518,5.3518,5.3518,5.3518,5.3518,5.3518,5.3518,5.3518,5.3534,4.8757,4.9018,4.9018,4.9018,4.9018,4.9018,4.9052,4.9052,4.9323,5.0083,5.015,5.0439,5.1167,5.1235,5.1269,5.1302,5.1302,5.1302,5.1302,5.1302,5.1302,5.1302,5.1269,5.1235,5.1235,5.1235,5.1573,5.23,5.23,5.2706,5.3518,5.3518,5.3518,5.3518,5.3518,5.3518,5.3518,5.3518,5.3518,5.3518,5.3518,5.3518,5.3518,5.3518,5.3518,5.3518,5.3518,5.3518,5.3518,5.3518,5.3518,5.3518,5.3518,5.3518,5.3518,5.3518,5.3518,5.3518,5.3518,5.3518,5.3518,5.3518,5.3518,5.3518,5.3518,5.3518,5.3518,5.3518,5.3518,5.3518,5.3518,5.3518,5.3484,0.0,0.0,0.0,5.1235,5.1167,5.1133,5.11,5.1758,5.2232,5.23,5.2976,5.345,5.3518,5.3518,5.3518,5.3518,5.3518,5.3651,5.3964,5.398,5.4143,5.4463,5.4159,5.4013,5.3997,5.3685,5.3534,5.3501,5.3534,5.3534,5.3501,5.3551,5.3517,5.3517,5.3568,5.3568,5.3568,5.3568,5.3568,5.3568,5.3534,5.3534,5.3551,4.8938,4.9018,4.9018,4.9018,4.9018,4.9187,4.9729,4.983,5.0067,5.0829,5.0897,5.1201,5.1961,5.2029,5.2266,5.2858,5.2892,5.2892,5.2892,5.2892,5.2892,5.2892,5.2334,5.2029,5.2029,5.1472,5.1573,5.23,5.23,5.2706,5.3518,5.3518,5.3518,5.3518,5.3518,5.3518,5.3518,5.3518,5.3518,5.3518,5.3518,5.3518,5.3518,5.3518,5.3518,5.3518,5.3518,5.3518,5.3518,5.3518,5.3518,5.3518,5.3518,5.3518,5.3518,5.3518,5.3518,5.3518,5.3518,5.3518,5.3518,5.3518,5.3518,5.3518,5.3518,5.3518,5.3518,5.3518,5.3518,5.3518,5.3518,5.3518,5.3315,5.2706,0.0,5.1201,5.0473,5.0371,5.0168,4.9627,5.0202,5.1082,5.2198,5.2503,5.2875,5.345,5.3518,5.3518,5.3518,5.3518,5.3584,5.3783,5.3915,5.4094,5.4271,5.4191,5.4159,5.4159,5.3948,5.3783,5.3651,5.3783,5.3783,5.3651,5.3897,5.4011,5.4027,5.4175,5.4258,5.4258,5.4258,5.4258,5.4175,5.3783,5.3734,5.3866,4.8987,4.9018,4.912,4.9424,4.9492,4.9627,5.0049,5.0371,5.0845,5.1573,5.1674,5.1979,5.2739,5.2841,5.301,5.345,5.3518,5.3518,5.3518,5.3518,5.3518,5.3518,5.3078,5.2841,5.2841,5.2435,5.2418,5.2841,5.2841,5.3078,5.3518,5.3518,5.3518,5.3518,5.3518,5.3518,5.3518,5.3518,5.3518,5.3518,5.3518,5.3518,0.0,5.3518,5.3518,5.3518,5.3518,5.3518,5.3518,5.3518,5.3518,5.3518,5.3518,5.3518,5.3518,5.3518,5.3518,5.3518,5.3518,5.3518,5.3518,5.3518,5.3518,5.3518,5.3518,5.3518,5.3518,5.3518,5.3518,5.3518,5.3518,5.3213,5.2604,5.1522,5.098,5.0473,4.9729,4.9627,4.9458,4.9052,4.9357,5.0067,5.1217,5.1623,5.2131,5.2909,5.2976,5.3145,5.3484,5.3518,5.3551,5.3701,5.3899,5.4062,5.4207,5.4207,5.4207,5.4207,5.4062,5.3931,5.3849,5.4029,5.4094,5.4062,5.4317,5.4428,5.4444,5.4523,5.4557,5.4529,5.4557,5.4695,5.485,5.4491,5.4237,5.4076,4.9089,4.9154,4.939,5.0101,5.0304,5.0387,5.0387,5.0947,5.1607,5.2367,5.2469,5.2739,5.3416,5.3518,5.3518,5.3518,5.3518,5.3518,5.3518,5.3518,5.3518,5.3518,5.3518,5.3518,5.3518,5.3518,5.3518,5.3518,5.3518,5.3518,5.3518,5.3518,5.3518,5.3518,5.3518,5.3518,5.3518,5.3518,5.3518,5.3518,5.3518,5.3518,5.3518,5.3518,5.3518,5.3518,5.3518,5.3518,5.3518,5.3518,5.3518,5.3518,5.3518,5.3518,5.3518,5.3518,5.3518,5.3518,5.3518,5.3518,5.3518,5.3518,5.3518,5.3518,5.3518,5.3518,5.3518,5.3518,5.3518,5.3518,5.3518,5.2773,5.1691,5.032,5.0015,4.9729,4.9086,4.9018,4.9018,4.9018,4.9018,0.0,4.9898,5.0642,5.137,5.2097,5.2266,5.2604,5.3315,5.3467,5.3584,5.3701,5.3931,5.411,5.4207,5.4287,5.4287,5.4239,5.4143,5.4078,5.4029,5.4189,5.4365,5.4526,5.4726,5.4834,5.4865,5.4911,5.485,5.4761,5.488,5.5179,5.5549,5.5422,5.4968,5.4457,4.9796,4.9914,5.0135,5.0863,5.1522,5.1894,5.1894,5.2029,5.2401,5.3179,5.3281,5.3348,5.3484,5.3518,5.3518,5.3518,5.3518,5.3518,5.3518,5.3518,5.3518,5.3518,5.3518,5.3518,5.3518,5.3518,5.3518,5.3518,5.3518,5.3518,5.3518,5.3518,5.3518,5.3518,5.3518,5.3518,5.3518,5.3518,5.3518,5.3518,5.3518,5.3518,5.3518,5.3518,5.3518,5.3518,5.3518,5.3518,5.3518,5.3518,5.3518,5.3518,5.3518,5.3518,5.3518,5.3518,5.3518,5.3518,5.3518,5.3518,5.3518,5.3518,5.3518,5.3518,5.3518,5.3518,5.3518,5.3518,5.3518,5.3518,5.3518,5.2351,5.11,5.0236,4.9593,4.9154,4.9018,4.9018,4.9018,4.9018,4.9018,4.9052,4.9187,4.9864,5.0608,5.1336,5.1961,5.2367,5.2503,5.3245,5.3684,5.3717,5.4159,5.4335,5.4207,5.4652,5.473,5.4447,5.4608,5.4513,5.4191,5.451,5.4683,5.4695,5.5259,5.5604,5.57,5.5972,5.6092,5.6077,5.6106,5.6231,5.6361,5.6245,5.6084,5.5816,5.0541,5.0676,5.0913,5.1641,5.2063,5.2435,5.2875,5.2909,5.3078,5.345,5.3518,5.3518,5.3518,5.3518,5.3518,5.3518,5.3518,5.3518,5.3518,5.3518,5.3518,5.3518,5.3518,5.3518,5.3518,5.3518,5.3518,5.3518,5.3518,5.3518,5.3518,5.3518,5.3518,5.3518,5.3518,5.3518,5.3518,5.3518,5.3518,5.3518,5.3518,5.3518,5.3518,5.3518,5.3518,5.3518,5.3518,5.3518,5.3518,5.3518,5.3518,5.3518,5.3518,5.3518,5.3518,5.3518,5.3518,5.3518,5.3518,5.3518,5.3518,5.3518,5.3518,5.3518,5.3518,5.3518,5.3518,5.3518,5.3518,5.3281,5.2452,5.1708,5.0829,4.9695,4.9221,4.9018,4.9018,4.9018,4.9018,4.9018,4.9018,4.9018,4.9018,4.9323,4.983,5.0574,5.0947,5.1488,5.2266,5.2837,5.3293,5.3683,5.4127,5.4303,5.4207,5.4557,5.4652,5.4478,5.4702,5.4702,5.4545,5.4965,5.5219,5.5363,5.5865,5.6148,5.6286,5.6355,5.6424,5.6505,5.6505,5.668,5.6881,5.6773,5.6776,5.6727,5.1302,5.1438,5.1674,5.2435,5.257,5.2773,5.3416,5.3518,5.3518,5.3518,5.3518,5.3518,5.3518,5.3518,5.3518,5.3518,5.3518,5.3518,5.3518,5.3518,5.3518,5.3518,5.3518,5.3518,5.3518,5.3518,5.3518,5.3518,5.3518,5.3518,5.3518,5.3518,5.3518,5.3518,5.3518,5.3518,5.3518,5.3518,5.3518,5.3518,5.3518,5.3518,5.3518,5.3518,5.3518,5.3518,5.3518,5.3518,5.3518,5.3518,5.3518,5.3518,5.3518,5.3518,5.3518,5.3518,5.3518,5.3518,5.3518,5.3518,5.3518,5.3518,5.3518,5.3518,5.3518,5.3518,5.3518,5.3518,5.3518,5.3044,5.1472,5.1201,5.0728,4.9255,4.9018,4.9018,4.9018,4.9018,4.9018,4.9018,4.9018,4.9018,4.9018,4.9018,4.9255,4.983,5.0015,5.0624,5.1758,5.236,5.295,5.3495,5.4072,5.4351,5.4271,5.4526,5.462,5.4576,5.4795,5.4888,5.4904,5.5344,5.5677,5.5957,5.63,5.6573,5.6773,5.6693,5.6733,5.6789,5.6789,5.701,5.7301,5.7163,5.7276,5.7351,5.2063,5.2198,5.2469,5.3247,5.3382,5.3416,5.3484,5.3518,5.3518,5.3518,5.3518,5.3518,5.3518,5.3518,5.3518,5.3518,5.3518,5.3518,5.3518,5.3518,5.3518,5.3518,5.3518,5.3518,5.3518,5.3518,5.3518,5.3518,5.3518,5.3518,5.3518,5.3518,5.3518,5.3518,5.3518,5.3518,5.3518,5.3518,5.3518,5.3518,5.3518,5.3518,5.3518,5.3518,5.3518,5.3518,5.3518,5.3518,5.3518,5.3518,5.3518,5.3518,5.3518,5.3518,5.3518,5.3518,5.3518,5.3518,5.3518,5.3518,5.3518,5.3518,5.3518,5.3518,5.3518,5.3518,5.3518,5.3518,5.3518,5.3044,5.1472,5.1201,5.0728,4.9255,4.9018,4.9018,4.9018,4.9018,4.9018,4.9018,4.9018,4.9018,4.9018,4.9018,4.9052,4.9086,4.9729,5.015,5.032,5.1945,5.2905,5.2974,5.4259,5.4776,5.4463,5.4911,5.5022,5.4764,5.5053,5.5169,5.5169,5.5531,5.5836,5.6112,5.6451,5.6842,5.7326,5.7437,5.7486,5.7498,5.7498,5.7595,5.7751,5.7583,5.7655,5.7691,5.2875,5.301,5.3112,5.345,5.3518,5.3518,5.3518,5.3518,5.3518,5.3518,5.3518,5.3518,5.3518,5.3518,5.3518,5.3518,5.3518,5.3518,5.3518,5.3518,5.3518,5.3518,5.3518,5.3518,5.3518,5.3518,5.3518,5.3518,5.3518,5.3518,5.3518,5.3518,5.3518,5.3518,5.3518,5.3518,5.3518,5.3518,5.3518,5.3518,5.3518,5.3518,5.3518,5.3518,5.3518,5.3518,5.3518,5.3518,5.3518,5.3518,5.3518,5.3518,5.3518,5.3518,5.3518,5.3518,5.3518,5.3518,5.3518,5.3518,5.3518,5.3518,5.3518,5.3518,5.3518,5.3518,5.3518,5.3518,5.3518,5.3044,5.1472,5.1201,5.0728,4.9255,4.9018,4.9018,4.9018,4.9018,4.9018,4.9018,4.9018,4.9018,4.9018,4.9018,4.9018,4.9018,4.9255,4.9627,5.0083,5.0914,5.187,5.2853,5.3651,5.4248,5.4686,5.4946,5.5083,5.5053,5.5279,5.5428,5.5496,5.5936,5.6333,5.6789,5.6984,5.7239,5.751,5.7559,5.7583,5.7583,5.7583,5.7667,5.781,5.7751,5.7822,5.7916,5.3382,5.3518,5.3518,5.3518,5.3518,5.3518,5.3518,5.3518,5.3518,5.3518,5.3518,5.3518,5.3518,5.3518,5.3518,5.3518,5.3518,5.3518,5.3518,5.3518,5.3518,5.3518,5.3518,5.3518,5.3518,5.3518,5.3518,5.3518,5.3518,5.3518,5.3518,5.3518,5.3518,5.3518,5.3518,5.3518,5.3518,5.3518,5.3518,5.3518,5.3518,5.3518,5.3518,5.3518,5.3518,5.3518,5.3518,5.3518,5.3518,5.3518,5.3518,5.3518,5.3518,5.3518,5.3518,5.3518,5.3518,5.3518,5.3518,5.3518,5.3518,5.3518,5.3518,5.3518,5.3518,5.3518,5.3518,5.3518,5.3518,5.3112,5.1776,5.1336,5.0795,4.9526,4.9154,4.9018,4.9018,4.9018,4.9018,4.9018,4.9018,4.9018,4.9018,4.9018,4.9018,4.9018,4.9049,4.9283,4.9807,5.028,5.1182,5.259,5.3222,5.3967,5.4857,5.5037,5.5219,5.5348,5.5531,5.5713,5.585,5.6314,5.6786,5.7201,5.7375,5.7522,5.7643,5.7679,5.7739,5.7739,5.7739,5.7786,5.7869,5.7869,5.7927,5.7997,5.3518,5.3518,5.3518,5.3518,5.3518,5.3518,5.3518,5.3518,5.3518,5.3518,5.3518,5.3518,5.3518,5.3518,5.3518,5.3518,5.3518,5.3518,5.3518,5.3518,5.3518,5.3518,5.3518,5.3518,5.3518,5.3518,5.3518,5.3518,5.3518,5.3518,5.3518,5.3518,5.3518,5.3518,5.3518,5.3518,5.3518,5.3518,5.3518,5.3518,5.3518,5.3518,5.3518,5.3518,5.3518,5.3518,5.3518,5.3518,5.3518,5.3518,5.3518,5.3518,5.3518,5.3518,5.3518,5.3518,5.3518,5.3518,5.3518,5.3518,5.3518,5.3518,5.3518,5.3518,5.3518,5.3518,5.3518,5.3518,5.3518,5.3247,5.2435,5.1674,5.098,5.0218,4.9492,4.9018,4.9018,4.9018,4.9018,4.9018,4.9018,4.9018,4.9018,4.9018,4.9018,4.9018,4.9123,4.9199,4.9199,5.0283,5.1234,5.1989,5.3236,5.4241,5.4992,5.5344,5.5566,5.5692,5.585,5.6007,5.6211,5.6613,5.6933,5.7201,5.7474,5.7655,5.7822,5.7939,5.7997,5.7997,5.7997,5.7997,5.7997,5.7997,5.7997,5.7997,5.3518,5.3518,5.3518,5.3518,5.3518,5.3518,5.3518,5.3518,5.3518,5.3518,5.3518,5.3518,5.3518,5.3518,5.3518,5.3518,5.3518,5.3518,5.3518,5.3518,5.3518,5.3518,5.3518,5.3518,5.3518,5.3518,5.3518,5.3518,5.3518,5.3518,5.3518,5.3518,5.3518,5.3518,5.3518,5.3518,5.3518,5.3518,5.3518,5.3518,5.3518,5.3518,5.3518,5.3518,5.3518,5.3518,5.3518,5.3518,5.3518,5.3518,5.3518,5.3518,5.3518,5.3518,5.3518,5.3518,5.3518,5.3518,5.3518,5.3518,5.3518,5.3518,5.3518,5.3518,5.3518,5.3518,5.3518,5.3518,5.3518,5.3247,5.2469,5.1708,5.0964,5.0202,4.9492,4.9018,4.9018,4.9018,4.9018,4.9018,4.9018,4.9018,4.9018,4.9018,4.9018,4.9018,4.9245,4.9335,4.9214,4.968,5.0339,5.1234,5.2349,5.3411,5.4371,5.5294,5.5908,5.6175,5.6314,5.6519,5.676,5.6763,5.7036,5.7461,5.7547,5.7751,5.7939,5.7985,5.7997,5.7997,5.7997,5.7997,5.7997,5.7997,5.7997,5.7923,5.3518,5.3518,5.3518,5.3518,5.3518,5.3518,5.3518,5.3518,5.3518,5.3518,5.3518,5.3518,5.3518,5.3518,5.3518,5.3518,5.3518,5.3518,5.3518,5.3518,5.3518,5.3518,5.3518,5.3518,5.3518,5.3518,5.3518,5.3518,5.3518,5.3518,5.3518,5.3518,5.3518,5.3518,5.3518,5.3518,5.3518,5.3518,5.3518,5.3518,5.3518,5.3518,5.3518,5.3518,5.3518,5.3518,5.3518,5.3518,5.3518,5.3518,5.3518,5.3518,5.3518,5.3518,5.3518,5.3518,5.3518,5.3518,5.3518,5.3518,5.3518,5.3518,5.3518,5.3518,5.3518,5.3518,5.3518,5.3518,5.3518,5.3348,5.2841,5.1911,5.1032,5.0574,4.9661,4.9018,4.9018,4.9018,4.9018,4.9018,4.9018,4.9018,4.9018,4.9018,4.9018,4.9018,4.9229,4.9366,4.9305,4.959,5.0169,5.1109,5.1859,5.2852,5.4148,5.503,5.578,5.635,5.6559,5.6839,5.7061,5.7023,5.7251,5.7691,5.7691,5.781,5.7997,5.7997,5.7997,5.7997,5.7997,5.7997,5.796,5.7666,5.7556,5.7446,5.3518,5.3518,5.3518,5.3518,5.3518,5.3518,5.3518,5.3518,5.3518,5.3518,5.3518,5.3518,5.3518,5.3518,5.3518,5.3518,5.3518,5.3518,5.3518,5.3518,5.3518,5.3518,5.3518,5.3518,5.3518,5.3518,5.3518,5.3518,5.3518,5.3518,5.3518,5.3518,5.3518,5.3518,5.3518,5.3518,5.3518,5.3518,5.3518,5.3518,5.3518,5.3518,5.3518,5.3518,5.3518,5.3518,5.3518,5.3518,5.3518,5.3518,5.3518,5.3518,5.3518,5.3518,5.3518,5.3518,5.3518,5.3518,5.3518,5.3518,5.3518,5.3518,5.3518,5.3518,5.3518,5.3518,5.3518,5.3518,5.3518,5.3518,5.3518,5.2249,5.1201,5.1201,4.995,4.9018,4.9018,4.9018,4.9018,4.9018,4.9018,4.9018,4.9018,4.9018,4.9018,4.9018,4.9123,4.929,4.9486,4.9942,5.0589,5.1413,5.1668,5.2572,5.4167,5.462,5.5318,5.6267,5.664,5.6946,5.7213,5.7338,5.7534,5.781,5.781,5.7881,5.7997,5.7997,5.7997,5.7997,5.7997,5.796,5.7813,5.7079,5.6774,5.659,5.3518,5.3518,5.3518,5.3518,5.3518,5.3518,5.3518,5.3518,5.3518,5.3518,5.3518,5.3518,5.3518,5.3518,5.3518,5.3518,5.3518,5.3518,5.3518,5.3518,5.3518,5.3518,5.3518,5.3518,5.3518,5.3518,5.3518,5.3518,5.3518,5.3518,5.3518,5.3518,5.3518,5.3518,5.3518,5.3518,5.3518,5.3518,5.3518,5.3518,5.3518,5.3518,5.3518,5.3518,5.3518,5.3518,5.3518,5.3518,5.3518,5.3518,5.3518,5.3518,5.3518,5.3518,5.3518,5.3518,5.3518,5.3518,5.3518,5.3518,5.3518,5.3518,5.3518,5.3518,5.3518,5.3518,5.3518,5.3518,5.3518,5.3518,5.3518,5.2249,5.1201,5.1201,4.995,4.9018,4.9018,4.9018,4.9018,4.9018,4.9018,4.9018,4.9018,4.9018,4.9018,4.9018,4.9123,4.9335,4.9634,4.9999,5.0347,5.0662,5.1522,5.2241,5.2832,5.4357,5.5678,5.6789,5.6894,5.7087,5.7338,5.7375,5.7534,5.781,5.781,5.7881,5.7997,5.7997,5.7997,5.7997,5.7997,5.7629,5.7068,5.6847,5.6418,5.5768,5.3518,5.3518,5.3518,5.3518,5.3518,5.3518,5.3518,5.3518,5.3518,5.3518,5.3518,5.3518,5.3518,5.3518,5.3518,5.3518,5.3518,5.3518,5.3518,5.3518,5.3518,5.3518,5.3518,5.3518,5.3518,5.3518,5.3518,5.3518,5.3518,5.3518,5.3518,5.3518,5.3518,5.3518,5.3518,5.3518,5.3518,5.3518,5.3518,5.3518,5.3518,5.3518,5.3518,5.3518,5.3518,5.3518,5.3518,5.3518,5.3518,5.3518,5.3518,5.3518,5.3518,5.3518,5.3518,5.3518,5.3518,5.3518,5.3518,5.3518,5.3518,5.3518,5.3518,5.3518,5.3518,5.3518,5.3518,5.3518,5.3518,5.3518,5.3518,5.2536,5.1573,5.1235,5.027,4.939,4.9052,4.9018,4.9018,4.9018,4.9018,4.9018,4.9018,4.9018,4.9018,4.9018,4.9061,4.9214,4.9456,4.9796,5.0157,5.0578,5.13,5.1944,5.2489,5.4345,5.5662,5.6443,5.6932,5.7289,5.7486,5.7607,5.7763,5.7904,5.7904,5.7719,5.7446,5.7446,5.7226,5.6907,5.6907,5.6638,5.6198,5.5831,5.5427,5.495,5.3518,5.3518,5.3518,5.3518,5.3518,5.3518,5.3518,5.3518,5.3518,5.3518,5.3518,5.3518,5.3518,5.3518,5.3518,5.3518,5.3518,5.3518,5.3518,5.3518,5.3518,5.3518,5.3518,5.3518,5.3518,5.3518,5.3518,5.3518,5.3518,5.3518,5.3518,5.3518,5.3518,5.3518,5.3518,5.3518,5.3518,5.3518,5.3518,5.3518,5.3518,5.3518,5.3518,5.3518,5.3518,5.3518,5.3518,5.3518,5.3518,5.3518,5.3518,5.3518,5.3518,5.3518,5.3518,5.3518,5.3518,5.3518,5.3518,5.3518,5.3518,5.3518,5.3518,5.3518,5.3518,5.3518,5.3518,5.3518,5.3518,5.3518,5.3518,5.2841,5.2063,5.1336,5.0574,4.983,4.912,4.9018,4.9018,4.9018,4.9018,4.9018,4.9018,4.9018,4.9018,4.9018,4.9018,4.9046,4.9199,4.95,4.9999,5.0681,5.1066,5.1731,5.2685,5.4301,5.5289,5.5676,5.6612,5.7122,5.729,5.7526,5.7641,5.7641,5.7641,5.7262,5.6638,5.6638,5.6235,5.5585,5.5585,5.5548,5.5328,5.4656,5.4326,5.4106,5.3518,5.3518,5.3518,5.3518,5.3518,5.3518,5.3518,5.3518,5.3518,5.3518,5.3518,5.3518,5.3518,5.3518,5.3518,5.3518,5.3518,5.3518,5.3518,5.3518,5.3518,5.3518,5.3518,5.3518,5.3518,5.3518,5.3518,5.3518,5.3518,5.3518,5.3518,5.3518,5.3518,5.3518,5.3518,5.3518,5.3518,5.3518,5.3518,5.3518,5.3518,5.3518,5.3518,5.3518,5.3518,5.3518,5.3518,5.3518,5.3518,5.3518,5.3518,5.3518,5.3518,5.3518,5.3518,5.3518,5.3518,5.3518,5.3518,5.3518,5.3518,5.3518,5.3518,5.3518,5.3518,5.3518,5.3518,5.3518,5.3518,5.3518,5.3518,5.2841,5.2063,5.1336,5.0574,4.983,4.912,4.9018,4.9018,4.9018,4.9018,4.9018,4.9018,4.9018,4.9018,4.9018,4.9018,4.9046,4.9199,4.9411,4.9767,5.0271,5.0846,5.177,5.3069,5.3505,5.4182,5.5136,5.5399,5.5612,5.5738,5.5885,5.5989,5.5989,5.5989,5.5915,5.5805,5.5805,5.5695,5.5585,5.5585,5.5181,5.4583,5.4436,5.3959,5.3361,5.3518,5.3518,5.3518,5.3518,5.3518,5.3518,5.3518,5.3518,5.3518,5.3518,5.3518,5.3518,5.3518,5.3518,5.3518,5.3518,5.3518,5.3518,5.3518,5.3518,5.3518,5.3518,5.3518,5.3518,5.3518,5.3518,5.3518,5.3518,5.3518,5.3518,5.3518,5.3518,5.3518,5.3518,5.3518,5.3518,5.3518,5.3518,5.3518,5.3518,5.3518,5.3518,5.3518,5.3518,5.3518,5.3518,5.3518,5.3518,5.3518,5.3518,5.3518,5.3518,5.3518,5.3518,5.3518,5.3518,5.3518,5.3518,5.3518,5.3518,5.3518,5.3518,5.3518,5.3518,5.3518,5.3518,5.3518,5.3518,5.3518,5.3518,5.3518,5.3213,5.257,5.1404,5.0897,5.0304,4.9154,4.9018,4.9018,4.9018,4.9018,4.9018,4.9018,4.9018,4.9018,4.9018,4.9018,4.9049,4.9077,4.9245,4.9486,4.9796,5.0797,5.1724,5.2605,5.3171,5.3749,5.4371,5.4936,5.5281,5.5407,5.553,5.5585,5.5585,5.5585,5.5365,5.4961,5.4961,5.4693,5.4326,5.4326,5.4069,5.3739,5.3739,5.3508,5.3214,5.3518,5.3518,5.3518,5.3518,5.3518,5.3518,5.3518,5.3518,5.3518,5.3518,5.3518,5.3518,5.3518,5.3518,5.3518,5.3518,5.3518,5.3518,5.3518,5.3518,5.3518,5.3518,5.3518,5.3518,5.3518,5.3518,5.3518,5.3518,5.3518,5.3518,5.3518,5.3518,5.3518,5.3518,5.3518,5.3518,5.3518,5.3518,5.3518,5.3518,5.3518,5.3518,5.3518,5.3518,5.3518,5.3518,5.3518,5.3518,5.3518,5.3518,5.3518,5.3518,5.3518,5.3518,5.3518,5.3518,5.3518,5.3518,5.3518,5.3518,5.3518,5.3518,5.3518,5.3518,5.3518,5.3518,5.3518,5.3518,5.3518,5.3518,5.3518,5.3518,5.301,5.1438,5.1201,5.0694,4.9221,4.9018,4.9018,4.9018,4.9018,4.9018,4.9018,4.9018,4.9018,4.9018,4.9018,4.9018,4.9018,4.9092,4.9275,4.953,5.0681,5.1508,5.1932,5.2714,5.3231,5.3489,5.4257,5.4722,5.4858,5.4979,5.5034,5.5034,5.5034,5.4693,5.4106,5.4106,5.3765,5.3214,5.3214,5.3214,5.3214,5.3214,5.3214,5.3214,5.3518,5.3518,5.3518,5.3518,5.3518,5.3518,5.3518,5.3518,5.3518,5.3518,5.3518,5.3518,5.3518,5.3518,5.3518,5.3518,5.3518,5.3518,5.3518,5.3518,5.3518,5.3518,5.3518,5.3518,5.3518,5.3518,5.3518,5.3518,5.3518,5.3518,5.3518,5.3518,5.3518,5.3518,5.3518,5.3518,5.3518,5.3518,5.3518,5.3518,5.3518,5.3518,5.3518,5.3518,5.3518,5.3518,5.3518,5.3518,5.3518,5.3518,5.3518,5.3518,5.3518,5.3518,5.3518,5.3518,5.3518,5.3518,5.3518,5.3518,5.3518,5.3518,5.3518,5.3518,5.3518,5.3518,5.3518,5.3518,5.3518,5.3518,5.3518,5.3518,5.301,5.1438,5.1201,5.0694,4.9221,4.9018,4.9018,4.9018,4.9018,4.9018,4.9018,4.9018,4.9018,4.9018,4.9018,4.9018,4.9018,4.9018,4.9214,4.9664,5.0321,5.0937,5.1449,5.1785,5.2126,5.2528,5.2828,5.3043,5.3174,5.3318,5.3398,5.3398,5.3398,5.3324,5.3287,5.3287,5.3251,5.3214,5.3214,5.3214,5.3214,5.3214,5.3214,5.3214,5.3518,5.3518,5.3518,5.3518,5.3518,5.3518,5.3518,5.3518,5.3518,5.3518,5.3518,5.3518,5.3518,5.3518,5.3518,5.3518,5.3518,5.3518,5.3518,5.3518,5.3518,5.3518,5.3518,5.3518,5.3518,5.3518,5.3518,5.3518,5.3518,5.3518,5.3518,5.3518,5.3518,5.3518,5.3518,5.3518,5.3518,5.3518,5.3518,5.3518,5.3518,5.3518,5.3518,5.3518,5.3518,5.3518,5.3518,5.3518,5.3518,5.3518,5.3518,5.3518,5.3518,5.3518,5.3416,5.2909,5.2773,5.2773,5.2773,5.3112,5.3518,5.3518,5.3518,5.3518,5.3518,5.3518,5.3518,5.3518,5.3518,5.3518,5.3518,5.3078,5.2418,5.137,5.0829,5.0168,4.9154,4.9018,4.9018,4.9018,4.9018,4.9018,4.9018,4.9018,4.9018,4.9018,4.9018,4.9018,4.9018,4.9077,4.9305,4.9693,5.0129,5.0612,5.1153,5.1472,5.1848,5.2291,5.2545,5.2794,5.2991,5.3135,5.3214,5.3214,5.3214,5.3214,5.3214,5.3214,5.3214,5.3214,5.3214,5.3214,5.3214,5.3214,5.3214,5.3214,5.3518,5.3518,5.3518,5.3518,5.3518,5.3518,5.3518,5.3518,5.3518,5.3518,5.3518,5.3518,5.3518,5.3518,5.3518,5.3518,5.3518,5.3518,5.3518,5.3518,5.3518,5.3518,5.3518,5.3518,5.3518,5.3518,5.3518,5.3518,5.3518,5.3518,5.3518,5.3518,5.3518,5.3518,5.3518,5.3518,5.3518,5.3518,5.3518,5.3518,5.3518,5.3518,5.3518,5.3518,5.3518,5.3518,5.3518,5.3348,5.3112,5.3112,5.2976,5.2773,5.2773,5.2773,5.2655,5.2131,5.1961,5.1961,5.1961,5.2351,5.2892,5.3382,5.3518,5.3518,5.3518,5.3518,5.345,5.3179,5.3112,5.3044,5.2824,5.2334,5.1725,5.0964,5.0439,4.983,4.912,4.9018,4.9018,4.9018,4.9018,4.9018,4.9018,4.9018,4.9018,4.9018,4.9018,4.9034,4.9046,4.9199,4.9471,4.984,5.0157,5.0571,5.1114,5.1393,5.171,5.2114,5.2442,5.2739,5.2937,5.3114,5.3214,5.3214,5.3214,5.3214,5.3214,5.3214,5.3214,5.3214,5.3214,5.3214,5.3214,5.3214,5.3214,5.3214,5.3518,5.3518,5.3518,5.3518,5.3518,5.3518,5.3518,5.3518,5.3518,5.3518,5.3518,5.3518,5.3518,5.3518,5.3518,5.3518,5.3518,5.3518,5.3518,5.3518,5.3518,5.3518,5.3518,5.3518,5.3518,5.3518,5.3518,5.3518,5.3518,5.3518,5.3518,5.3518,5.3518,5.3518,5.3518,5.3518,5.3518,5.3518,5.3518,5.3518,5.3518,5.3518,5.3518,5.3518,5.3518,5.3484,5.3484,5.2976,5.23,5.23,5.1826,5.1201,5.1201,5.1201,5.1201,5.1201,5.1201,5.1201,5.1201,5.1201,5.1573,5.3112,5.3484,5.3484,5.3484,5.3484,5.3281,5.2469,5.23,5.2063,5.1336,5.1201,5.093,5.0202,5.0117,4.983,4.912,4.9018,4.9018,4.9018,4.9018,4.9018,4.9018,4.9018,4.9018,4.9018,4.9018,4.9046,4.9199,4.9381,4.9708,5.0171,5.0446,5.0848,5.1398,5.147,5.1632,5.1907,5.2397,5.2658,5.2806,5.3071,5.3214,5.3214,5.3214,5.3214,5.3214,5.3214,5.3214,5.3214,5.3214,5.3214,5.3214,5.3214,5.3214,5.3214,5.3518,5.3518,5.3518,5.3518,5.3518,5.3518,5.3518,5.3518,5.3518,5.3518,5.3518,5.3518,5.3518,5.3518,5.3518,5.3518,5.3518,5.3518,5.3518,5.3518,5.3518,5.3518,5.3518,5.3518,5.3518,5.3518,5.3518,5.3518,5.3518,5.3518,5.3518,5.3518,5.3518,5.3518,5.3518,5.3518,5.3518,5.3518,5.3518,5.3518,5.3518,5.3518,5.3518,5.3518,5.3145,5.2672,5.2672,5.2148,5.1539,5.1539,5.137,5.1201,5.1201,5.0845,5.0439,5.0439,5.0439,5.0439,5.0439,5.0811,5.1302,5.1776,5.1877,5.1877,5.1877,5.1877,5.181,5.1573,5.1539,5.1472,5.1235,5.0777,5.0338,5.015,4.9661,4.9255,4.9052,4.9018,4.9018,4.9018,4.9018,4.9018,4.9018,4.9018,4.9018,4.9018,4.9018,4.9046,4.9199,4.9486,4.9854,5.0313,5.0776,5.1214,5.1622,5.1674,5.1897,5.2233,5.2593,5.2817,5.2937,5.3114,5.3214,5.3214,5.3214,5.3214,5.3214,5.3214,5.3214,5.3214,5.3214,5.3214,5.3214,5.3214,5.3214,5.3214,5.3518,5.3518,5.3518,5.3518,5.3518,5.3518,5.3518,5.3518,5.3518,5.3518,5.3518,5.3518,5.3518,5.3518,5.3518,5.3518,5.3518,5.3518,5.3518,5.3518,5.3518,5.3518,5.3518,5.3518,5.3518,5.3518,5.3518,5.3518,5.3518,5.3518,5.3518,5.3518,5.3518,5.3518,5.3518,5.3518,5.3518,5.3518,5.3518,5.3518,5.3518,5.3518,5.3484,5.3145,5.2739,5.2266,5.1961,5.137,5.0777,5.0777,5.0558,5.0322,5.0322,5.0033,4.9661,4.9661,4.9661,4.9661,4.9661,4.9999,5.0322,5.0322,5.0761,5.1201,5.1201,5.1201,5.1133,5.0845,5.0777,5.0676,5.0389,4.9965,4.9661,4.9661,4.9289,4.9018,4.9018,4.9018,4.9018,4.9018,4.9018,4.9018,4.9018,4.9018,4.9018,4.9018,4.9018,4.9077,4.9305,4.956,4.9942,5.0467,5.091,5.1331,5.176,5.1909,5.2138,5.2444,5.2739,5.2915,5.2991,5.3135,5.3214,5.3214,5.3214,5.3214,5.3214,5.3214,5.3214,5.3214,5.3214,5.3214,5.3214,5.3214,5.3214,5.3214,5.3518,5.3518,5.3518,5.3518,5.3518,5.3518,5.3518,5.3518,5.3518,5.3518,5.3518,5.3518,5.3518,5.3518,5.3518,5.3518,5.3518,5.3518,5.3518,5.3518,5.3518,5.3518,5.3518,5.3518,5.3518,5.3518,5.3518,5.3518,5.3518,5.3518,5.3518,5.3518,5.3518,5.3518,5.3518,5.3518,5.3518,5.3518,5.3518,5.3518,5.3518,5.345,5.3315,5.257,5.2232,5.2029,5.1336,5.0642,4.9999,4.9999,4.956,4.9018,4.9018,4.9018,4.9018,4.9018,4.9018,4.9018,4.9018,4.9018,4.9018,4.9018,5.0017,5.0998,5.0998,5.0998,5.0795,5.015,4.9999,4.9812,4.912,4.9018,4.9018,4.9018,4.9018,4.9018,4.9018,4.9018,4.9018,4.9018,4.9018,4.9018,4.9018,4.9018,4.9018,4.9018,4.9018,4.9157,4.9441,4.9605,4.9971,5.0543,5.0857,5.128,5.1859,5.209,5.2303,5.2515,5.2864,5.3028,5.3039,5.3135,5.3214,5.3214,5.3214,5.3214,5.3214,5.3214,5.3214,5.3214,5.3214,5.3214,5.3214,5.3214,5.3214,5.3214,5.3518,5.3518,5.3518,5.3518,5.3518,5.3518,5.3518,5.3518,5.3518,5.3518,5.3518,5.3518,5.3518,5.3518,5.3518,5.3518,5.3518,5.3518,5.3518,5.3518,5.3518,5.3518,5.3518,5.3518,5.3518,5.3518,5.3518,5.3518,5.3518,5.3518,5.3518,5.3518,5.3518,5.3518,5.3518,5.3518,5.3518,5.3518,5.3518,5.3518,5.3518,5.3112,5.2536,5.2367,5.1589,5.0556,5.0421,4.9864,4.9255,4.9255,4.912,4.9018,4.9018,4.9018,4.9018,4.9018,4.9018,4.9018,4.9018,4.9018,4.9018,4.9018,4.9255,4.9492,4.9492,4.9492,4.9424,4.9255,4.9255,4.9187,4.9052,4.9018,4.9018,4.9018,4.9018,4.9018,4.9018,4.9018,4.9018,4.9018,4.9018,4.9018,4.9018,4.9018,4.9018,4.9018,4.9018,4.9061,4.926,4.9441,4.9767,5.0271,5.064,5.1083,5.1584,5.2006,5.2384,5.2728,5.2904,5.3071,5.3146,5.3203,5.3214,5.3214,5.3214,5.3214,5.3214,5.3214,5.3214,5.3214,5.3214,5.3214,5.3214,5.3214,5.3214,5.3214,5.3518,5.3518,5.3518,5.3518,5.3518,5.3518,5.3518,5.3518,5.3518,5.3518,5.3518,5.3518,5.3518,5.3518,5.3518,5.3518,5.3518,5.3518,5.3518,5.3518,5.3518,5.3518,5.3518,5.3518,5.3518,5.3518,5.3518,5.3518,5.3518,5.3518,5.3518,5.3518,5.3518,5.3518,5.3518,5.3518,5.3518,5.3518,5.3518,5.3518,5.3518,5.301,5.2266,5.1911,5.1082,5.0049,4.9695,4.9323,4.9018,4.9018,4.9018,4.9018,4.9018,4.9018,4.9018,4.9018,4.9018,4.9018,4.9018,4.9018,4.9018,4.9018,4.9018,4.9018,4.9018,4.9018,4.9018,4.9018,4.9018,4.9018,4.9018,4.9018,4.9018,4.9018,4.9018,4.9018,4.9018,4.9018,4.9018,4.9018,4.9018,4.9018,4.9018,4.9018,4.9018,4.9018,4.9018,4.9046,4.9199,4.9305,4.9575,5.0043,5.0369,5.0811,5.1344,5.1749,5.2209,5.2717,5.2904,5.3082,5.3214,5.3214,5.3214,5.3214,5.3214,5.3214,5.3214,5.3214,5.3214,5.3214,5.3214,5.3214,5.3214,5.3214,5.2957,5.2637,5.3518,5.3518,5.3518,5.3518,5.3518,5.3518,5.3518,5.3518,5.3518,5.3518,5.3518,5.3518,5.3518,5.3518,5.3518,5.3518,5.3518,5.3518,5.3518,5.3518,5.3518,5.3518,5.3518,5.3518,5.3518,5.3518,5.3518,5.3518,5.3518,5.3518,5.3518,5.3518,5.3518,5.3518,5.3518,5.3518,5.3518,5.3518,5.3518,5.3484,5.3348,5.2841,5.2029,5.1302,5.0541,4.9846,4.9221,4.9018,4.9018,4.9018,4.9018,4.9018,4.9018,4.9018,4.9018,4.9018,4.9018,4.9018,4.9018,4.9018,4.9018,4.9018,4.9018,4.9018,4.9018,4.9018,4.9018,4.9018,4.9018,4.9018,4.9018,4.9018,4.9018,4.9018,4.9018,4.9018,4.9018,4.9018,4.9018,4.9018,4.9018,4.9018,4.9018,4.9018,4.9018,4.9018,4.9018,4.9031,4.9153,4.9168,4.9381,4.9825,5.0028,5.0481,5.1136,5.1521,5.1993,5.2534,5.2828,5.306,5.3214,5.3214,5.3214,5.3214,5.3214,5.3214,5.3214,5.3214,5.3214,5.3214,5.3214,5.3104,5.2994,5.2847,5.238,5.1803,5.3518,5.3518,5.3518,5.3518,5.3518,5.3518,5.3518,5.3518,5.3518,5.3518,5.3518,5.3518,5.3518,5.3518,5.3518,5.3518,5.3518,5.3518,5.3518,5.3518,5.3518,5.3518,5.3518,5.3518,5.3518,5.3518,5.3518,5.3518,5.3518,5.3518,5.3518,5.3518,5.3518,5.3518,5.3518,5.3518,5.3518,5.3518,5.3518,5.345,5.2739,5.2029,5.1269,5.0541,4.9796,4.9154,4.9052,4.9018,4.9018,4.9018,4.9018,4.9018,4.9018,4.9018,4.9018,4.9018,4.9018,4.9018,4.9018,4.9018,4.9018,4.9018,4.9018,4.9018,4.9018,4.9018,4.9018,4.9018,4.9018,4.9018,4.9018,4.9018,4.9018,4.9018,4.9018,4.9018,4.9018,4.9018,4.9018,4.9018,4.9018,4.9018,4.9018,4.9018,4.9018,4.9018,4.9018,4.9018,4.9049,4.9049,4.9184,4.953,4.9811,5.0222,5.0843,5.1418,5.1908,5.2327,5.2672,5.2974,5.3214,5.3214,5.3214,5.3214,5.3214,5.3214,5.3214,5.3214,5.3214,5.3214,5.3214,5.2784,5.2087,5.1389,5.1059,5.0949,5.3518,5.3518,5.3518,5.3518,5.3518,5.3518,5.3518,5.3518,5.3518,5.3518,5.3518,5.3518,5.3518,5.3518,5.3518,5.3518,5.3518,5.3518,5.3518,5.3518,5.3518,5.3518,5.3518,5.3518,5.3518,5.3518,5.3518,5.3518,5.3518,5.3518,5.3518,5.3518,5.3518,5.3518,5.3518,5.3518,5.3518,5.3518,5.3518,5.345,5.2638,5.186,5.1133,5.0371,4.9627,4.9018,4.9018,4.9018,4.9018,4.9018,4.9018,4.9018,4.9018,4.9018,4.9018,4.9018,4.9018,4.9018,4.9018,4.9018,4.9018,4.9018,4.9018,4.9018,4.9018,4.9018,4.9018,4.9018,4.9018,4.9018,4.9018,4.9018,4.9018,4.9018,4.9018,4.9018,4.9018,4.9018,4.9018,4.9018,4.9018,4.9018,4.9018,4.9018,4.9018,4.9018,4.9018,4.9018,4.9018,4.9018,4.9138,4.9471,4.9693,5.0108,5.0789,5.1201,5.1699,5.2244,5.2534,5.2828,5.3092,5.3182,5.3214,5.3177,5.2711,5.2527,5.2491,5.204,5.1856,5.1856,5.1856,5.1646,5.1279,5.0949,5.0508,5.0115]}]]